[[{"header":{"parameterUnit":"m.s-1","parameterCategory":1,"la1":31.0,"la2":29.5877,"lo1":-88.7671,"lo2":-86.6584,"dy":0.0162,"dx":0.0185,"nx":115,"ny":88,"refTime":"2023-06-16T18:00:00:Z","depth":0,"parameterNumber":2,"parameterNumberName":"U-component_of_WINDS"},"data":[0.0,0.0,0.0,0.0,0.0,0.0,0.0,0.0,0.0,0.0,0.0,0.0,0.0,0.0,0.0,0.0,0.0,0.0,0.0,0.0,0.0,0.0,0.0,0.0,0.0,0.0,0.0,0.0,0.0,0.0,0.0,0.0,0.0,0.0,0.0,0.0,0.0,0.0,0.0,0.0,0.0,0.0,0.0,0.0,0.0,0.0,0.0,0.0,0.0,0.0,0.0,0.0,0.0,0.0,0.0,0.0,0.0,0.0,0.0,0.0,0.0,0.0,0.0,0.0,0.0,0.0,0.0,0.0,0.0,0.0,0.0,0.0,0.0,0.0,0.0,0.0,0.0,0.0,0.0,0.0,0.0,0.0,0.0,0.0,0.0,0.0,0.0,0.0,0.0,0.0,0.0,0.0,0.0,0.0,0.0,0.0,0.0,0.0,0.0,0.0,0.0,0.0,0.0,0.0,0.0,0.0,0.0,0.0,0.0,0.0,0.0,0.0,0.0,0.0,0.0,0.0,0.0,0.0,0.0,0.0,0.0,0.0,0.0,0.0,0.0,0.0,0.0,0.0,0.0,0.0,0.0,0.0,0.0,0.0,0.0,0.0,0.0,0.0,0.0,0.0,0.0,0.0,0.0,0.0,0.0,0.0,0.0,0.0,0.0,0.0,0.0,0.0,0.0,0.0,0.0,0.0,0.0,0.0,0.0,0.0,0.0,0.0,0.0,0.0,0.0,0.0,0.0,0.0,0.0,0.0,0.0,0.0,0.0,0.0,0.0,0.0,0.0,0.0,0.0,0.0,0.0,0.0,0.0,0.0,0.0,0.0,0.0,0.0,0.0,0.0,0.0,0.0,0.0,0.0,0.0,0.0,0.0,0.0,0.0,0.0,0.0,0.0,0.0,0.0,0.0,0.0,0.0,0.0,0.0,0.0,0.0,0.0,0.0,0.0,0.0,0.0,0.0,0.0,0.0,0.0,0.0,0.0,0.0,0.0,0.0,0.0,0.0,0.0,0.0,0.0,0.0,0.0,0.0,0.0,0.0,0.0,0.0,0.0,0.0,0.0,0.0,0.0,0.0,0.0,0.0,0.0,0.0,0.0,0.0,0.0,0.0,0.0,0.0,0.0,0.0,0.0,0.0,0.0,0.0,0.0,0.0,0.0,0.0,0.0,0.0,0.0,0.0,0.0,0.0,0.0,0.0,0.0,0.0,0.0,0.0,0.0,0.0,0.0,0.0,0.0,0.0,0.0,0.0,0.0,0.0,0.0,0.0,0.0,0.0,0.0,0.0,0.0,0.0,0.0,0.0,0.0,0.0,0.0,0.0,0.0,0.0,0.0,0.0,0.0,0.0,0.0,0.0,0.0,0.0,0.0,0.0,0.0,0.0,0.0,0.0,0.0,0.0,0.0,0.0,0.0,0.0,0.0,0.0,0.0,0.0,0.0,0.0,0.0,0.0,0.0,0.0,0.0,0.0,0.0,0.0,0.0,0.0,0.0,0.0,0.0,0.0,0.0,0.0,0.0,0.0,0.0,0.0,0.0,0.0,0.0,0.0,0.0,0.0,0.0,0.0,0.0,0.0,0.0,0.0,0.0,0.0,0.0,0.0,0.0,0.0,0.0,0.0,0.0,0.0,0.0,0.0,0.0,0.0,0.0,0.0,0.0,0.0,0.0,0.0,0.0,0.0,0.0,0.0,0.0,0.0,0.0,0.0,0.0,0.0,0.0,0.0,0.0,0.0,0.0,0.0,0.0,0.0,0.0,0.0,0.0,0.0,0.0,0.0,0.0,0.0,0.0,0.0,0.0,0.0,0.0,0.0,0.0,0.0,0.0,0.0,0.0,0.0,0.0,0.0,0.0,0.0,0.0,0.0,0.0,0.0,0.0,0.0,0.0,0.0,0.0,0.0,0.0,0.0,0.0,0.0,0.0,0.0,0.0,0.0,0.0,0.0,0.0,0.0,0.0,0.0,0.0,0.0,0.0,0.0,0.0,0.0,0.0,0.0,0.0,0.0,0.0,0.0,0.0,0.0,0.0,0.0,0.0,0.0,0.0,0.0,0.0,0.0,0.0,0.0,0.0,0.0,0.0,0.0,0.0,0.0,0.0,0.0,0.0,0.0,0.0,0.0,0.0,0.0,0.0,0.0,0.0,0.0,0.0,0.0,0.0,0.0,0.0,0.0,0.0,0.0,0.0,0.0,0.0,0.0,0.0,0.0,0.0,0.0,0.0,0.0,0.0,0.0,0.0,0.0,0.0,0.0,0.0,0.0,0.0,0.0,0.0,0.0,0.0,0.0,0.0,0.0,0.0,0.0,0.0,0.0,0.0,0.0,0.0,0.0,0.0,0.0,0.0,0.0,0.0,0.0,0.0,0.0,0.0,0.0,0.0,0.0,0.0,0.0,0.0,0.0,0.0,0.0,0.0,0.0,0.0,0.0,0.0,0.0,0.0,0.0,0.0,0.0,0.0,0.0,0.0,0.0,0.0,0.0,0.0,0.0,0.0,0.0,0.0,0.0,0.0,0.0,0.0,0.0,0.0,0.0,0.0,0.0,0.0,0.0,0.0,0.0,0.0,0.0,0.0,0.0,0.0,0.0,0.0,0.0,0.0,0.0,0.0,0.0,0.0,0.0,0.0,0.0,0.0,0.0,0.0,0.0,0.0,0.0,0.0,0.0,0.0,0.0,0.0,0.0,0.0,0.0,0.0,0.0,0.0,0.0,0.0,0.0,0.0,0.0,0.0,0.0,0.0,0.0,0.0,0.0,0.0,0.0,0.0,0.0,0.0,0.0,0.0,0.0,0.0,0.0,0.0,0.0,0.0,0.0,0.0,0.0,0.0,0.0,0.0,0.0,0.0,0.0,0.0,0.0,0.0,0.0,0.0,0.0,0.0,0.0,0.0,0.0,0.0,0.0,0.0,0.0,0.0,0.0,0.0,0.0,0.0,0.0,0.0,0.0,0.0,0.0,0.0,0.0,0.0,0.0,0.0,0.0,0.0,0.0,0.0,0.0,0.0,0.0,0.0,0.0,0.0,0.0,0.0,0.0,0.0,0.0,0.0,0.0,0.0,0.0,0.0,0.0,0.0,0.0,0.0,0.0,0.0,0.0,0.0,0.0,0.0,0.0,0.0,0.0,0.0,0.0,0.0,0.0,0.0,0.0,0.0,0.0,0.0,0.0,0.0,0.0,0.0,0.0,0.0,0.0,0.0,0.0,0.0,0.0,0.0,0.0,0.0,0.0,0.0,0.0,0.0,0.0,0.0,0.0,0.0,0.0,0.0,0.0,0.0,0.0,0.0,0.0,0.0,0.0,0.0,0.0,0.0,0.0,0.0,0.0,0.0,0.0,0.0,0.0,0.0,0.0,0.0,0.0,0.0,0.0,0.0,0.0,0.0,0.0,0.0,0.0,0.0,0.0,0.0,0.0,0.0,0.0,0.0,0.0,0.0,0.0,0.0,0.0,0.0,0.0,0.0,0.0,0.0,0.0,0.0,0.0,0.0,0.0,0.0,0.0,0.0,0.0,0.0,0.0,0.0,0.0,0.0,0.0,0.0,0.0,0.0,0.0,0.0,0.0,0.0,0.0,0.0,0.0,0.0,0.0,0.0,0.0,0.0,0.0,0.0,0.0,0.0,0.0,0.0,0.0,0.0,0.0,0.0,0.0,0.0,0.0,0.0,0.0,0.0,0.0,0.0,0.0,0.0,0.0,0.0,0.0,0.0,0.0,0.0,0.0,0.0,0.0,0.0,0.0,0.0,0.0,0.0,0.0,0.0,0.0,0.0,0.0,0.0,0.0,0.0,0.0,0.0,0.0,0.0,0.0,0.0,0.0,0.0,0.0,0.0,0.0,0.0,0.0,0.0,0.0,0.0,0.0,0.0,0.0,0.0,0.0,0.0,0.0,0.0,0.0,0.0,0.0,0.0,0.0,0.0,0.0,0.0,0.0,0.0,0.0,0.0,0.0,0.0,0.0,0.0,0.0,0.0,0.0,0.0,0.0,0.0,0.0,0.0,0.0,0.0,0.0,0.0,0.0,0.0,0.0,0.0,0.0,0.0,0.0,0.0,0.0,0.0,0.0,0.0,0.0,0.0,0.0,0.0,0.0,0.0,0.0,0.0,0.0,0.0,0.0,0.0,0.0,0.0,0.0,0.0,0.0,0.0,0.0,0.0,0.0,0.0,0.0,0.0,0.0,0.0,0.0,0.0,0.0,0.0,0.0,0.0,0.0,0.0,0.0,0.0,0.0,0.0,0.0,0.0,0.0,0.0,-2.7173,0.0,0.0,0.0,0.0,0.0,0.0,0.0,0.0,0.0,0.0,0.0,0.0,0.0,0.0,0.0,0.0,0.0,0.0,0.0,0.0,0.0,0.0,0.0,0.0,0.0,0.0,0.0,0.0,0.0,0.0,0.0,0.0,0.0,0.0,0.0,0.0,0.0,0.0,0.0,0.0,0.0,0.0,0.0,0.0,0.0,0.0,0.0,0.0,0.0,0.0,0.0,0.0,0.0,0.0,0.0,0.0,0.0,0.0,0.0,0.0,0.0,0.0,0.0,0.0,0.0,0.0,0.0,0.0,0.0,0.0,0.0,0.0,0.0,0.0,0.0,0.0,0.0,0.0,0.0,0.0,0.0,0.0,0.0,0.0,0.0,0.0,0.0,0.0,0.0,0.0,0.0,0.0,0.0,0.0,0.0,0.0,0.0,0.0,0.0,0.0,0.0,0.0,0.0,0.0,0.0,0.0,0.0,0.0,0.0,0.0,-2.667,-2.6824,-2.7041,-2.7324,-2.7653,0.0,0.0,0.0,0.0,0.0,0.0,0.0,0.0,0.0,0.0,0.0,0.0,0.0,0.0,0.0,0.0,0.0,0.0,0.0,0.0,0.0,0.0,0.0,0.0,0.0,0.0,0.0,0.0,0.0,0.0,0.0,0.0,0.0,0.0,0.0,0.0,0.0,0.0,0.0,0.0,0.0,0.0,0.0,0.0,0.0,0.0,0.0,0.0,0.0,0.0,0.0,0.0,0.0,0.0,0.0,0.0,0.0,0.0,0.0,0.0,0.0,0.0,0.0,0.0,0.0,0.0,0.0,0.0,0.0,0.0,0.0,0.0,0.0,0.0,0.0,0.0,0.0,0.0,0.0,0.0,0.0,0.0,0.0,0.0,0.0,0.0,0.0,0.0,0.0,0.0,0.0,0.0,0.0,0.0,0.0,0.0,0.0,0.0,0.0,0.0,0.0,0.0,0.0,0.0,0.0,0.0,0.0,0.0,0.0,0.0,0.0,0.0,-2.7386,-2.767,-2.8154,0.0,0.0,0.0,0.0,0.0,0.0,0.0,0.0,0.0,0.0,0.0,0.0,0.0,0.0,0.0,0.0,0.0,0.0,0.0,0.0,0.0,0.0,0.0,0.0,0.0,0.0,0.0,0.0,0.0,0.0,0.0,0.0,0.0,0.0,0.0,0.0,0.0,0.0,0.0,0.0,0.0,0.0,0.0,0.0,0.0,0.0,0.0,0.0,0.0,0.0,0.0,0.0,0.0,0.0,0.0,0.0,0.0,0.0,0.0,0.0,0.0,0.0,0.0,0.0,0.0,0.0,0.0,0.0,0.0,0.0,0.0,0.0,0.0,0.0,0.0,0.0,0.0,0.0,0.0,0.0,0.0,0.0,0.0,0.0,0.0,0.0,0.0,0.0,0.0,0.0,0.0,0.0,0.0,0.0,0.0,0.0,0.0,0.0,0.0,0.0,0.0,0.0,0.0,0.0,0.0,0.0,0.0,0.0,0.0,0.0,-2.78,-2.7664,-2.8305,0.0,-2.8727,0.0,0.0,0.0,0.0,0.0,0.0,0.0,0.0,0.0,0.0,0.0,0.0,0.0,0.0,0.0,0.0,0.0,0.0,0.0,0.0,0.0,0.0,0.0,0.0,0.0,0.0,0.0,0.0,0.0,0.0,0.0,0.0,0.0,0.0,0.0,0.0,0.0,0.0,0.0,0.0,0.0,0.0,0.0,0.0,0.0,0.0,0.0,0.0,0.0,0.0,0.0,0.0,0.0,0.0,0.0,0.0,0.0,0.0,0.0,0.0,0.0,0.0,0.0,0.0,0.0,0.0,0.0,0.0,0.0,0.0,0.0,0.0,0.0,0.0,0.0,0.0,0.0,0.0,0.0,0.0,0.0,0.0,0.0,0.0,0.0,0.0,0.0,0.0,0.0,0.0,0.0,0.0,0.0,0.0,0.0,0.0,0.0,0.0,0.0,0.0,0.0,0.0,0.0,0.0,0.0,0.0,0.0,0.0,0.0,0.0,-2.7954,-2.8324,-2.8659,-2.8814,0.0,0.0,0.0,0.0,0.0,0.0,0.0,0.0,0.0,0.0,0.0,0.0,0.0,0.0,0.0,0.0,0.0,0.0,0.0,0.0,0.0,0.0,0.0,0.0,0.0,0.0,0.0,0.0,0.0,0.0,0.0,0.0,0.0,0.0,0.0,0.0,0.0,0.0,0.0,0.0,0.0,0.0,0.0,0.0,0.0,0.0,0.0,0.0,0.0,0.0,0.0,0.0,0.0,0.0,0.0,0.0,0.0,0.0,0.0,0.0,0.0,0.0,0.0,0.0,0.0,0.0,0.0,0.0,0.0,0.0,0.0,0.0,0.0,0.0,0.0,0.0,0.0,0.0,0.0,0.0,0.0,0.0,0.0,0.0,0.0,0.0,0.0,0.0,0.0,0.0,0.0,0.0,0.0,0.0,0.0,0.0,0.0,0.0,0.0,0.0,0.0,0.0,0.0,0.0,0.0,0.0,0.0,0.0,0.0,0.0,-2.7828,-2.8207,-2.8746,-2.8814,-2.8814,-2.8814,0.0,0.0,0.0,0.0,0.0,0.0,0.0,0.0,0.0,0.0,0.0,0.0,0.0,0.0,0.0,0.0,0.0,0.0,0.0,0.0,0.0,0.0,0.0,0.0,0.0,0.0,0.0,0.0,0.0,0.0,0.0,0.0,0.0,0.0,0.0,0.0,0.0,0.0,0.0,0.0,0.0,0.0,0.0,0.0,0.0,0.0,0.0,0.0,0.0,0.0,0.0,0.0,0.0,0.0,0.0,0.0,0.0,0.0,0.0,0.0,0.0,0.0,0.0,0.0,0.0,0.0,0.0,0.0,0.0,0.0,0.0,0.0,0.0,0.0,0.0,0.0,0.0,0.0,0.0,0.0,0.0,0.0,0.0,0.0,0.0,0.0,0.0,0.0,0.0,0.0,0.0,0.0,0.0,0.0,0.0,0.0,0.0,0.0,0.0,0.0,0.0,0.0,0.0,0.0,0.0,0.0,0.0,0.0,-2.833,-2.8606,-2.8746,-2.8814,-2.8814,-2.8814,0.0,0.0,0.0,0.0,0.0,0.0,0.0,0.0,0.0,0.0,0.0,0.0,0.0,0.0,0.0,0.0,0.0,0.0,0.0,0.0,0.0,0.0,0.0,0.0,0.0,0.0,0.0,0.0,0.0,0.0,0.0,0.0,0.0,0.0,0.0,0.0,0.0,0.0,0.0,0.0,0.0,0.0,0.0,0.0,0.0,0.0,0.0,0.0,0.0,0.0,0.0,0.0,0.0,0.0,0.0,0.0,0.0,0.0,0.0,0.0,0.0,0.0,0.0,0.0,0.0,0.0,0.0,0.0,0.0,0.0,0.0,0.0,0.0,0.0,0.0,0.0,0.0,0.0,0.0,0.0,0.0,0.0,0.0,0.0,0.0,0.0,0.0,0.0,0.0,0.0,0.0,0.0,0.0,0.0,0.0,0.0,0.0,0.0,0.0,0.0,0.0,0.0,0.0,0.0,0.0,0.0,0.0,0.0,0.0,-2.8395,-2.8675,-2.8814,-2.8814,-2.8814,-2.8814,0.0,0.0,0.0,0.0,0.0,0.0,0.0,0.0,0.0,0.0,0.0,0.0,0.0,0.0,0.0,0.0,0.0,0.0,0.0,0.0,0.0,0.0,0.0,0.0,0.0,0.0,0.0,0.0,0.0,0.0,0.0,0.0,0.0,0.0,0.0,0.0,0.0,0.0,0.0,0.0,0.0,0.0,0.0,0.0,0.0,0.0,0.0,0.0,0.0,0.0,0.0,0.0,0.0,0.0,0.0,0.0,0.0,0.0,0.0,0.0,0.0,0.0,0.0,0.0,0.0,0.0,0.0,0.0,0.0,0.0,0.0,0.0,0.0,0.0,0.0,0.0,0.0,0.0,0.0,0.0,0.0,0.0,0.0,0.0,0.0,0.0,0.0,0.0,0.0,0.0,0.0,0.0,0.0,0.0,0.0,0.0,0.0,0.0,0.0,0.0,0.0,0.0,0.0,0.0,0.0,0.0,0.0,0.0,0.0,-2.8704,0.0,-2.9201,0.0,-2.9226,-2.9274,0.0,0.0,0.0,0.0,0.0,0.0,0.0,0.0,0.0,0.0,0.0,0.0,0.0,0.0,0.0,0.0,0.0,0.0,0.0,0.0,0.0,0.0,0.0,0.0,0.0,0.0,0.0,0.0,0.0,0.0,0.0,0.0,0.0,0.0,0.0,0.0,0.0,0.0,0.0,0.0,0.0,0.0,0.0,0.0,0.0,0.0,0.0,0.0,0.0,0.0,0.0,0.0,0.0,0.0,0.0,0.0,0.0,0.0,0.0,0.0,0.0,0.0,0.0,0.0,0.0,0.0,0.0,0.0,0.0,0.0,0.0,0.0,0.0,0.0,0.0,0.0,0.0,0.0,0.0,0.0,0.0,0.0,0.0,0.0,0.0,0.0,0.0,0.0,0.0,0.0,0.0,0.0,0.0,0.0,0.0,0.0,0.0,0.0,0.0,0.0,0.0,0.0,0.0,0.0,0.0,0.0,0.0,0.0,-2.8511,-2.9441,-2.9705,-2.9921,-3.0188,-3.0166,-3.0188,0.0,0.0,0.0,0.0,0.0,0.0,0.0,0.0,0.0,0.0,0.0,0.0,0.0,0.0,0.0,0.0,0.0,0.0,0.0,0.0,0.0,0.0,0.0,0.0,0.0,0.0,0.0,0.0,0.0,0.0,0.0,0.0,0.0,0.0,0.0,0.0,0.0,0.0,0.0,0.0,0.0,0.0,0.0,0.0,0.0,0.0,0.0,0.0,0.0,0.0,0.0,0.0,0.0,0.0,0.0,0.0,0.0,0.0,0.0,0.0,0.0,0.0,0.0,0.0,0.0,0.0,0.0,0.0,0.0,0.0,0.0,0.0,0.0,0.0,0.0,0.0,0.0,0.0,0.0,0.0,0.0,0.0,0.0,0.0,0.0,0.0,0.0,0.0,0.0,0.0,0.0,0.0,0.0,0.0,0.0,0.0,0.0,0.0,0.0,0.0,0.0,0.0,0.0,0.0,0.0,0.0,0.0,0.0,0.0,-2.9699,-2.9927,-3.0112,-3.0209,-3.0209,-3.0209,0.0,0.0,0.0,0.0,0.0,0.0,0.0,0.0,0.0,0.0,0.0,0.0,0.0,0.0,0.0,0.0,0.0,0.0,0.0,0.0,0.0,0.0,0.0,0.0,0.0,0.0,0.0,0.0,0.0,0.0,0.0,0.0,0.0,0.0,0.0,0.0,0.0,0.0,0.0,0.0,0.0,0.0,0.0,0.0,0.0,0.0,0.0,0.0,0.0,0.0,0.0,0.0,0.0,0.0,0.0,0.0,0.0,0.0,0.0,0.0,0.0,0.0,0.0,0.0,0.0,0.0,0.0,0.0,0.0,0.0,0.0,0.0,0.0,0.0,0.0,0.0,0.0,0.0,0.0,0.0,0.0,0.0,0.0,0.0,0.0,0.0,0.0,0.0,0.0,0.0,0.0,0.0,0.0,0.0,0.0,0.0,0.0,0.0,0.0,0.0,0.0,0.0,0.0,0.0,0.0,0.0,0.0,0.0,0.0,-3.0356,-3.0385,-3.0506,-3.0734,-3.0908,-3.1018,-3.1018,0.0,0.0,0.0,0.0,0.0,0.0,0.0,0.0,0.0,0.0,0.0,0.0,0.0,0.0,0.0,0.0,0.0,0.0,0.0,0.0,0.0,0.0,0.0,0.0,0.0,0.0,0.0,0.0,0.0,0.0,0.0,0.0,0.0,0.0,0.0,0.0,0.0,0.0,0.0,0.0,0.0,0.0,0.0,0.0,0.0,0.0,0.0,0.0,0.0,0.0,0.0,0.0,0.0,0.0,0.0,0.0,0.0,0.0,0.0,0.0,0.0,0.0,0.0,0.0,0.0,0.0,0.0,0.0,0.0,0.0,0.0,0.0,0.0,0.0,0.0,0.0,0.0,0.0,0.0,0.0,0.0,0.0,0.0,0.0,0.0,0.0,0.0,0.0,0.0,0.0,0.0,0.0,0.0,0.0,0.0,0.0,0.0,0.0,0.0,0.0,0.0,0.0,0.0,0.0,0.0,0.0,0.0,0.0,-3.1262,-3.1004,-3.1064,-3.1556,-3.2066,-3.235,0.0,0.0,0.0,0.0,0.0,0.0,0.0,0.0,0.0,0.0,0.0,0.0,0.0,0.0,0.0,0.0,0.0,0.0,0.0,0.0,0.0,0.0,0.0,0.0,0.0,0.0,0.0,0.0,0.0,0.0,0.0,0.0,0.0,0.0,0.0,0.0,0.0,0.0,0.0,0.0,0.0,0.0,0.0,0.0,0.0,0.0,0.0,0.0,0.0,0.0,0.0,0.0,0.0,0.0,0.0,0.0,0.0,0.0,0.0,0.0,0.0,0.0,0.0,0.0,0.0,0.0,0.0,0.0,0.0,0.0,0.0,0.0,0.0,0.0,0.0,0.0,0.0,0.0,0.0,0.0,0.0,0.0,0.0,0.0,0.0,0.0,0.0,0.0,0.0,0.0,0.0,0.0,0.0,0.0,0.0,0.0,0.0,0.0,0.0,0.0,0.0,0.0,0.0,0.0,0.0,0.0,0.0,0.0,0.0,-3.2071,-3.1413,-3.127,-3.1578,-3.176,-3.2001,0.0,0.0,0.0,0.0,0.0,0.0,0.0,0.0,0.0,0.0,0.0,0.0,0.0,0.0,0.0,0.0,0.0,0.0,0.0,0.0,0.0,0.0,0.0,0.0,0.0,0.0,0.0,0.0,0.0,0.0,0.0,0.0,0.0,0.0,0.0,0.0,0.0,0.0,0.0,0.0,0.0,0.0,0.0,0.0,0.0,0.0,0.0,0.0,0.0,0.0,0.0,0.0,0.0,0.0,0.0,0.0,0.0,0.0,0.0,0.0,0.0,0.0,0.0,0.0,0.0,0.0,0.0,0.0,0.0,0.0,0.0,0.0,0.0,0.0,0.0,0.0,0.0,0.0,0.0,0.0,0.0,0.0,0.0,0.0,0.0,0.0,0.0,0.0,0.0,0.0,0.0,0.0,0.0,0.0,0.0,0.0,0.0,0.0,0.0,0.0,0.0,0.0,0.0,0.0,0.0,0.0,0.0,0.0,-3.2444,-3.2519,-3.2184,-3.2084,-3.2219,-3.2044,-3.2088,0.0,0.0,0.0,0.0,0.0,0.0,0.0,0.0,0.0,0.0,0.0,0.0,0.0,0.0,0.0,0.0,0.0,0.0,0.0,0.0,0.0,0.0,0.0,0.0,0.0,0.0,0.0,0.0,0.0,0.0,0.0,0.0,0.0,0.0,0.0,0.0,0.0,0.0,0.0,0.0,0.0,0.0,0.0,0.0,0.0,0.0,0.0,0.0,0.0,0.0,0.0,0.0,0.0,0.0,0.0,0.0,0.0,0.0,0.0,0.0,0.0,0.0,0.0,0.0,0.0,0.0,0.0,0.0,0.0,0.0,0.0,0.0,0.0,0.0,0.0,0.0,0.0,0.0,0.0,0.0,0.0,0.0,0.0,0.0,0.0,0.0,0.0,0.0,0.0,0.0,0.0,0.0,0.0,0.0,0.0,0.0,0.0,0.0,0.0,0.0,0.0,0.0,0.0,0.0,0.0,0.0,0.0,0.0,-3.3061,-3.2771,-3.2964,-3.3124,-3.3124,-3.2678,-3.2503,0.0,0.0,0.0,0.0,0.0,0.0,0.0,0.0,0.0,0.0,0.0,0.0,0.0,0.0,0.0,0.0,0.0,0.0,0.0,0.0,0.0,0.0,0.0,0.0,0.0,0.0,0.0,0.0,0.0,0.0,0.0,0.0,0.0,0.0,0.0,0.0,0.0,0.0,0.0,0.0,0.0,0.0,0.0,0.0,0.0,0.0,0.0,0.0,0.0,0.0,0.0,0.0,0.0,0.0,0.0,0.0,0.0,0.0,0.0,0.0,0.0,0.0,0.0,0.0,0.0,0.0,0.0,0.0,0.0,0.0,0.0,0.0,0.0,0.0,0.0,0.0,0.0,0.0,0.0,0.0,0.0,0.0,0.0,0.0,0.0,0.0,0.0,0.0,0.0,0.0,0.0,0.0,0.0,0.0,0.0,0.0,0.0,0.0,0.0,0.0,0.0,0.0,0.0,0.0,0.0,0.0,0.0,0.0,-3.3464,-3.3017,-3.3071,-3.3124,-3.3124,-3.2984,-3.3289,0.0,0.0,0.0,0.0,0.0,0.0,0.0,0.0,0.0,0.0,0.0,0.0,0.0,0.0,0.0,0.0,0.0,0.0,0.0,0.0,0.0,0.0,0.0,0.0,0.0,0.0,0.0,0.0,0.0,0.0,0.0,0.0,0.0,0.0,0.0,0.0,0.0,0.0,0.0,0.0,0.0,0.0,0.0,0.0,0.0,0.0,0.0,0.0,-3.4918,0.0,0.0,0.0,0.0,0.0,0.0,0.0,0.0,0.0,0.0,0.0,0.0,0.0,0.0,0.0,0.0,0.0,0.0,0.0,0.0,0.0,0.0,0.0,0.0,0.0,0.0,0.0,0.0,0.0,0.0,0.0,0.0,0.0,0.0,0.0,0.0,0.0,0.0,0.0,0.0,0.0,0.0,0.0,0.0,0.0,0.0,0.0,0.0,0.0,0.0,0.0,0.0,0.0,0.0,0.0,0.0,0.0,0.0,0.0,-3.4229,-3.377,-3.3748,-3.3748,-3.3748,-3.3748,-3.3879,0.0,0.0,0.0,0.0,0.0,0.0,0.0,0.0,0.0,0.0,0.0,0.0,0.0,0.0,0.0,0.0,0.0,0.0,0.0,0.0,0.0,0.0,0.0,0.0,0.0,0.0,0.0,0.0,0.0,0.0,0.0,0.0,0.0,0.0,0.0,0.0,0.0,0.0,0.0,0.0,0.0,0.0,0.0,0.0,0.0,0.0,0.0,0.0,0.0,0.0,0.0,0.0,0.0,0.0,0.0,0.0,0.0,0.0,0.0,0.0,0.0,0.0,0.0,0.0,0.0,0.0,0.0,0.0,0.0,0.0,0.0,0.0,0.0,0.0,0.0,0.0,0.0,0.0,0.0,0.0,0.0,0.0,0.0,0.0,0.0,0.0,0.0,0.0,0.0,0.0,0.0,0.0,0.0,0.0,0.0,0.0,0.0,0.0,0.0,0.0,0.0,0.0,0.0,0.0,0.0,0.0,0.0,-3.5165,-3.5212,-3.4775,-3.4753,-3.4753,-3.4753,-3.4753,-3.4622,-3.436,0.0,0.0,0.0,0.0,0.0,0.0,0.0,0.0,0.0,0.0,0.0,0.0,0.0,0.0,0.0,0.0,0.0,0.0,0.0,0.0,0.0,0.0,0.0,0.0,0.0,0.0,0.0,0.0,0.0,0.0,0.0,0.0,0.0,0.0,0.0,0.0,0.0,0.0,-3.5112,-3.5015,0.0,0.0,0.0,0.0,0.0,0.0,0.0,0.0,-3.6105,0.0,0.0,0.0,0.0,0.0,0.0,0.0,0.0,0.0,0.0,0.0,0.0,0.0,0.0,0.0,0.0,0.0,0.0,0.0,0.0,0.0,0.0,0.0,0.0,0.0,0.0,0.0,0.0,0.0,0.0,0.0,0.0,0.0,0.0,0.0,0.0,0.0,0.0,0.0,0.0,0.0,0.0,0.0,0.0,0.0,0.0,0.0,0.0,0.0,0.0,0.0,0.0,0.0,0.0,0.0,0.0,-3.628,-3.6398,-3.6216,-3.5794,-3.5736,-3.5794,-3.5736,-3.5736,-3.6063,-3.6697,0.0,0.0,0.0,0.0,0.0,0.0,0.0,0.0,0.0,0.0,0.0,0.0,0.0,0.0,0.0,0.0,0.0,0.0,0.0,0.0,0.0,0.0,0.0,0.0,0.0,0.0,0.0,0.0,0.0,0.0,0.0,0.0,0.0,0.0,0.0,0.0,0.0,0.0,0.0,-3.6146,-3.6194,0.0,0.0,0.0,0.0,0.0,0.0,0.0,0.0,-3.6338,0.0,0.0,0.0,0.0,0.0,0.0,0.0,0.0,0.0,0.0,0.0,0.0,0.0,0.0,0.0,0.0,0.0,0.0,0.0,0.0,0.0,0.0,0.0,0.0,0.0,0.0,0.0,0.0,0.0,0.0,0.0,0.0,0.0,0.0,0.0,0.0,0.0,0.0,0.0,0.0,0.0,0.0,0.0,0.0,0.0,0.0,0.0,0.0,0.0,0.0,0.0,0.0,0.0,0.0,0.0,-3.6828,-3.6568,-3.628,-3.6034,-3.6012,-3.6012,-3.6034,-3.6216,-3.6675,0.0,0.0,0.0,0.0,0.0,0.0,0.0,0.0,0.0,0.0,0.0,0.0,0.0,0.0,0.0,0.0,0.0,0.0,0.0,0.0,0.0,0.0,0.0,0.0,0.0,0.0,0.0,0.0,0.0,0.0,0.0,0.0,0.0,0.0,0.0,0.0,0.0,0.0,0.0,0.0,-3.6579,-3.6507,-3.6771,0.0,0.0,0.0,0.0,0.0,0.0,-3.702,-3.7228,0.0,0.0,0.0,0.0,0.0,0.0,0.0,0.0,0.0,0.0,0.0,0.0,0.0,0.0,0.0,0.0,0.0,0.0,0.0,0.0,0.0,0.0,0.0,0.0,0.0,0.0,0.0,0.0,0.0,0.0,0.0,0.0,0.0,0.0,0.0,0.0,0.0,0.0,0.0,0.0,0.0,0.0,0.0,0.0,0.0,0.0,0.0,0.0,0.0,0.0,0.0,0.0,0.0,0.0,0.0,-3.7123,-3.6467,-3.6156,-3.626,-3.6238,-3.6319,-3.626,-3.6631,-3.709,0.0,0.0,0.0,0.0,0.0,0.0,0.0,0.0,0.0,0.0,0.0,0.0,0.0,0.0,0.0,0.0,0.0,0.0,0.0,0.0,0.0,0.0,0.0,0.0,0.0,0.0,0.0,0.0,0.0,0.0,0.0,0.0,0.0,0.0,0.0,0.0,0.0,0.0,0.0,0.0,0.0,-3.6764,-3.7276,-3.7348,0.0,0.0,0.0,0.0,-3.7334,-3.7732,0.0,0.0,0.0,0.0,0.0,0.0,0.0,0.0,0.0,0.0,0.0,0.0,0.0,0.0,0.0,0.0,0.0,0.0,0.0,0.0,0.0,0.0,0.0,0.0,0.0,0.0,0.0,0.0,0.0,0.0,0.0,0.0,0.0,0.0,0.0,0.0,0.0,0.0,0.0,0.0,0.0,0.0,0.0,0.0,0.0,0.0,0.0,0.0,0.0,0.0,0.0,0.0,0.0,0.0,0.0,0.0,-3.7823,-3.6612,-3.6335,-3.7221,-3.7221,-3.7199,-3.7221,-3.7325,-3.7745,0.0,0.0,0.0,0.0,0.0,0.0,0.0,0.0,0.0,0.0,0.0,0.0,0.0,0.0,0.0,0.0,0.0,0.0,0.0,0.0,0.0,0.0,0.0,0.0,0.0,0.0,0.0,0.0,0.0,0.0,0.0,0.0,0.0,0.0,0.0,0.0,0.0,0.0,0.0,0.0,0.0,-3.7246,-3.7825,-3.7902,-3.7902,0.0,0.0,0.0,-3.7921,-3.7998,0.0,0.0,0.0,0.0,0.0,0.0,0.0,0.0,0.0,0.0,0.0,0.0,0.0,0.0,0.0,0.0,0.0,0.0,0.0,0.0,0.0,0.0,0.0,0.0,0.0,0.0,0.0,0.0,0.0,0.0,0.0,0.0,0.0,0.0,0.0,0.0,0.0,0.0,0.0,0.0,0.0,0.0,0.0,0.0,0.0,0.0,0.0,0.0,0.0,0.0,0.0,0.0,0.0,0.0,0.0,-3.6282,-3.6686,-3.6019,-3.589,-3.6563,-3.7132,-3.7374,-3.7374,-3.7636,-3.8117,0.0,0.0,0.0,0.0,0.0,0.0,0.0,0.0,0.0,0.0,0.0,0.0,0.0,0.0,0.0,0.0,0.0,0.0,0.0,0.0,0.0,0.0,0.0,0.0,0.0,0.0,0.0,0.0,0.0,0.0,0.0,0.0,0.0,0.0,0.0,0.0,0.0,0.0,0.0,0.0,0.0,0.0,-3.7921,-3.7974,0.0,0.0,0.0,-3.7892,-3.7572,0.0,0.0,0.0,0.0,0.0,0.0,0.0,0.0,0.0,0.0,0.0,0.0,0.0,0.0,0.0,0.0,0.0,0.0,0.0,0.0,0.0,0.0,0.0,0.0,0.0,0.0,0.0,0.0,0.0,0.0,0.0,0.0,0.0,0.0,0.0,0.0,0.0,0.0,0.0,0.0,0.0,0.0,0.0,0.0,0.0,0.0,0.0,0.0,0.0,0.0,0.0,0.0,0.0,0.0,0.0,0.0,0.0,-3.6058,-3.5622,-3.5644,-3.6258,-3.6989,-3.7374,-3.7374,-3.7745,0.0,0.0,0.0,0.0,0.0,0.0,0.0,0.0,0.0,0.0,0.0,0.0,0.0,0.0,0.0,0.0,0.0,0.0,0.0,0.0,0.0,0.0,0.0,0.0,0.0,0.0,0.0,-3.6085,0.0,0.0,0.0,0.0,0.0,0.0,0.0,0.0,0.0,0.0,0.0,0.0,0.0,0.0,-3.7302,-3.806,-3.8168,-3.8006,0.0,0.0,-3.803,-3.7601,-3.7804,-3.8022,0.0,0.0,0.0,0.0,0.0,0.0,0.0,0.0,0.0,0.0,0.0,0.0,0.0,0.0,0.0,0.0,0.0,0.0,0.0,0.0,0.0,0.0,0.0,0.0,0.0,0.0,0.0,0.0,0.0,0.0,0.0,0.0,0.0,0.0,0.0,0.0,0.0,0.0,0.0,0.0,0.0,0.0,0.0,0.0,0.0,0.0,0.0,0.0,0.0,0.0,0.0,0.0,0.0,0.0,0.0,-3.6957,-3.5998,-3.5972,-3.7253,-3.7374,-3.7374,-3.7374,-3.7418,-3.7658,0.0,0.0,0.0,0.0,0.0,0.0,0.0,0.0,0.0,0.0,0.0,0.0,0.0,0.0,0.0,0.0,0.0,0.0,0.0,0.0,0.0,0.0,0.0,0.0,0.0,0.0,0.0,0.0,0.0,0.0,0.0,0.0,0.0,0.0,0.0,0.0,0.0,0.0,0.0,0.0,0.0,-3.7224,-3.8409,-3.8577,-3.8521,0.0,0.0,-3.8713,-3.8713,-3.8281,-3.8166,-3.8671,0.0,0.0,0.0,0.0,0.0,0.0,0.0,0.0,0.0,0.0,0.0,0.0,0.0,0.0,0.0,0.0,0.0,0.0,0.0,0.0,0.0,0.0,0.0,0.0,0.0,0.0,0.0,0.0,0.0,0.0,0.0,0.0,0.0,0.0,0.0,0.0,0.0,0.0,0.0,0.0,0.0,0.0,0.0,0.0,0.0,0.0,0.0,0.0,0.0,0.0,0.0,0.0,0.0,-3.4289,-3.4322,-3.4622,-3.5335,-3.6441,-3.7071,-3.7374,-3.7374,-3.7374,-3.7614,0.0,0.0,0.0,0.0,0.0,0.0,0.0,0.0,0.0,0.0,0.0,0.0,0.0,0.0,0.0,0.0,0.0,0.0,0.0,0.0,0.0,0.0,0.0,0.0,0.0,0.0,0.0,0.0,-3.685,-3.685,-3.6888,0.0,0.0,0.0,0.0,0.0,0.0,0.0,0.0,0.0,0.0,-3.7086,-3.794,-3.8053,0.0,0.0,-3.8171,-3.8579,-3.8222,-3.8611,-3.9056,-3.9272,-3.9128,0.0,0.0,0.0,0.0,0.0,0.0,0.0,0.0,0.0,0.0,0.0,0.0,0.0,0.0,0.0,0.0,0.0,0.0,0.0,0.0,0.0,0.0,0.0,0.0,0.0,0.0,0.0,0.0,0.0,0.0,0.0,0.0,0.0,0.0,0.0,0.0,0.0,0.0,0.0,0.0,0.0,0.0,0.0,0.0,0.0,0.0,0.0,0.0,0.0,0.0,0.0,0.0,-3.4049,-3.3631,-3.4816,-3.5853,-3.6723,-3.7443,-3.7811,-3.7811,-3.7811,-3.7964,0.0,0.0,0.0,0.0,0.0,0.0,0.0,0.0,0.0,0.0,0.0,0.0,0.0,0.0,0.0,0.0,0.0,0.0,0.0,0.0,0.0,0.0,0.0,0.0,0.0,0.0,0.0,0.0,-3.7461,-3.7374,-3.7374,0.0,0.0,0.0,0.0,0.0,0.0,0.0,0.0,0.0,0.0,-3.7188,-3.7803,-3.8034,-3.8057,-3.7595,-3.8457,-3.893,-3.8341,-3.9037,-3.9602,-3.9523,0.0,0.0,0.0,0.0,0.0,0.0,0.0,0.0,0.0,0.0,0.0,0.0,0.0,0.0,0.0,0.0,0.0,0.0,0.0,0.0,0.0,0.0,0.0,0.0,0.0,0.0,0.0,0.0,0.0,0.0,0.0,0.0,0.0,0.0,0.0,0.0,0.0,0.0,0.0,0.0,0.0,0.0,0.0,0.0,0.0,0.0,0.0,0.0,0.0,0.0,0.0,0.0,0.0,-3.4097,-3.6136,-3.7037,-3.7995,-3.8647,-3.8731,-3.8709,-3.8709,-3.8731,-3.8794,-3.8753,0.0,0.0,0.0,0.0,0.0,0.0,0.0,0.0,0.0,0.0,0.0,0.0,0.0,0.0,0.0,0.0,0.0,0.0,0.0,0.0,0.0,0.0,0.0,0.0,0.0,0.0,-3.7953,-3.7658,-3.7396,0.0,0.0,0.0,0.0,0.0,0.0,0.0,0.0,0.0,0.0,-3.7774,-3.7594,-3.8171,-3.8848,-3.9157,-3.918,-3.9834,-4.0153,-3.9447,-3.9498,-3.9555,0.0,0.0,0.0,0.0,0.0,0.0,0.0,0.0,0.0,0.0,0.0,0.0,0.0,0.0,0.0,0.0,0.0,0.0,0.0,0.0,0.0,0.0,0.0,0.0,0.0,0.0,0.0,0.0,0.0,0.0,0.0,0.0,0.0,0.0,0.0,0.0,0.0,0.0,0.0,0.0,-3.7032,-3.6887,0.0,0.0,0.0,0.0,0.0,0.0,0.0,0.0,0.0,0.0,0.0,0.0,-3.3532,-3.4429,-3.5686,-3.719,-3.8753,-3.8753,-3.8753,-3.8753,-3.8753,-3.8991,-3.9296,0.0,0.0,0.0,0.0,0.0,0.0,0.0,0.0,0.0,0.0,0.0,0.0,0.0,0.0,0.0,0.0,0.0,0.0,0.0,0.0,0.0,0.0,0.0,0.0,0.0,-3.6231,0.0,0.0,0.0,0.0,0.0,0.0,0.0,0.0,0.0,0.0,0.0,-3.5905,-3.6603,-3.7132,-3.7616,-3.8238,-3.8477,-3.8775,0.0,0.0,0.0,0.0,0.0,0.0,0.0,0.0,0.0,0.0,0.0,0.0,0.0,0.0,-3.9056,-3.9056,-3.9056,-3.9056,-3.9056,0.0,0.0,0.0,0.0,0.0,0.0,0.0,0.0,0.0,0.0,0.0,0.0,0.0,0.0,0.0,0.0,-3.6929,0.0,0.0,0.0,0.0,0.0,0.0,0.0,0.0,-3.6949,-3.6887,-3.7032,-3.7053,-3.7136,0.0,-3.6738,-3.6738,0.0,0.0,0.0,0.0,0.0,0.0,0.0,0.0,-3.4026,-3.5277,-3.635,-3.7672,-3.9276,-3.934,-3.934,-3.934,-3.934,-3.9471,-3.9863,-3.9863,-3.9952,0.0,0.0,0.0,0.0,0.0,0.0,0.0,0.0,0.0,0.0,0.0,0.0,0.0,0.0,0.0,0.0,0.0,0.0,0.0,0.0,0.0,0.0,0.0,-3.6127,0.0,0.0,0.0,0.0,0.0,0.0,0.0,0.0,0.0,-3.4716,-3.5413,-3.5977,-3.6289,-3.724,-3.8121,-3.873,0.0,0.0,0.0,0.0,0.0,0.0,0.0,-4.1115,-4.0884,-4.1081,-4.1196,-4.1196,-4.0908,-4.0667,-4.0667,0.0,0.0,-3.9681,-3.9609,-3.9609,-3.9609,-3.932,-3.9104,-3.9104,-3.8815,-3.8551,0.0,0.0,0.0,0.0,0.0,0.0,0.0,0.0,-3.6991,-3.6825,0.0,-3.6846,0.0,0.0,0.0,0.0,0.0,0.0,0.0,0.0,-3.6887,-3.7094,-3.7529,-3.755,-3.7777,-3.8125,-3.6761,-3.6829,-3.8037,-3.597,0.0,0.0,0.0,0.0,0.0,0.0,-3.5325,-3.837,-3.8856,-3.9516,-4.0323,-4.0323,-4.0323,-4.0323,-4.0323,-4.0323,-4.0301,-4.0301,-4.0301,-4.0344,-4.0344,0.0,0.0,0.0,0.0,0.0,0.0,0.0,0.0,0.0,0.0,0.0,0.0,0.0,0.0,0.0,0.0,0.0,0.0,0.0,0.0,-3.813,0.0,0.0,0.0,0.0,0.0,0.0,0.0,0.0,0.0,0.0,-3.523,-3.5626,-3.6078,-3.7042,0.0,0.0,0.0,0.0,-4.0223,-4.0963,-4.115,-4.1071,-4.041,-4.084,-4.1071,-4.041,0.0,0.0,-4.122,-4.1196,-4.1172,-4.1196,-4.1148,-4.086,-3.9874,-3.9729,-3.9705,-3.9705,-3.9705,-3.9657,-3.9633,-3.9585,-3.9585,-3.8067,0.0,0.0,0.0,0.0,-3.7198,-3.6991,-3.6991,-3.6867,-3.6991,-3.7301,-3.7301,0.0,0.0,0.0,0.0,0.0,0.0,-3.7798,-3.7798,-3.7798,-3.8026,-3.8393,-3.846,-3.8688,-3.9075,-3.8644,-3.8733,-3.9075,-3.8466,-3.7248,-3.5525,0.0,0.0,0.0,0.0,-3.5365,-3.6747,-3.7984,-3.9511,-4.1284,-4.1284,-4.1284,-4.1284,-4.1284,-4.1131,-4.0804,-4.0804,-4.0629,-4.0301,-4.0344,0.0,0.0,0.0,0.0,0.0,0.0,0.0,0.0,0.0,0.0,0.0,0.0,0.0,0.0,0.0,0.0,0.0,0.0,0.0,-3.5295,-3.6467,-3.6723,0.0,0.0,0.0,0.0,0.0,0.0,0.0,0.0,0.0,-3.4252,-3.5105,-3.6078,0.0,0.0,-3.8941,-3.9312,-4.0111,-4.0959,-4.2102,0.0,0.0,0.0,-4.2184,-4.2303,-4.2066,-4.1873,-4.1749,-4.1749,-4.1437,-4.1196,-4.1196,-4.1196,-4.1076,-4.0812,-4.0739,-4.0715,-4.0739,-4.0739,-4.0595,-4.0258,-4.0162,-4.0066,-3.8564,-3.8667,-3.8026,-3.7777,-3.7736,-3.7467,-3.7446,-3.7612,-3.7612,-3.7881,-3.8316,-3.8295,-3.846,-3.873,-3.873,0.0,0.0,0.0,-3.873,-3.873,-3.873,-3.8854,-3.9034,-3.9055,-3.9199,-3.9468,-3.8893,-3.8963,-3.9468,-3.8893,-3.8117,-3.702,0.0,0.0,-3.5579,-3.5882,-3.6643,-3.8007,-3.8853,-4.0067,-4.1632,-4.1677,-4.1677,-4.1677,-4.1677,-4.1546,-4.1284,-4.1284,-4.1153,-4.0847,-4.0651,-4.0651,0.0,0.0,0.0,0.0,0.0,0.0,0.0,0.0,0.0,0.0,0.0,-4.0038,-4.0257,0.0,0.0,0.0,-3.6836,-3.5139,-3.449,-3.5617,0.0,0.0,0.0,0.0,0.0,0.0,0.0,-3.3778,-3.4512,-3.5089,-3.5089,-3.611,-3.6955,-3.7085,-3.8101,-3.9065,-3.9933,0.0,-4.1468,-4.2529,-4.276,-4.2819,-4.2819,-4.2819,-4.2819,-4.2819,-4.2554,-4.2338,-4.2338,-4.2014,-4.1822,-4.1774,-4.1629,-4.1509,-4.1509,-4.1341,-4.1196,-4.1196,-4.1196,-4.1076,-4.0763,-4.0715,-4.0595,-3.9075,-3.9454,-3.8647,-3.8295,-3.8295,-3.8295,-3.8523,-3.8827,-3.8827,-3.9075,-3.9468,-3.9468,-3.9468,-3.9468,-3.9468,0.0,0.0,-3.9468,-3.9447,-3.9468,-3.9468,-3.9558,-3.953,-3.9599,-3.955,-3.9592,-3.8257,-3.8257,-3.9502,-3.8257,-3.7732,-3.8034,-3.759,-3.8237,-3.9668,-3.8327,-3.8656,-4.0972,-4.0741,-4.1015,-4.1808,-4.1808,-4.1808,-4.1808,-4.1808,-4.1786,-4.1765,-4.1743,-4.1721,-4.1677,-4.1284,-4.1262,-4.1634,0.0,0.0,0.0,0.0,0.0,0.0,0.0,0.0,0.0,0.0,0.0,0.0,0.0,0.0,0.0,-3.6364,0.0,-3.5549,-3.5617,0.0,0.0,0.0,-3.4075,-3.4075,-3.4883,-3.5344,-3.5275,0.0,0.0,0.0,0.0,-3.8063,-3.7126,-3.8063,-3.9407,-4.0971,-4.1375,-4.1791,-4.2497,-4.2793,-4.2904,-4.3,-4.2976,-4.2976,-4.2976,-4.2916,-4.2891,-4.2867,-4.2735,-4.2819,-4.2747,-4.241,-4.2097,-4.2038,-4.1677,-4.1317,-4.1365,-4.1268,-4.1172,-4.1148,-4.1148,-4.1124,-3.9364,-3.9516,-3.9309,-3.9226,-3.9206,-3.9226,-3.9268,-3.9302,-3.9371,-3.9364,-3.9468,-3.9468,-3.9468,-3.9468,-3.9468,-3.9468,-3.9468,-3.9468,-3.9468,-3.9468,-3.9468,-3.9654,-4.0054,-4.0005,-4.0241,-4.053,-4.0197,-4.0247,-4.0551,-4.0247,-4.0095,-4.0106,-3.8838,-3.7967,-3.7586,-3.8923,-3.9851,-4.0398,-4.0933,-4.1748,-4.2813,-4.2813,-4.2835,-4.2813,-4.2813,-4.2638,-4.2267,-4.2245,-4.207,-4.1699,-4.159,-4.159,-4.1677,-4.0651,0.0,0.0,0.0,0.0,0.0,0.0,0.0,0.0,0.0,-3.861,-3.9057,0.0,-3.6696,0.0,-3.9254,-3.8441,-3.6789,-3.7374,0.0,0.0,-3.6789,-3.6248,-3.6248,-3.5753,-3.507,-3.4283,-3.4421,-3.4558,-3.4558,-3.55,-3.6364,-3.6924,-3.866,-3.9997,-4.0127,-4.1287,-4.2362,-4.2989,-4.3517,-4.3925,-4.3938,-4.3962,-4.3938,-4.3901,-4.3625,-4.3337,-4.3337,-4.3,-4.2819,-4.2819,-4.2747,-4.2627,-4.2567,-4.2447,-4.2434,-4.2327,-4.1749,-4.1196,-4.1196,-4.1196,-4.1196,-3.9951,-4.0137,-4.0137,-4.0137,-4.0116,-3.9702,-3.9592,-3.9847,-3.9847,-3.9951,-4.0137,-4.0137,-4.0137,-4.0137,-4.0137,-4.0137,-4.0137,-4.0137,-4.0137,-4.0137,-4.0137,-3.9909,-3.9495,-3.9423,-3.9616,-3.9838,-3.9838,-4.0218,-4.0882,-4.0882,-4.0882,-4.0882,-3.9982,-3.9313,-3.8859,-3.9458,-4.0177,-4.1034,-4.1764,-4.2511,-4.3184,-4.3184,-4.3184,-4.3184,-4.3184,-4.3053,-4.2769,-4.2769,-4.2638,-4.2354,-4.2136,-4.2114,-4.2333,-4.1305,-4.1108,0.0,0.0,0.0,0.0,0.0,0.0,0.0,0.0,0.0,0.0,0.0,-3.6596,0.0,-3.8859,0.0,-3.7126,-3.7595,-3.7929,-3.795,-3.7394,-3.6991,-3.6991,-3.6519,-3.6093,-3.5976,-3.5976,-3.5976,-3.5976,-3.6904,-3.7575,-3.7796,-3.921,-4.0192,-4.017,-4.1312,-4.242,-4.2799,-4.3451,-4.3974,-4.4223,-4.4285,-4.4285,-4.4261,-4.4021,-4.389,-4.3805,-4.3649,-4.3457,-4.3457,-4.3265,-4.3096,-4.3096,-4.294,-4.2819,-4.2747,-4.2303,-4.1942,-4.1952,-4.1952,-4.1952,-4.053,-4.0882,-4.0882,-4.0903,-4.0903,-4.0137,-3.9992,-4.0303,-4.0303,-4.053,-4.0882,-4.0882,-4.0882,-4.0882,-4.0882,-4.0882,-4.0882,-4.0882,-4.0882,-4.0882,-4.0882,-4.0146,-3.8806,-3.8806,-3.8806,-3.8806,-3.8806,-3.955,-4.0882,-4.0882,-4.0903,-4.0965,-4.0822,-4.0986,-4.1569,-4.0144,-4.0279,-4.2089,-4.2878,-4.3228,-4.3184,-4.3228,-4.3228,-4.3184,-4.3184,-4.3184,-4.3184,-4.3184,-4.3184,-4.3163,-4.2748,-4.2726,-4.3141,-4.2217,-4.1912,0.0,-4.1978,0.0,0.0,0.0,0.0,0.0,0.0,0.0,0.0,-3.7106,-3.7126,-3.6856,-3.6924,-3.6991,-3.6991,-3.6991,-3.6991,-3.6991,-3.6991,-3.6991,-3.6836,-3.6789,-3.7126,-3.7996,-3.8196,-3.8283,-3.8129,-3.9341,-3.967,-3.8946,-3.9801,-4.0517,-4.0409,-4.1399,-4.2356,-4.242,-4.2988,-4.3764,-4.4161,-4.4285,-4.4285,-4.4285,-4.4261,-4.4285,-4.4261,-4.4261,-4.4261,-4.4213,-4.3914,-4.3625,-4.3625,-4.3265,-4.3024,-4.3048,-4.3,-4.2904,-4.2795,-4.2723,-4.2819,-4.08,-4.0882,-4.0882,-4.1089,-4.1421,-4.1255,-4.1027,-4.0758,-4.0758,-4.08,-4.0882,-4.0882,-4.0882,-4.0882,-4.0882,-4.0882,-4.0882,-4.0882,-4.0882,-4.0882,-4.0882,-4.074,-4.0433,-4.0433,-4.0433,-4.0433,-4.0433,-4.0576,-4.0882,-4.0882,-4.1069,-4.1421,-4.0164,-4.0565,-4.2491,0.0,0.0,0.0,-4.3464,-4.3556,-4.3206,-4.3534,-4.3556,-4.3206,-4.3184,0.0,-4.3184,-4.3184,-4.3184,-4.3184,-4.3097,0.0,0.0,0.0,0.0,0.0,0.0,0.0,0.0,0.0,0.0,0.0,-3.8439,-3.7489,-3.7059,-3.7863,-3.7662,-3.5889,-3.6499,-3.6991,-3.6991,-3.6991,-3.6991,-3.6991,-3.6991,-3.6654,-3.5821,-3.5753,-3.548,-3.4834,-3.55,-3.6093,-3.6364,-3.7729,-3.8946,-3.8946,-4.056,-4.1335,-4.0474,-4.1463,-4.2483,-4.3012,-4.3639,-4.4099,-4.4285,-4.4285,-4.4285,-4.4285,-4.4285,-4.4285,-4.4285,-4.4285,-4.4285,-4.4285,-4.4189,-4.4178,-4.4117,-4.4045,-4.3986,-4.4034,-4.3973,-4.3794,-4.2952,-4.2819,-4.2819,-4.1358,0.0,-4.1565,-4.1762,0.0,0.0,-4.1772,-4.1638,-4.1565,-4.1545,-4.1565,-4.1565,-4.1565,-4.1545,-4.1545,-4.1545,-4.1565,-4.1565,-4.1638,-4.1638,-4.1565,-4.1182,-4.0431,-4.0431,-4.0431,-4.0431,-4.0431,-4.0797,-4.1565,-4.1638,-4.1669,-4.1897,-4.129,-4.1706,-4.2816,-4.2648,-4.2801,-4.3512,-4.3823,-4.3643,-4.3206,-4.3403,-4.3403,-4.3184,0.0,0.0,0.0,0.0,0.0,0.0,0.0,0.0,0.0,0.0,0.0,-4.3184,-4.2651,-4.2403,-4.2744,-4.2068,-4.1257,-4.0471,-3.9529,-3.8629,-3.7904,-3.8395,-3.8262,-3.7193,-3.7528,-3.7863,-3.7863,-3.7863,-3.8063,-3.8528,-3.866,-3.8395,-3.7842,-3.7307,-3.7059,-3.7038,-3.7038,-3.7173,-3.7775,-3.8726,-3.9407,-3.9538,-4.0517,-4.1229,-4.0971,-4.1911,-4.2925,-4.324,-4.385,-4.4285,-4.4285,-4.4285,-4.4285,-4.4285,-4.4285,-4.4285,-4.4285,-4.4285,-4.4285,-4.4285,-4.4285,-4.4285,-4.4285,-4.4285,-4.4285,-4.4285,-4.4285,-4.4165,-4.3649,-4.3553,-4.3553,-4.199,-4.2322,-4.2322,-4.2384,-4.2373,-4.2373,-4.2414,-4.2476,0.0,0.0,0.0,-4.2322,-4.2322,-4.2322,-4.2322,-4.2322,-4.2322,-4.2322,-4.2322,-4.2322,-4.2322,-4.1562,-4.035,-4.033,-4.035,-4.035,-4.033,-4.1042,-4.2249,-4.2322,-4.2384,-4.2447,-4.2742,-4.2984,-4.3289,-4.397,-4.4315,-4.4146,-4.4124,-4.3954,-4.3447,-4.3512,-4.3512,-4.3425,-4.3337,-4.3294,-4.3294,-4.3228,-4.3184,-4.3184,-4.3184,-4.3184,-4.3184,-4.3184,-4.3184,-4.3184,-4.3184,-4.3184,-4.3184,-4.2791,-4.2163,-4.1156,-4.0726,-3.9977,-3.867,-3.872,-3.8699,-3.8416,-3.8217,-3.8196,-3.835,-3.7996,-3.835,-3.9538,-3.9538,-3.9407,-3.9604,-3.8946,-3.8549,-3.9473,-3.8946,-3.9012,-3.9735,-4.0062,-4.0344,-4.0279,-4.0474,-4.0777,-4.155,-4.257,-4.3326,-4.3576,-4.4013,-4.4285,-4.4285,-4.4285,-4.4285,-4.4285,-4.4285,-4.4285,-4.4285,-4.4285,-4.4285,-4.4285,-4.4285,-4.4285,-4.4285,-4.4285,-4.4285,-4.4285,-4.4285,-4.4285,-4.4285,-4.4285,-4.4237,-4.2281,-4.2322,-4.2322,-4.2476,-4.2828,-4.2828,-4.3056,-4.3346,-4.26,-4.2343,-4.2322,-4.2322,-4.2322,-4.2322,-4.2322,-4.2322,-4.2322,-4.2322,-4.2322,0.0,-4.2322,-4.2175,-4.1953,-4.1953,-4.1953,-4.1953,-4.1953,-4.2101,-4.2249,-4.2343,-4.2456,-4.2787,-4.2903,-4.3464,-4.4496,-4.536,-4.5492,-4.5129,-4.5107,-4.4888,-4.4408,-4.4801,-4.4823,-4.4408,-4.3971,-4.3823,-4.3823,-4.3403,-4.3184,-4.3184,-4.3184,-4.3184,-4.3184,-4.3184,-4.3184,-4.3184,-4.3184,-4.3184,-4.3184,-4.3119,-4.2809,-4.2257,-4.2149,-4.0942,-3.8248,-3.8776,-3.8745,-3.7368,-3.6586,-3.6228,-3.6991,-3.5772,-3.5636,-3.724,-3.6702,-3.6499,-3.7595,-3.7595,-3.7528,-3.7796,-3.8283,-3.8747,-3.9144,-3.9822,-4.0344,-4.0409,-4.0864,-4.155,-4.2633,-4.3137,-4.3514,-4.4013,-4.4223,-4.4285,-4.4285,-4.4285,-4.4285,-4.4285,-4.4285,-4.4285,-4.4285,-4.4285,-4.4285,-4.4285,-4.4285,-4.4285,-4.4285,-4.4285,-4.4285,-4.4285,-4.4285,-4.4285,-4.4285,-4.4285,-4.4285,-4.2766,-4.2994,-4.2994,-4.3118,-4.3304,-4.3304,-4.3408,-4.3573,-4.318,-4.2994,-4.2994,-4.2994,-4.2994,-4.2994,-4.2994,-4.2994,-4.2994,-4.2994,-4.2994,-4.2994,-4.2973,-4.2994,-4.2994,-4.2994,-4.2994,-4.2994,-4.2994,-4.2994,-4.2994,-4.2994,-4.3248,-4.3585,-4.4037,-4.4667,-4.5459,-4.5853,-4.5893,-4.5696,-4.5434,-4.5085,-4.4604,-4.4801,-4.4823,-4.4582,-4.4364,-4.4255,-4.4255,-4.3796,-4.3626,-4.3556,-4.3316,-4.3184,-4.3184,-4.3184,-4.3184,-4.3184,-4.3184,-4.3184,-4.3184,-4.3184,-4.3075,-4.2857,-4.2835,-4.2185,-4.0425,-4.0469,-3.9993,-3.8476,-3.7333,-3.7029,-3.777,-3.6519,-3.6384,-3.8594,-3.8308,-3.8242,-3.866,-3.8793,-3.8793,-3.8859,-3.921,-3.9538,-3.956,-4.0018,-4.0474,-4.0799,-4.1421,-4.2229,-4.3137,-4.3326,-4.3576,-4.4161,-4.4285,-4.4285,-4.4285,-4.4285,-4.4285,-4.4285,-4.4285,-4.4285,-4.4285,-4.4285,-4.4285,-4.4285,-4.4285,-4.4285,-4.4285,-4.4285,-4.4285,-4.4285,-4.4285,-4.4285,-4.4285,-4.4285,-4.4285,-4.3284,-4.3615,-4.3615,-4.3615,-4.3615,-4.3615,-4.3615,-4.3615,-4.3615,-4.3615,-4.3615,-4.3615,-4.3615,-4.3615,-4.3615,-4.3615,-4.3615,-4.3615,-4.3615,-4.3615,-4.3615,-4.3615,-4.3615,-4.3615,-4.3615,-4.3615,-4.3615,-4.3615,-4.3615,-4.3691,-4.3898,-4.4352,-4.5031,-4.5555,-4.5853,-4.6002,-4.6002,-4.598,-4.5653,-4.5281,-4.4932,-4.491,-4.491,-4.491,-4.4801,-4.4757,-4.4735,-4.4277,-4.4042,-4.3933,-4.3512,-4.3272,-4.3184,-4.3184,-4.3184,-4.3184,-4.3184,-4.3184,-4.3184,-4.3184,-4.3184,-4.3184,-4.3184,-4.301,-4.2617,-4.2245,-4.1494,-4.0078,-3.8937,-3.8568,-3.8954,-3.796,-3.8032,-3.9975,-4.0084,-3.9888,-4.0214,-4.0344,-4.0344,-4.0344,-4.0344,-4.0279,-4.0344,-4.0344,-4.0474,-4.0993,-4.1806,-4.2483,-4.2988,-4.3263,-4.3764,-4.4099,-4.4285,-4.4285,-4.4285,-4.4285,-4.4285,-4.4285,-4.4285,-4.4285,-4.4285,-4.4285,-4.4285,-4.4285,-4.4285,-4.4285,-4.4285,-4.4285,-4.4285,-4.4285,-4.4285,-4.4285,-4.4285,-4.4285,-4.4285,-4.3573,-4.3615,-4.3615,-4.3615,-4.3615,-4.3615,-4.3615,-4.3615,-4.3615,-4.3615,-4.3615,-4.3615,-4.3615,-4.3615,-4.3615,-4.3615,-4.3615,-4.3615,-4.3615,-4.3615,-4.3615,-4.3615,-4.3615,-4.3615,-4.3615,-4.3615,-4.3615,-4.3615,-4.3691,-4.3995,-4.4352,-4.473,-4.5181,-4.5405,-4.548,-4.5853,-4.6002,-4.6002,-4.5959,-4.5915,-4.5871,-4.5871,-4.5871,-4.5871,-4.5456,-4.5238,-4.5238,-4.4779,-4.432,-4.3905,-4.3889,-4.3621,-4.325,-4.3184,-4.3184,-4.3184,-4.3184,-4.3184,-4.3184,-4.3184,-4.3184,-4.3184,-4.3184,-4.3163,-4.3097,-4.3053,-4.2638,-4.1535,-4.0461,-4.0113,-4.0601,-3.8953,-3.8585,-4.0061,-3.9581,-3.921,-4.0084,-4.0344,-4.0344,-4.0344,-4.0344,-4.0344,-4.0344,-4.0409,-4.0474,-4.0799,-4.187,-4.2546,-4.2736,-4.3514,-4.4099,-4.4285,-4.4285,-4.4285,-4.4285,-4.4285,-4.4285,-4.4285,-4.4285,-4.4285,-4.4285,-4.4285,-4.4285,-4.4285,-4.4285,-4.4285,-4.4285,-4.4285,-4.4285,-4.4285,-4.4285,-4.4285,-4.4285,-4.4285,-4.4285,-4.3615,-4.3615,-4.3615,-4.3615,-4.3615,-4.3615,-4.3615,-4.3615,-4.3615,-4.3615,-4.3615,-4.3615,-4.3615,-4.3615,-4.3615,-4.3615,-4.3615,-4.3615,-4.3615,-4.3615,-4.3615,-4.3615,-4.3615,-4.3615,-4.3615,-4.3615,-4.3615,-4.3691,-4.405,-4.46,-4.5031,-4.5181,-4.5555,-4.5779,-4.5779,-4.5928,-4.6002,-4.6002,-4.6002,-4.6002,-4.6002,-4.6002,-4.6002,-4.598,-4.5806,-4.5718,-4.5675,-4.526,-4.4932,-4.4692,-4.4189,-4.3774,-4.3599,-4.3386,-4.3184,-4.3184,-4.3184,-4.3184,-4.3184,-4.3184,-4.3184,-4.3184,-4.3184,-4.3184,-4.3184,-4.3184,-4.2988,-4.25,-4.1305,-4.0758,-4.1212,-4.0024,-3.9584,-4.0473,-4.032,-4.0146,-4.0236,-4.0344,-4.0344,-4.0344,-4.0344,-4.0344,-4.0474,-4.1035,-4.1591,-4.2061,-4.2886,-4.324,-4.3514,-4.3974,-4.4223,-4.4285,-4.4285,-4.4285,-4.4285,-4.4285,-4.4285,-4.4285,-4.4285,-4.4285,-4.4285,-4.4285,-4.4285,-4.4285,-4.4285,-4.4285,-4.4285,-4.4285,-4.4285,-4.4285,-4.4285,-4.4285,-4.4285,-4.4285,-4.4285,-4.3615,-4.3615,-4.3615,-4.3615,-4.3615,-4.3615,-4.3615,-4.3615,-4.3615,-4.3615,-4.3615,-4.3615,-4.3615,-4.3615,-4.3615,-4.3615,-4.3615,-4.3615,-4.3615,-4.3615,-4.3615,-4.3615,-4.3615,-4.3615,-4.3615,-4.3615,-4.3767,-4.4071,-4.4504,-4.5106,-4.548,-4.5555,-4.5853,-4.6002,-4.6002,-4.6002,-4.6002,-4.6002,-4.6002,-4.6002,-4.6002,-4.6002,-4.6002,-4.6002,-4.6002,-4.6002,-4.598,-4.5675,-4.5434,-4.5303,-4.4626,-4.4195,-4.3862,-4.3534,-4.3316,-4.3184,-4.3184,-4.3184,-4.3184,-4.3184,-4.3184,-4.3184,-4.3184,-4.3184,-4.3184,-4.3184,-4.3184,-4.3119,-4.2118,-4.1662,-4.1689,-4.1194,-4.0933,-4.1195,-4.1197,-4.1,-4.0563,-4.0476,-4.0432,-4.0301,-4.0344,-4.0344,-4.0409,-4.1035,-4.1719,-4.2189,-4.2886,-4.3576,-4.3764,-4.385,-4.4037,-4.4285,-4.4285,-4.4285,-4.4285,-4.4285,-4.4285,-4.4285,-4.4285,-4.4285,-4.4285,-4.4285,-4.4285,-4.4285,-4.4285,-4.4285,-4.4285,-4.4285,-4.4285,-4.4285,-4.4285,-4.4285,-4.4285,-4.4285,-4.4285,-4.3615,-4.3615,-4.3615,-4.3615,-4.3615,-4.3615,-4.3615,-4.3615,-4.3615,-4.3615,-4.3615,-4.3615,-4.3615,-4.3615,-4.3615,-4.3615,-4.3615,-4.3615,-4.3615,-4.3615,-4.3615,-4.3615,-4.3615,-4.3615,-4.3615,-4.3615,-4.3995,-4.4504,-4.5256,-4.5405,-4.563,-4.5928,-4.6002,-4.6002,-4.6002,-4.6002,-4.6002,-4.6002,-4.6002,-4.6002,-4.6002,-4.6002,-4.6002,-4.6002,-4.6002,-4.6002,-4.6002,-4.598,-4.5762,-4.5347,-4.5238,-4.4823,-4.4014,-4.384,-4.3621,-4.325,-4.3184,-4.3184,-4.3184,-4.3184,-4.3184,-4.3184,-4.3184,-4.3184,-4.3184,-4.3184,-4.3184,-4.3184,-4.3049,-4.2809,-4.2417,-4.2261,-4.1975,-4.1675,-4.1655,-4.1437,-4.1022,-4.0935,-4.0738,-4.0432,-4.0301,-4.0344,-4.0344,-4.0344,-4.0669,-4.0928,-4.1251,-4.1934,-4.2633,-4.3051,-4.3639,-4.4161,-4.4285,-4.4285,-4.4285,-4.4285,-4.4285,-4.4285,-4.4285,-4.4285,-4.4285,-4.4285,-4.4285,-4.4285,-4.4285,-4.4285,-4.4285,-4.4285,-4.4285,-4.4285,-4.4285,-4.4285,-4.4285,-4.4285,-4.4285,-4.3615,-4.3615,-4.3615,-4.3615,-4.3615,-4.3615,-4.3615,-4.3615,-4.3615,-4.3615,-4.3615,-4.3615,-4.3615,-4.3615,-4.3615,-4.3615,-4.3615,-4.3615,-4.3615,-4.3615,-4.3615,-4.3615,-4.3615,-4.3615,-4.3615,-4.3691,-4.405,-4.4579,-4.533,-4.563,-4.5853,-4.5928,-4.6002,-4.6002,-4.6002,-4.6002,-4.6002,-4.6002,-4.6002,-4.6002,-4.6002,-4.6002,-4.6002,-4.6002,-4.6002,-4.6002,-4.6002,-4.6002,-4.5915,-4.5762,-4.5478,-4.5172,-4.4779,-4.4189,-4.3736,-4.325,-4.3184,-4.3184,-4.3184,-4.3184,-4.3184,-4.3184,-4.3184,-4.3184,-4.3184,-4.3184,-4.3184,-4.3184,-4.3184,-4.3053,-4.2988,-4.29,-4.2704,-4.2267,-4.2136,-4.1961,-4.1524,-4.1197,-4.0935,-4.0738,-4.0498,-4.0474,-4.08,-4.0928,-4.11,-4.155,-4.2125,-4.257,-4.2949,-4.3514,-4.395,-4.4223,-4.4285,-4.4285,-4.4285,-4.4285,-4.4285,-4.4285,-4.4285,-4.4285,-4.4285,-4.4285,-4.4285,-4.4285,-4.4285,-4.4285,-4.4285,-4.4285,-4.4285,-4.4285,-4.4285,-4.4285,-4.4285,-4.4285,-4.4285,-4.3615,-4.3615,-4.3615,-4.3615,-4.3615,-4.3615,-4.3615,-4.3615,-4.3615,-4.3615,-4.3615,-4.3615,-4.3615,-4.3615,-4.3615,-4.3615,-4.3615,-4.3615,-4.3615,-4.3615,-4.3615,-4.3615,-4.3615,-4.3615,-4.3691,-4.3898,-4.4352,-4.4955,-4.5555,-4.5853,-4.6002,-4.6002,-4.6002,-4.6002,-4.6002,-4.6002,-4.6002,-4.6002,-4.6002,-4.6002,-4.6002,-4.6002,-4.6002,-4.6002,-4.6002,-4.6002,-4.6002,-4.6002,-4.6002,-4.5959,-4.5696,-4.5478,-4.526,-4.4386,-4.3801,-4.3447,-4.325,-4.3184,-4.3184,-4.3184,-4.3184,-4.3184,-4.3184,-4.3184,-4.3184,-4.3184,-4.3184,-4.3184,-4.3184,-4.3184,-4.3184,-4.3163,-4.3032,-4.2726,-4.266,-4.2464,-4.1983,-4.1655,-4.1437,-4.1219,-4.0978,-4.1045,-4.1307,-4.1261,-4.1497,-4.2161,-4.2494,-4.2759,-4.3263,-4.3639,-4.4099,-4.4285,-4.4285,-4.4285,-4.4285,-4.4285,-4.4285,-4.4285,-4.4285,-4.4285,-4.4285,-4.4285,-4.4285,-4.4285,-4.4285,-4.4285,-4.4285,-4.4285,-4.4285,-4.4285,-4.4285,-4.4285,-4.4285,-4.4285,-4.4285,-4.3615,-4.3615,-4.3615,-4.3615,-4.3615,-4.3615,-4.3615,-4.3615,-4.3615,-4.3615,-4.3615,-4.3615,-4.3615,-4.3615,-4.3615,-4.3615,-4.3615,-4.3615,-4.3615,-4.3615,-4.3615,-4.3615,-4.3691,-4.3691,-4.3919,-4.4277,-4.5031,-4.5555,-4.5928,-4.6002,-4.6002,-4.6002,-4.6002,-4.6002,-4.6002,-4.6002,-4.6002,-4.6002,-4.6002,-4.6002,-4.6002,-4.6002,-4.6002,-4.6002,-4.6002,-4.6002,-4.6002,-4.6002,-4.6002,-4.6002,-4.598,-4.5762,-4.526,-4.443,-4.3862,-4.3845,-4.3495,-4.3206,-4.3184,-4.3184,-4.3184,-4.3184,-4.3184,-4.3184,-4.3184,-4.3184,-4.3184,-4.3184,-4.3184,-4.3184,-4.3184,-4.3184,-4.3163,-4.3163,-4.3097,-4.2879,-4.2551,-4.2398,-4.2201,-4.1743,-4.1546,-4.1655,-4.1568,-4.1396,-4.1463,-4.19,-4.2043,-4.2308,-4.3278,-4.3632,-4.3749,-4.4099,-4.4285,-4.4285,-4.4285,-4.4285,-4.4285,-4.4285,-4.4285,-4.4285,-4.4285,-4.4285,-4.4285,-4.4285,-4.4285,-4.4285,-4.4285,-4.4285,-4.4285,-4.4285,-4.4285,-4.4285,-4.4285,-4.4285,-4.4285,-4.3615,-4.3615,-4.3615,-4.3615,-4.3615,-4.3615,-4.3615,-4.3615,-4.3615,-4.3615,-4.3615,-4.3615,-4.3615,-4.3615,-4.3615,-4.3615,-4.3615,-4.3615,-4.3615,-4.3615,-4.3615,-4.3746,-4.3974,-4.405,-4.4374,-4.4955,-4.5256,-4.563,-4.5928,-4.6002,-4.6002,-4.6002,-4.6002,-4.6002,-4.6002,-4.6002,-4.6002,-4.6002,-4.6002,-4.6002,-4.6002,-4.6002,-4.6002,-4.6002,-4.6002,-4.6002,-4.6002,-4.6002,-4.6002,-4.6002,-4.6002,-4.5784,-4.5303,-4.4713,-4.4211,-4.3933,-4.3425,-4.3184,-4.3184,-4.3184,-4.3184,-4.3184,-4.3184,-4.3184,-4.3184,-4.3184,-4.3184,-4.3184,-4.3184,-4.3184,-4.3184,-4.3184,-4.3184,-4.3184,-4.3184,-4.3119,-4.29,-4.2638,-4.2201,-4.1786,-4.1677,-4.1677,-4.1677,-4.1503,-4.1749,-4.2415,-4.2675,-4.3211,-4.3682,-4.4183,-4.4308,-4.4405,-4.4357,-4.4309,-4.4285,-4.4285,-4.4285,-4.4285,-4.4285,-4.4285,-4.4285,-4.4285,-4.4285,-4.4285,-4.4285,-4.4285,-4.4285,-4.4285,-4.4285,-4.4285,-4.4285,-4.4285,-4.4285,-4.4285,-4.4285,-4.3615,-4.3615,-4.3615,-4.3615,-4.3615,-4.3615,-4.3615,-4.3615,-4.3615,-4.3615,-4.3615,-4.3615,-4.3615,-4.3615,-4.3615,-4.3691,-4.3843,-4.3843,-4.3919,-4.3974,-4.3843,-4.4071,-4.4428,-4.4579,-4.488,-4.533,-4.5555,-4.5779,-4.6002,-4.6002,-4.6002,-4.6002,-4.6002,-4.6002,-4.6002,-4.6002,-4.6002,-4.6002,-4.6002,-4.6002,-4.6002,-4.6002,-4.6002,-4.6002,-4.6002,-4.6002,-4.6002,-4.6002,-4.6002,-4.6002,-4.6002,-4.5849,-4.5565,-4.4954,-4.4451,-4.4102,-4.3556,-4.3184,-4.3184,-4.3184,-4.3184,-4.3184,-4.3184,-4.3184,-4.3184,-4.3184,-4.3184,-4.3184,-4.3184,-4.3184,-4.3184,-4.3184,-4.3184,-4.3184,-4.3184,-4.3184,-4.3119,-4.29,-4.2638,-4.2354,-4.2289,-4.2245,-4.2223,-4.2027,-4.2254,-4.2906,-4.3195,-4.3762,-4.4132,-4.4704,-4.4674,-4.464,-4.4669,-4.4549,-4.4333,-4.4285,-4.4285,-4.4285,-4.4285,-4.4285,-4.4285,-4.4285,-4.4285,-4.4285,-4.4285,-4.4285,-4.4285,-4.4285,-4.4285,-4.4285,-4.4285,-4.4285,-4.4285,-4.4285,-4.4285,-4.3615,-4.3615,-4.3615,-4.3615,-4.3615,-4.3615,-4.3615,-4.3615,-4.3615,-4.3615,-4.3615,-4.3615,-4.3615,-4.3615,-4.3691,-4.3843,-4.4146,-4.4222,-4.4428,-4.4579,-4.4504,-4.4504,-4.4805,-4.5181,-4.5405,-4.5555,-4.5779,-4.5928,-4.6002,-4.6002,-4.6002,-4.6002,-4.6002,-4.6002,-4.6002,-4.6002,-4.6002,-4.6002,-4.6002,-4.6002,-4.6002,-4.6002,-4.6002,-4.6002,-4.6002,-4.6002,-4.6002,-4.6002,-4.6002,-4.6002,-4.6002,-4.598,-4.5828,-4.5107,-4.4582,-4.4473,-4.3687,-4.3272,-4.3184,-4.3184,-4.3184,-4.3184,-4.3184,-4.3184,-4.3184,-4.3184,-4.3184,-4.3184,-4.3184,-4.3184,-4.3184,-4.3184,-4.3184,-4.3184,-4.3184,-4.3184,-4.3184,-4.3141,-4.3053,-4.3075,-4.3163,-4.3141,-4.301,-4.2682,-4.2872,-4.3217,-4.322,-4.3686,-4.436,-4.4789,-4.49,-4.492,-4.4936,-4.4885,-4.4693,-4.4573,-4.4549,-4.4285,-4.4285,-4.4285,-4.4285,-4.4285,-4.4285,-4.4285,-4.4285,-4.4285,-4.4285,-4.4285,-4.4285,-4.4285,-4.4285,-4.4285,-4.4285,-4.4285,-4.4285,-4.3615,-4.3615,-4.3615,-4.3615,-4.3615,-4.3615,-4.3615,-4.3615,-4.3615,-4.3615,-4.3615,-4.3615,-4.3615,-4.3615,-4.3898,-4.4125,-4.4277,-4.4504,-4.488,-4.5181,-4.5181,-4.5106,-4.533,-4.563,-4.5853,-4.5853,-4.5928,-4.6002,-4.6002,-4.6002,-4.6002,-4.6002,-4.6002,-4.6002,-4.6002,-4.6002,-4.6002,-4.6002,-4.6002,-4.6002,-4.6002,-4.6002,-4.6002,-4.6002,-4.6002,-4.6002,-4.6002,-4.6002,-4.6002,-4.6002,-4.6002,-4.6002,-4.5915,-4.5129,-4.4582,-4.4451,-4.3731,-4.3184,-4.3184,-4.3184,-4.3184,-4.3184,-4.3184,-4.3184,-4.3184,-4.3184,-4.3184,-4.3184,-4.3184,-4.3184,-4.3184,-4.3184,-4.3184,-4.3184,-4.3184,-4.3184,-4.3184,-4.3184,-4.3184,-4.3184,-4.3184,-4.3184,-4.3141,-4.3145,-4.32,-4.3707,-4.3779,-4.3917,-4.4541,-4.5023,-4.5254,-4.5161,-4.5134,-4.5191,-4.5101,-4.4957,-4.4741,-4.4381,-4.4285,-4.4285,-4.4285,-4.4285,-4.4285,-4.4285,-4.4285,-4.4285,-4.4285,-4.4285,-4.4285,-4.4285,-4.4285,-4.4285,-4.4285,-4.4285,-4.4285,-4.3615,-4.3615,-4.3615,-4.3615,-4.3615,-4.3615,-4.3615,-4.3615,-4.3615,-4.3691,-4.3843,-4.3843,-4.3919,-4.4146,-4.4352,-4.4579,-4.473,-4.4955,-4.5256,-4.563,-4.563,-4.563,-4.5704,-4.5928,-4.6002,-4.6002,-4.6002,-4.6002,-4.6002,-4.6002,-4.6002,-4.6002,-4.6002,-4.6002,-4.6002,-4.6002,-4.6002,-4.6002,-4.6002,-4.6002,-4.6002,-4.6002,-4.6002,-4.6002,-4.6002,-4.6002,-4.6002,-4.6002,-4.6002,-4.6002,-4.6002,-4.6002,-4.5915,-4.5107,-4.4604,-4.4561,-4.3709,-4.3184,-4.3184,-4.3184,-4.3184,-4.3184,-4.3184,-4.3184,-4.3184,-4.3184,-4.3184,-4.3184,-4.3184,-4.3184,-4.3184,-4.3184,-4.3184,-4.3184,-4.3184,-4.3184,-4.3184,-4.3184,-4.3184,-4.3184,-4.3184,-4.3184,-4.3184,-4.3254,-4.3372,-4.3628,-4.3653,-4.4095,-4.4754,-4.5224,-4.5595,-4.5615,-4.5657,-4.5765,-4.5549,-4.5333,-4.4957,-4.4597,-4.4285,-4.4285,-4.4285,-4.4285,-4.4285,-4.4285,-4.4285,-4.4285,-4.4285,-4.4285,-4.4285,-4.4285,-4.4285,-4.4285,-4.4285,-4.4285,-4.4285,-4.3615,-4.3615,-4.3615,-4.3615,-4.3615,-4.3615,-4.3615,-4.3615,-4.3691,-4.3898,-4.4125,-4.4201,-4.4428,-4.4805,-4.4805,-4.5031,-4.533,-4.5405,-4.563,-4.5853,-4.5928,-4.5928,-4.5928,-4.5928,-4.6002,-4.6002,-4.6002,-4.6002,-4.6002,-4.6002,-4.6002,-4.6002,-4.6002,-4.6002,-4.6002,-4.6002,-4.6002,-4.6002,-4.6002,-4.6002,-4.6002,-4.6002,-4.6002,-4.6002,-4.6002,-4.6002,-4.6002,-4.6002,-4.6002,-4.6002,-4.6002,-4.6002,-4.5871,-4.5107,-4.4648,-4.4408,-4.3752,-4.3184,-4.3184,-4.3184,-4.3184,-4.3184,-4.3184,-4.3184,-4.3184,-4.3184,-4.3184,-4.3184,-4.3184,-4.3184,-4.3184,-4.3184,-4.3184,-4.3184,-4.3184,-4.3184,-4.3184,-4.3184,-4.3184,-4.3184,-4.3184,-4.3184,-4.3254,-4.3254,-4.3394,-4.3836,-4.3905,-4.4458,-4.505,-4.5478,-4.5919,-4.6304,-4.6377,-4.6494,-4.6078,-4.5597,-4.5173,-4.4789,-4.4429,-4.4285,-4.4285,-4.4285,-4.4285,-4.4285,-4.4285,-4.4285,-4.4285,-4.4285,-4.4285,-4.4285,-4.4285,-4.4285,-4.4285,-4.4285,-4.4285,-4.3615,-4.3615,-4.3615,-4.3615,-4.3615,-4.3615,-4.3615,-4.3615,-4.3919,-4.4125,-4.4298,-4.4504,-4.473,-4.4902,-4.5181,-4.533,-4.548,-4.5704,-4.5928,-4.5928,-4.6002,-4.6002,-4.6002,-4.6002,-4.6002,-4.6002,-4.6002,-4.6002,-4.6002,-4.6002,-4.6002,-4.6002,-4.6002,-4.6002,-4.6002,-4.6002,-4.6002,-4.6002,-4.6002,-4.6002,-4.6002,-4.6002,-4.6002,-4.6002,-4.6002,-4.6002,-4.6002,-4.6002,-4.6002,-4.6002,-4.6002,-4.6002,-4.5784,-4.5085,-4.4604,-4.4342,-4.3709,-4.3184,-4.3184,-4.3184,-4.3184,-4.3184,-4.3184,-4.3184,-4.3184,-4.3184,-4.3184,-4.3184,-4.3184,-4.3184,-4.3184,-4.3184,-4.3184,-4.3184,-4.3184,-4.3184,-4.3184,-4.3184,-4.3184,-4.3184,-4.3184,-4.3184,-4.3254,-4.3697,-4.3836,-4.4043,-4.4388,-4.4914,-4.5324,-4.5799,-4.6197,-4.6674,-4.6915,-4.6968,-4.6583,-4.5982,-4.5405,-4.4933,-4.4525,-4.4285,-4.4285,-4.4285,-4.4285,-4.4285,-4.4285,-4.4285,-4.4285,-4.4285,-4.4285,-4.4285,-4.4285,-4.4285,-4.4285,-4.4285,-4.4285,-4.3615,-4.3615,-4.3615,-4.3615,-4.3615,-4.3615,-4.3691,-4.3919,-4.4071,-4.4428,-4.473,-4.5031,-4.5181,-4.533,-4.5555,-4.5704,-4.5704,-4.5853,-4.6002,-4.6002,-4.6002,-4.6002,-4.6002,-4.6002,-4.6002,-4.6002,-4.6002,-4.6002,-4.6002,-4.6002,-4.6002,-4.6002,-4.6002,-4.6002,-4.6002,-4.6002,-4.6002,-4.6002,-4.6002,-4.6002,-4.6002,-4.6002,-4.6002,-4.6002,-4.6002,-4.6002,-4.6002,-4.6002,-4.6002,-4.6002,-4.6002,-4.5893,-4.5631,-4.4997,-4.4539,-4.4146,-4.3621,-4.3206,-4.3184,-4.3184,-4.3184,-4.3184,-4.3184,-4.3184,-4.3184,-4.3184,-4.3184,-4.3184,-4.3184,-4.3184,-4.3184,-4.3184,-4.3184,-4.3184,-4.3184,-4.3184,-4.3184,-4.3184,-4.3184,-4.3184,-4.3184,-4.3184,-4.3441,-4.3905,-4.4181,-4.4181,-4.4778,-4.5324,-4.5799,-4.6204,-4.654,-4.6936,-4.725,-4.7305,-4.6992,-4.6415,-4.5597,-4.5029,-4.4573,-4.4381,-4.4285,-4.4285,-4.4285,-4.4285,-4.4285,-4.4285,-4.4285,-4.4285,-4.4285,-4.4285,-4.4285,-4.4285,-4.4285,-4.4285,-4.4285,-4.3615,-4.3615,-4.3615,-4.3615,-4.3615,-4.3615,-4.3822,-4.4146,-4.4277,-4.473,-4.533,-4.548,-4.563,-4.5928,-4.5928,-4.6002,-4.6002,-4.6002,-4.6002,-4.6002,-4.6002,-4.6002,-4.6002,-4.6002,-4.6002,-4.6002,-4.6002,-4.6002,-4.6002,-4.6002,-4.6002,-4.6002,-4.6002,-4.6002,-4.6002,-4.6002,-4.6002,-4.6002,-4.6002,-4.6002,-4.6002,-4.6002,-4.6002,-4.6002,-4.6002,-4.6002,-4.6002,-4.6002,-4.6002,-4.6002,-4.6002,-4.5762,-4.5325,-4.4866,-4.443,-4.3993,-4.3512,-4.3228,-4.3184,-4.3184,-4.3184,-4.3184,-4.3184,-4.3184,-4.3184,-4.3184,-4.3184,-4.3184,-4.3184,-4.3184,-4.3184,-4.3184,-4.3184,-4.3184,-4.3184,-4.3184,-4.3184,-4.3184,-4.3184,-4.3184,-4.3184,-4.3184,-4.3511,-4.3905,-4.4181,-4.4503,-4.5119,-4.5731,-4.6271,-4.6607,-4.6941,-4.7074,-4.7364,-4.7281,-4.6968,-4.6487,-4.5718,-4.5149,-4.4645,-4.4405,-4.4285,-4.4285,-4.4285,-4.4285,-4.4285,-4.4285,-4.4285,-4.4285,-4.4285,-4.4285,-4.4285,-4.4285,-4.4285,-4.4285,-4.4285,-4.3615,-4.3615,-4.3615,-4.3615,-4.3615,-4.3615,-4.3822,-4.4201,-4.4579,-4.4955,-4.5405,-4.5704,-4.5928,-4.6002,-4.6002,-4.6002,-4.6002,-4.6002,-4.6002,-4.6002,-4.6002,-4.6002,-4.6002,-4.6002,-4.6002,-4.6002,-4.6002,-4.6002,-4.6002,-4.6002,-4.6002,-4.6002,-4.6002,-4.6002,-4.6002,-4.6002,-4.6002,-4.6002,-4.6002,-4.6002,-4.6002,-4.6002,-4.6002,-4.6002,-4.6002,-4.6002,-4.6002,-4.6002,-4.6002,-4.6002,-4.6002,-4.5762,-4.5391,-4.491,-4.4582,-4.4233,-4.3643,-4.325,-4.3184,-4.3184,-4.3184,-4.3184,-4.3184,-4.3184,-4.3184,-4.3184,-4.3184,-4.3184,-4.3184,-4.3184,-4.3184,-4.3184,-4.3184,-4.3184,-4.3184,-4.3184,-4.3184,-4.3184,-4.3184,-4.3184,-4.3184,-4.3254,-4.3511,-4.3974,-4.4503,-4.5051,-4.5799,-4.6338,-4.6874,-4.7165,-4.7298,-4.7364,-4.7431,-4.7185,-4.6848,-4.6343,-4.5742,-4.5221,-4.4765,-4.4381,-4.4285,-4.4285,-4.4285,-4.4285,-4.4285,-4.4285,-4.4285,-4.4285,-4.4285,-4.4285,-4.4285,-4.4285,-4.4285,-4.4285,-4.4285,-4.3615,-4.3615,-4.3615,-4.3691,-4.3898,-4.3919,-4.4277,-4.4805,-4.5031,-4.533,-4.5704,-4.5928,-4.6002,-4.6002,-4.6002,-4.6002,-4.6002,-4.6002,-4.6002,-4.6002,-4.6002,-4.6002,-4.6002,-4.6002,-4.6002,-4.6002,-4.6002,-4.6002,-4.6002,-4.6002,-4.6002,-4.6002,-4.6002,-4.6002,-4.6002,-4.6002,-4.6002,-4.6002,-4.6002,-4.6002,-4.6002,-4.6002,-4.6002,-4.6002,-4.6002,-4.6002,-4.6002,-4.6002,-4.6002,-4.6002,-4.6002,-4.5871,-4.5609,-4.5216,-4.4735,-4.4277,-4.3796,-4.3403,-4.3228,-4.3184,-4.3184,-4.3184,-4.3184,-4.3184,-4.3184,-4.3184,-4.3184,-4.3184,-4.3184,-4.3184,-4.3184,-4.3184,-4.3184,-4.3184,-4.3184,-4.3184,-4.3184,-4.3184,-4.3184,-4.3184,-4.3184,-4.3254,-4.3372,-4.3905,-4.4709,-4.5528,-4.6338,-4.6898,-4.7431,-4.7497,-4.7497,-4.7497,-4.7497,-4.7353,-4.692,-4.6343,-4.591,-4.539,-4.4813,-4.4429,-4.4285,-4.4285,-4.4285,-4.4285,-4.4285,-4.4285,-4.4285,-4.4285,-4.4285,-4.4285,-4.4285,-4.4285,-4.4285,-4.4285,-4.4285,-4.3691,-4.3615,-4.3691,-4.3919,-4.4201,-4.4277,-4.473,-4.533,-4.5405,-4.563,-4.5928,-4.6002,-4.6002,-4.6002,-4.6002,-4.6002,-4.6002,-4.6002,-4.6002,-4.6002,-4.6002,-4.6002,-4.6002,-4.6002,-4.6002,-4.6002,-4.6002,-4.6002,-4.6002,-4.6002,-4.6002,-4.6002,-4.6002,-4.6002,-4.6002,-4.6002,-4.6002,-4.6002,-4.6002,-4.6002,-4.6002,-4.6002,-4.6002,-4.6002,-4.6002,-4.6002,-4.6002,-4.6002,-4.6002,-4.6002,-4.6002,-4.6002,-4.5937,-4.5653,-4.5041,-4.432,-4.4064,-4.3665,-4.3447,-4.3184,-4.3184,-4.3184,-4.3184,-4.3184,-4.3184,-4.3184,-4.3184,-4.3184,-4.3184,-4.3184,-4.3184,-4.3184,-4.3184,-4.3184,-4.3184,-4.3184,-4.3184,-4.3184,-4.3184,-4.3184,-4.3184,-4.3254,-4.3324,-4.3836,-4.4572,-4.5324,-4.6136,-4.6831,-4.7298,-4.7497,-4.7497,-4.7497,-4.7497,-4.7497,-4.7088,-4.6415,-4.6054,-4.5766,-4.4957,-4.4333,-4.4285,-4.4285,-4.4285,-4.4285,-4.4285,-4.4285,-4.4285,-4.4285,-4.4285,-4.4285,-4.4285,-4.4285,-4.4285,-4.4285,-4.4285,-4.3919,-4.3615,-4.3974,-4.4125,-4.4277,-4.46,-4.4955,-4.5405,-4.5405,-4.563,-4.6002,-4.6002,-4.6002,-4.5959,-4.5959,-4.598,-4.5937,-4.5871,-4.5828,-4.5806,-4.5849,-4.5871,-4.598,-4.6002,-4.598,-4.598,-4.6002,-4.6002,-4.6002,-4.6002,-4.6002,-4.6002,-4.6002,-4.6002,-4.6002,-4.6002,-4.6002,-4.6002,-4.6002,-4.6002,-4.6002,-4.6002,-4.6002,-4.6002,-4.6002,-4.6002,-4.6002,-4.6002,-4.6002,-4.6002,-4.6002,-4.6002,-4.598,-4.598,-4.5653,-4.5063,-4.443,-4.3911,-4.3779,-4.3447,-4.3206,-4.3206,-4.3184,-4.3184,-4.3184,-4.3184,-4.3184,-4.3184,-4.3184,-4.3184,-4.3184,-4.3184,-4.3184,-4.3184,-4.3184,-4.3184,-4.3184,-4.3184,-4.3184,-4.3184,-4.3184,-4.3184,-4.3254,-4.3836,-4.4434,-4.5187,-4.5934,-4.663,-4.7232,-4.7364,-4.7497,-4.7497,-4.7497,-4.7497,-4.7209,-4.6535,-4.6126,-4.5934,-4.5077,-4.4309,-4.4285,-4.4285,-4.4285,-4.4285,-4.4285,-4.4285,-4.4285,-4.4285,-4.4285,-4.4285,-4.4285,-4.4285,-4.4285,-4.4285,-4.4285,-4.4654,-4.4277,-4.4428,-4.4654,-4.488,-4.5031,-4.5405,-4.5704,-4.5704,-4.5853,-4.6002,-4.6002,-4.5871,-4.5653,-4.5609,-4.5456,-4.526,-4.5238,-4.5216,-4.5238,-4.526,-4.5369,-4.5544,-4.5631,-4.5696,-4.598,-4.6002,-4.6002,-4.6002,-4.6002,-4.6002,-4.6002,-4.6002,-4.6002,-4.6002,-4.6002,-4.6002,-4.6002,-4.6002,-4.6002,-4.6002,-4.6002,-4.6002,-4.6002,-4.6002,-4.6002,-4.6002,-4.6002,-4.6002,-4.6002,-4.6002,-4.6002,-4.6002,-4.598,-4.5871,-4.5696,-4.5085,-4.4473,-4.3949,-4.3687,-4.3447,-4.3228,-4.3184,-4.3184,-4.3184,-4.3184,-4.3184,-4.3184,-4.3184,-4.3184,-4.3184,-4.3184,-4.3184,-4.3184,-4.3184,-4.3254,-4.3254,-4.3254,-4.3184,-4.3184,-4.3254,-4.3441,-4.3511,-4.3789,-4.4388,-4.5187,-4.5799,-4.6338,-4.7032,-4.7431,-4.7497,-4.7497,-4.7497,-4.7497,-4.7136,-4.6631,-4.6102,-4.5702,-4.4957,-4.4381,-4.4309,-4.4285,-4.4285,-4.4285,-4.4285,-4.4285,-4.4285,-4.4285,-4.4285,-4.4285,-4.4285,-4.4285,-4.4285,-4.4285,-4.4285,-4.4986,-4.4784,-4.4945,-4.5041,-4.5233,-4.5307,-4.5444,-4.5631,-4.5609,-4.5631,-4.5653,-4.5609,-4.5412,-4.5194,-4.5107,-4.4976,-4.4648,-4.4582,-4.4582,-4.4582,-4.4648,-4.4932,-4.5238,-4.5369,-4.5587,-4.6002,-4.6002,-4.6002,-4.6002,-4.6002,-4.6002,-4.6002,-4.6002,-4.6002,-4.6002,-4.6002,-4.6002,-4.6002,-4.6002,-4.6002,-4.6002,-4.6002,-4.6002,-4.6002,-4.6002,-4.6002,-4.6002,-4.6002,-4.6002,-4.6002,-4.6002,-4.6002,-4.6002,-4.6002,-4.598,-4.5871,-4.5544,-4.5107,-4.4473,-4.4036,-4.3643,-4.3337,-4.3184,-4.3184,-4.3184,-4.3184,-4.3184,-4.3184,-4.3184,-4.3184,-4.3184,-4.3184,-4.3184,-4.3184,-4.3184,-4.3324,-4.3441,-4.358,-4.3858,-4.4112,-4.4181,-4.3974,-4.4043,-4.3927,-4.4319,-4.5119,-4.5663,-4.6204,-4.6808,-4.7431,-4.7497,-4.7497,-4.7497,-4.7401,-4.6968,-4.6583,-4.6126,-4.5534,-4.4789,-4.4405,-4.4309,-4.4285,-4.4285,-4.4285,-4.4285,-4.4285,-4.4285,-4.4285,-4.4285,-4.4285,-4.4285,-4.4285,-4.4285,-4.4285,-4.4285,-4.4598,-4.4685,-4.5113,-4.5051,-4.478,-4.5148,-4.5034,-4.4823,-4.4757,-4.4779,-4.4823,-4.4735,-4.4779,-4.4648,-4.4626,-4.4582,-4.4539,-4.4582,-4.4473,-4.4473,-4.4604,-4.4735,-4.4997,-4.5216,-4.5478,-4.5893,-4.598,-4.6002,-4.6002,-4.6002,-4.6002,-4.6002,-4.6002,-4.6002,-4.6002,-4.6002,-4.6002,-4.6002,-4.6002,-4.6002,-4.6002,-4.6002,-4.6002,-4.6002,-4.6002,-4.6002,-4.6002,-4.6002,-4.6002,-4.6002,-4.6002,-4.6002,-4.6002,-4.6002,-4.6002,-4.5959,-4.5937,-4.5522,-4.5019,-4.432,-4.3687,-4.3359,-4.3184,-4.3184,-4.3184,-4.3184,-4.3184,-4.3184,-4.3184,-4.3184,-4.3184,-4.3184,-4.3254,-4.3372,-4.3511,-4.3789,-4.3974,-4.4181,-4.4434,-4.4983,-4.4983,-4.4709,-4.4778,-4.4732,-4.4869,-4.5595,-4.6204,-4.6674,-4.7008,-4.7497,-4.7497,-4.7497,-4.7497,-4.7281,-4.68,-4.6367,-4.5934,-4.5342,-4.4717,-4.4429,-4.4309,-4.4285,-4.4285,-4.4285,-4.4285,-4.4285,-4.4285,-4.4285,-4.4285,-4.4285,-4.4285,-4.4285,-4.4285,-4.4285,-4.4285,-4.4582,-4.4554,-4.4099,-4.4142,-4.4648,-4.4794,-4.4757,-4.4604,-4.4582,-4.4582,-4.4561,-4.4582,-4.443,-4.4211,-4.4124,-4.3971,-4.3752,-4.3731,-4.3752,-4.3731,-4.3774,-4.4014,-4.4342,-4.4823,-4.5107,-4.5565,-4.5828,-4.6002,-4.6002,-4.6002,-4.6002,-4.6002,-4.6002,-4.6002,-4.6002,-4.6002,-4.6002,-4.6002,-4.6002,-4.6002,-4.6002,-4.6002,-4.6002,-4.6002,-4.6002,-4.6002,-4.6002,-4.6002,-4.6002,-4.6002,-4.6002,-4.6002,-4.6002,-4.6002,-4.6002,-4.6002,-4.6002,-4.5784,-4.5347,-4.467,-4.4014,-4.3337,-4.3184,-4.3184,-4.3184,-4.3184,-4.3184,-4.3184,-4.3184,-4.3184,-4.3184,-4.3254,-4.3324,-4.365,-4.3974,-4.425,-4.4572,-4.4778,-4.5051,-4.5595,-4.546,-4.5119,-4.5392,-4.5663,-4.5799,-4.6069,-4.6674,-4.7165,-4.7364,-4.7497,-4.7497,-4.7425,-4.7401,-4.7136,-4.668,-4.6199,-4.5718,-4.5125,-4.4597,-4.4453,-4.4285,-4.4285,-4.4285,-4.4285,-4.4285,-4.4285,-4.4285,-4.4285,-4.4285,-4.4285,-4.4285,-4.4285,-4.4285,-4.4285,-4.4285,-4.4167,-4.4024,-4.2903,-4.2988,-4.3767,-4.3478,-4.3464,-4.3573,-4.317,-4.3429,-4.3645,-4.3931,-4.3993,-4.3801,-4.3643,-4.3534,-4.3316,-4.325,-4.3228,-4.325,-4.3316,-4.3468,-4.3883,-4.4386,-4.491,-4.5325,-4.574,-4.6002,-4.6002,-4.6002,-4.6002,-4.6002,-4.6002,-4.6002,-4.6002,-4.6002,-4.6002,-4.6002,-4.6002,-4.6002,-4.6002,-4.6002,-4.6002,-4.6002,-4.6002,-4.6002,-4.6002,-4.6002,-4.6002,-4.6002,-4.6002,-4.6002,-4.6002,-4.6002,-4.6002,-4.6002,-4.5959,-4.5828,-4.5456,-4.4735,-4.4058,-4.3316,-4.3184,-4.3184,-4.3184,-4.3184,-4.3184,-4.3184,-4.3184,-4.3184,-4.3254,-4.3372,-4.365,-4.3974,-4.4457,-4.4778,-4.5324,-4.5663,-4.5866,-4.6136,-4.6001,-4.6069,-4.6204,-4.654,-4.654,-4.6674,-4.6941,-4.7298,-4.7364,-4.7497,-4.7497,-4.7401,-4.7305,-4.6944,-4.6535,-4.5958,-4.5381,-4.4861,-4.4453,-4.4381,-4.4285,-4.4285,-4.4285,-4.4285,-4.4285,-4.4285,-4.4285,-4.4285,-4.4285,-4.4285,-4.4285,-4.4285,-4.4285,-4.4285,-4.4285,-4.318,-4.3066,-4.199,-4.1725,-4.203,-4.1015,-4.0935,-4.1477,-4.0648,-4.0863,-4.1883,-4.2753,-4.3245,-4.325,-4.3316,-4.325,-4.3276,-4.3184,-4.3184,-4.3184,-4.3184,-4.3539,-4.384,-4.4298,-4.4779,-4.5303,-4.574,-4.6002,-4.6002,-4.6002,-4.6002,-4.6002,-4.6002,-4.6002,-4.6002,-4.6002,-4.6002,-4.6002,-4.6002,-4.6002,-4.6002,-4.6002,-4.6002,-4.6002,-4.6002,-4.6002,-4.6002,-4.6002,-4.6002,-4.6002,-4.6002,-4.6002,-4.6002,-4.6002,-4.6002,-4.6002,-4.6002,-4.5959,-4.5849,-4.4626,-4.384,-4.3294,-4.3184,-4.3184,-4.3184,-4.3184,-4.3184,-4.3184,-4.3184,-4.3184,-4.3372,-4.365,-4.3905,-4.4319,-4.4709,-4.5324,-4.5799,-4.6405,-4.6607,-4.6674,-4.7098,-4.7364,-4.7364,-4.7364,-4.7364,-4.7364,-4.7431,-4.7497,-4.7497,-4.7497,-4.7497,-4.7353,-4.7209,-4.6728,-4.6271,-4.5621,-4.5005,-4.4549,-4.4309,-4.4309,-4.4285,-4.4285,-4.4285,-4.4285,-4.4285,-4.4285,-4.4285,-4.4285,-4.4285,-4.4285,-4.4285,-4.4285,-4.4285,-4.4285,-4.4285,-4.1997,-4.1997,-4.1551,-4.1067,-4.0494,-4.0153,-4.0052,-4.0146,-3.993,-4.0361,-4.1268,-4.1926,-4.2511,-4.2953,-4.3184,-4.3184,-4.3184,-4.3184,-4.3184,-4.3184,-4.3184,-4.325,-4.3621,-4.4211,-4.4692,-4.5019,-4.5522,-4.6002,-4.6002,-4.6002,-4.6002,-4.6002,-4.6002,-4.6002,-4.6002,-4.6002,-4.6002,-4.6002,-4.6002,-4.6002,-4.6002,-4.6002,-4.6002,-4.6002,-4.6002,-4.6002,-4.6002,-4.6002,-4.6002,-4.6002,-4.6002,-4.6002,-4.6002,-4.6002,-4.6002,-4.6002,-4.6002,-4.5849,-4.5522,-4.4713,-4.4014,-4.3512,-4.3184,-4.3184,-4.3184,-4.3184,-4.3184,-4.3184,-4.3184,-4.3184,-4.3324,-4.3372,-4.365,-4.4228,-4.4778,-4.5528,-4.6136,-4.6808,-4.7232,-4.7232,-4.7497,-4.7497,-4.7497,-4.7497,-4.7497,-4.7497,-4.7497,-4.7497,-4.7497,-4.7497,-4.7497,-4.7329,-4.7088,-4.6559,-4.6006,-4.5293,-4.4837,-4.4453,-4.4309,-4.4285,-4.4285,-4.4285,-4.4285,-4.4285,-4.4285,-4.4285,-4.4285,-4.4285,-4.4285,-4.4285,-4.4285,-4.4285,-4.4285,-4.4285,-4.4285,-4.0841,-4.077,-4.0412,-4.0054,-3.9642,-3.9281,-3.8918,-3.87,-3.9281,-3.993,-4.0269,-4.0983,-4.1764,-4.2511,-4.3023,-4.3184,-4.3184,-4.3184,-4.3184,-4.3184,-4.3184,-4.3316,-4.3665,-4.4167,-4.4692,-4.4997,-4.5522,-4.6002,-4.6002,-4.6002,-4.6002,-4.6002,-4.6002,-4.6002,-4.6002,-4.6002,-4.6002,-4.6002,-4.6002,-4.6002,-4.6002,-4.6002,-4.6002,-4.6002,-4.6002,-4.6002,-4.6002,-4.6002,-4.6002,-4.6002,-4.6002,-4.6002,-4.6002,-4.6002,-4.6002,-4.6002,-4.598,-4.5762,-4.5347,-4.4866,-4.4189,-4.3578,-4.3316,-4.3184,-4.3184,-4.3184,-4.3184,-4.3184,-4.3254,-4.3441,-4.3511,-4.3511,-4.4112,-4.4778,-4.546,-4.6204,-4.654,-4.7232,-4.7431,-4.7497,-4.7497,-4.7497,-4.7497,-4.7497,-4.7497,-4.7497,-4.7497,-4.7497,-4.7473,-4.7425,-4.7353,-4.7136,-4.68,-4.6199,-4.5645,-4.5053,-4.4621,-4.4333,-4.4285,-4.4285,-4.4285,-4.4285,-4.4285,-4.4285,-4.4285,-4.4285,-4.4285,-4.4285,-4.4285,-4.4285,-4.4285,-4.4285,-4.4285,-4.4285,-4.4285,-3.9642,-3.9498,-3.8482,-3.8773,-3.9353,-3.8409,-3.7383,-3.6571,-3.8627,-3.8899,-3.8263,-4.0341,-4.1197,-4.1643,-4.2581,-4.3115,-4.3184,-4.3184,-4.3184,-4.3184,-4.3184,-4.3425,-4.3818,-4.432,-4.4779,-4.5281,-4.574,-4.6002,-4.6002,-4.6002,-4.6002,-4.6002,-4.6002,-4.6002,-4.6002,-4.6002,-4.6002,-4.6002,-4.6002,-4.6002,-4.6002,-4.6002,-4.6002,-4.6002,-4.6002,-4.6002,-4.6002,-4.6002,-4.6002,-4.6002,-4.6002,-4.6002,-4.6002,-4.6002,-4.6002,-4.6002,-4.6002,-4.5762,-4.5434,-4.4976,-4.4473,-4.3905,-4.3425,-4.3272,-4.3184,-4.3254,-4.3324,-4.3372,-4.3441,-4.3836,-4.4112,-4.464,-4.5256,-4.5934,-4.654,-4.6965,-4.7165,-4.7364,-4.7431,-4.7497,-4.7497,-4.7497,-4.7497,-4.7497,-4.7497,-4.7497,-4.7497,-4.7497,-4.7449,-4.7281,-4.7136,-4.68,-4.6367,-4.5766,-4.5197,-4.4789,-4.4549,-4.4285,-4.4285,-4.4285,-4.4285,-4.4285,-4.4285,-4.4285,-4.4285,-4.4285,-4.4285,-4.4285,-4.4285,-4.4285,-4.4285,-4.4285,-4.4285,-4.4285,-4.4285,-3.8482,-3.8555,-3.8991,-3.8991,-3.8336,-3.7236,-3.6941,-3.7457,-3.7457,-3.7383,-3.8044,-3.8681,-3.991,-4.141,-4.1785,-4.2441,-4.2883,-4.3184,-4.3184,-4.3184,-4.3228,-4.349,-4.3905,-4.4408,-4.4866,-4.5325,-4.574,-4.6002,-4.6002,-4.6002,-4.6002,-4.6002,-4.6002,-4.6002,-4.6002,-4.6002,-4.6002,-4.6002,-4.6002,-4.6002,-4.6002,-4.6002,-4.6002,-4.6002,-4.6002,-4.6002,-4.6002,-4.6002,-4.6002,-4.6002,-4.6002,-4.6002,-4.6002,-4.6002,-4.6002,-4.6002,-4.6002,-4.5915,-4.5696,-4.5041,-4.4517,-4.4304,-4.3714,-4.3272,-4.3184,-4.3324,-4.3441,-4.3719,-4.3905,-4.4319,-4.4778,-4.5324,-4.5731,-4.6204,-4.6741,-4.7032,-4.7165,-4.7364,-4.7431,-4.7497,-4.7497,-4.7497,-4.7497,-4.7497,-4.7497,-4.7497,-4.7473,-4.7473,-4.7353,-4.7185,-4.6896,-4.6559,-4.6006,-4.5429,-4.5053,-4.4669,-4.4477,-4.4285,-4.4285,-4.4285,-4.4285,-4.4285,-4.4285,-4.4285,-4.4285,-4.4285,-4.4285,-4.4285,-4.4285,-4.4285,-4.4285,-4.4285,-4.4285,-4.4285,-4.4285,-3.731,-3.7383,-3.8044,-3.819,-3.7897,-3.7236,-3.7383,-3.7751,-3.6719,-3.6645,-3.731,-3.7824,-3.8773,-3.9982,-4.0983,-4.1855,-4.2441,-4.3023,-4.3184,-4.3206,-4.3359,-4.3774,-4.4167,-4.4626,-4.515,-4.5544,-4.5806,-4.6002,-4.6002,-4.6002,-4.6002,-4.6002,-4.6002,-4.6002,-4.6002,-4.6002,-4.6002,-4.6002,-4.6002,-4.6002,-4.6002,-4.6002,-4.6002,-4.6002,-4.6002,-4.6002,-4.6002,-4.6002,-4.6002,-4.6002,-4.6002,-4.6002,-4.6002,-4.6002,-4.6002,-4.6002,-4.6002,-4.6002,-4.5828,-4.5325,-4.4888,-4.4545,-4.4167,-4.3937,-4.3694,-4.3697,-4.4112,-4.4434,-4.464,-4.4914,-4.5324,-4.5799,-4.6001,-4.6204,-4.654,-4.6898,-4.7098,-4.7298,-4.7364,-4.7497,-4.7497,-4.7497,-4.7497,-4.7497,-4.7497,-4.7497,-4.7425,-4.7305,-4.7161,-4.6944,-4.6631,-4.6295,-4.563,-4.5053,-4.4789,-4.4573,-4.4405,-4.4285,-4.4285,-4.4285,-4.4285,-4.4285,-4.4285,-4.4285,-4.4285,-4.4285,-4.4285,-4.4285,-4.4285,-4.4285,-4.4285,-4.4285,-4.4285,-4.4285,-4.4285,-3.6201,-3.6275,-3.6201,-3.6941,-3.7751,-3.7677,-3.7751,-3.7751,-3.6645,-3.6201,-3.6497,-3.731,-3.7897,-3.8753,-3.991,-4.0983,-4.1714,-4.2441,-4.2953,-4.3228,-4.3578,-4.4014,-4.4495,-4.5063,-4.5412,-4.5806,-4.6002,-4.6002,-4.6002,-4.6002,-4.6002,-4.6002,-4.6002,-4.6002,-4.6002,-4.6002,-4.6002,-4.6002,-4.6002,-4.6002,-4.6002,-4.6002,-4.6002,-4.6002,-4.6002,-4.6002,-4.6002,-4.6002,-4.6002,-4.6002,-4.6002,-4.6002,-4.6002,-4.6002,-4.6002,-4.6002,-4.6002,-4.6002,-4.5893,-4.5478,-4.5187,-4.4964,-4.4835,-4.4721,-4.4615,-4.4319,-4.4709,-4.5187,-4.5392,-4.5799,-4.6204,-4.6473,-4.6607,-4.6808,-4.7032,-4.7232,-4.7298,-4.7431,-4.7431,-4.7497,-4.7497,-4.7497,-4.7497,-4.7497,-4.7497,-4.7497,-4.7305,-4.7136,-4.6872,-4.6631,-4.6271,-4.5846,-4.5269,-4.4741,-4.4573,-4.4381,-4.4357,-4.4285,-4.4285,-4.4285,-4.4285,-4.4285,-4.4285,-4.4285,-4.4285,-4.4285,-4.4285,-4.4285,-4.4285,-4.4285,-4.4285,-4.4285,-4.4285,-4.4285,-4.4285,-3.6201,-3.6201,-3.6201,-3.6423,-3.6645,-3.6645,-3.6645,-3.6645,-3.6349,-3.6201,-3.6275,-3.6571,-3.7162,-3.8044,-3.8753,-3.9838,-4.1268,-4.1997,-4.2441,-4.3149,-4.3709,-4.4233,-4.4648,-4.5172,-4.5587,-4.5871,-4.6002,-4.6002,-4.6002,-4.6002,-4.6002,-4.6002,-4.6002,-4.6002,-4.6002,-4.6002,-4.6002,-4.6002,-4.6002,-4.6002,-4.6002,-4.6002,-4.6002,-4.6002,-4.6002,-4.6002,-4.6002,-4.6002,-4.6002,-4.6002,-4.6002,-4.6002,-4.6002,-4.6002,-4.6002,-4.6002,-4.6002,-4.6002,-4.6041,-4.5756,-4.5559,-4.5461,-4.5374,-4.553,-4.5462,-4.5188,-4.5324,-4.5866,-4.6271,-4.6607,-4.6965,-4.7098,-4.7232,-4.7364,-4.7497,-4.7497,-4.7497,-4.7497,-4.7497,-4.7497,-4.7497,-4.7497,-4.7497,-4.7497,-4.7497,-4.7305,-4.7016,-4.6752,-4.6439,-4.615,-4.5694,-4.5309,-4.4813,-4.4405,-4.4309,-4.4285,-4.4285,-4.4285,-4.4285,-4.4285,-4.4285,-4.4285,-4.4285,-4.4285,-4.4285,-4.4285,-4.4285,-4.4285,-4.4285,-4.4285,-4.4285,-4.4285,-4.4285,-4.4285,-4.4285,-3.6201,-3.6201,-3.6201,-3.6201,-3.6201,-3.6201,-3.6201,-3.6201,-3.6201,-3.6201,-3.6201,-3.6275,-3.6571,-3.753,-3.819,-3.9044,-4.077,-4.1855,-4.2753,-4.3485,-4.3927,-4.4473,-4.4932,-4.5369,-4.5675,-4.598,-4.6002,-4.6002,-4.6002,-4.6002,-4.6002,-4.6002,-4.6002,-4.6002,-4.6002,-4.6002,-4.6002,-4.6002,-4.6002,-4.6002,-4.6002,-4.6002,-4.6002,-4.6002,-4.6002,-4.6002,-4.6002,-4.6002,-4.6002,-4.6002,-4.6002,-4.6002,-4.6002,-4.6002,-4.6002,-4.6002,-4.6002,-4.6151,-4.6285,-4.6308,-4.6245,-4.6258,-4.6491,-4.6796,-4.6536,-4.6304,-4.6429,-4.6874,-4.6898,-4.7232,-4.7232,-4.7364,-4.7364,-4.7431,-4.7497,-4.7497,-4.7497,-4.7497,-4.7497,-4.7497,-4.7497,-4.7497,-4.7497,-4.7497,-4.7473,-4.7401,-4.704,-4.6511,-4.6175,-4.5718,-4.5213,-4.4852,-4.4453,-4.4309,-4.4285,-4.4285,-4.4285,-4.4285,-4.4285,-4.4285,-4.4285,-4.4285,-4.4285,-4.4285,-4.4285,-4.4285,-4.4285,-4.4285,-4.4285,-4.4285,-4.4285,-4.4285,-4.4285,-4.4285,-4.4285,-3.6201,-3.6201,-3.6201,-3.6201,-3.6201,-3.6201,-3.6201,-3.6201,-3.6201,-3.6201,-3.6201,-3.6201,-3.6201,-3.6996,-3.8097,-3.9044,-4.0074,-4.1147,-4.2486,-4.3769,-4.4298,-4.4735,-4.5216,-4.5718,-4.5893,-4.598,-4.6002,-4.6002,-4.6002,-4.6002,-4.6002,-4.6002,-4.6002,-4.6002,-4.6002,-4.6002,-4.6002,-4.6002,-4.6002,-4.6002,-4.6002,-4.6002,-4.6002,-4.6002,-4.6002,-4.6002,-4.6002,-4.6002,-4.6002,-4.6002,-4.6002,-4.6002,-4.6151,-4.6151,-4.6299,-4.6299,-4.6596,-4.6891,-4.7186,-4.7287,-4.7459,-4.7597,-4.7913,-4.7745,-4.741,-4.7345,-4.7394,-4.7431,-4.7431,-4.7431,-4.7497,-4.7497,-4.7497,-4.7497,-4.7497,-4.7497,-4.7497,-4.7497,-4.7497,-4.7497,-4.7497,-4.7497,-4.7497,-4.7497,-4.7449,-4.7377,-4.6992,-4.6487,-4.5894,-4.5317,-4.4789,-4.4573,-4.4381,-4.4285,-4.4285,-4.4285,-4.4285,-4.4285,-4.4285,-4.4285,-4.4285,-4.4285,-4.4285,-4.4285,-4.4285,-4.4285,-4.4285,-4.4285,-4.4285,-4.4285,-4.4285,-4.4285,-4.4285,-4.4285,-4.4285,-3.6201,-3.6201,-3.6201,-3.6201,-3.6201,-3.6201,-3.6201,-3.6201,-3.6201,-3.6201,-3.6201,-3.6201,-3.6201,-3.6201,-3.6497,-3.7677,-3.9786,-4.0832,-4.2245,-4.3649,-4.4451,-4.491,-4.5347,-4.5806,-4.5959,-4.6002,-4.6002,-4.6002,-4.6002,-4.6002,-4.6002,-4.6002,-4.6002,-4.6002,-4.6002,-4.6002,-4.6002,-4.6002,-4.6002,-4.6002,-4.6002,-4.6002,-4.6002,-4.6002,-4.6002,-4.6002,-4.6002,-4.6002,-4.6002,-4.6002,-4.6002,-4.6002,-4.6225,-4.6596,-4.6817,-4.7038,-4.7355,-4.7721,-4.8013,-4.8159,-4.8295,-4.8543,-4.8566,-4.8138,-4.7797,-4.7542,-4.7593,-4.7497,-4.7497,-4.7497,-4.7497,-4.7497,-4.7497,-4.7497,-4.7497,-4.7497,-4.7497,-4.7497,-4.7497,-4.7497,-4.7497,-4.7497,-4.7497,-4.7497,-4.7497,-4.7233,-4.6631,-4.6175,-4.591,-4.5173,-4.4453,-4.4381,-4.4285,-4.4285,-4.4285,-4.4285,-4.4285,-4.4285,-4.4285,-4.4285,-4.4285,-4.4285,-4.4285,-4.4285,-4.4285,-4.4285,-4.4285,-4.4285,-4.4285,-4.4285,-4.4285,-4.4285,-4.4285,-4.4285,-4.4285]},{"header":{"parameterUnit":"m.s-1","parameterCategory":1,"la1":31.0,"la2":29.5877,"lo1":-88.7671,"lo2":-86.6584,"dy":0.0162,"dx":0.0185,"nx":115,"ny":88,"refTime":"2023-06-16T18:00:00:Z","depth":0,"parameterNumber":3,"parameterNumberName":"V-component_of_WINDS"},"data":[0.0,0.0,0.0,0.0,0.0,0.0,0.0,0.0,0.0,0.0,0.0,0.0,0.0,0.0,0.0,0.0,0.0,0.0,0.0,0.0,0.0,0.0,0.0,0.0,0.0,0.0,0.0,0.0,0.0,0.0,0.0,0.0,0.0,0.0,0.0,0.0,0.0,0.0,0.0,0.0,0.0,0.0,0.0,0.0,0.0,0.0,0.0,0.0,0.0,0.0,0.0,0.0,0.0,0.0,0.0,0.0,0.0,0.0,0.0,0.0,0.0,0.0,0.0,0.0,0.0,0.0,0.0,0.0,0.0,0.0,0.0,0.0,0.0,0.0,0.0,0.0,0.0,0.0,0.0,0.0,0.0,0.0,0.0,0.0,0.0,0.0,0.0,0.0,0.0,0.0,0.0,0.0,0.0,0.0,0.0,0.0,0.0,0.0,0.0,0.0,0.0,0.0,0.0,0.0,0.0,0.0,0.0,0.0,0.0,0.0,0.0,0.0,0.0,0.0,0.0,0.0,0.0,0.0,0.0,0.0,0.0,0.0,0.0,0.0,0.0,0.0,0.0,0.0,0.0,0.0,0.0,0.0,0.0,0.0,0.0,0.0,0.0,0.0,0.0,0.0,0.0,0.0,0.0,0.0,0.0,0.0,0.0,0.0,0.0,0.0,0.0,0.0,0.0,0.0,0.0,0.0,0.0,0.0,0.0,0.0,0.0,0.0,0.0,0.0,0.0,0.0,0.0,0.0,0.0,0.0,0.0,0.0,0.0,0.0,0.0,0.0,0.0,0.0,0.0,0.0,0.0,0.0,0.0,0.0,0.0,0.0,0.0,0.0,0.0,0.0,0.0,0.0,0.0,0.0,0.0,0.0,0.0,0.0,0.0,0.0,0.0,0.0,0.0,0.0,0.0,0.0,0.0,0.0,0.0,0.0,0.0,0.0,0.0,0.0,0.0,0.0,0.0,0.0,0.0,0.0,0.0,0.0,0.0,0.0,0.0,0.0,0.0,0.0,0.0,0.0,0.0,0.0,0.0,0.0,0.0,0.0,0.0,0.0,0.0,0.0,0.0,0.0,0.0,0.0,0.0,0.0,0.0,0.0,0.0,0.0,0.0,0.0,0.0,0.0,0.0,0.0,0.0,0.0,0.0,0.0,0.0,0.0,0.0,0.0,0.0,0.0,0.0,0.0,0.0,0.0,0.0,0.0,0.0,0.0,0.0,0.0,0.0,0.0,0.0,0.0,0.0,0.0,0.0,0.0,0.0,0.0,0.0,0.0,0.0,0.0,0.0,0.0,0.0,0.0,0.0,0.0,0.0,0.0,0.0,0.0,0.0,0.0,0.0,0.0,0.0,0.0,0.0,0.0,0.0,0.0,0.0,0.0,0.0,0.0,0.0,0.0,0.0,0.0,0.0,0.0,0.0,0.0,0.0,0.0,0.0,0.0,0.0,0.0,0.0,0.0,0.0,0.0,0.0,0.0,0.0,0.0,0.0,0.0,0.0,0.0,0.0,0.0,0.0,0.0,0.0,0.0,0.0,0.0,0.0,0.0,0.0,0.0,0.0,0.0,0.0,0.0,0.0,0.0,0.0,0.0,0.0,0.0,0.0,0.0,0.0,0.0,0.0,0.0,0.0,0.0,0.0,0.0,0.0,0.0,0.0,0.0,0.0,0.0,0.0,0.0,0.0,0.0,0.0,0.0,0.0,0.0,0.0,0.0,0.0,0.0,0.0,0.0,0.0,0.0,0.0,0.0,0.0,0.0,0.0,0.0,0.0,0.0,0.0,0.0,0.0,0.0,0.0,0.0,0.0,0.0,0.0,0.0,0.0,0.0,0.0,0.0,0.0,0.0,0.0,0.0,0.0,0.0,0.0,0.0,0.0,0.0,0.0,0.0,0.0,0.0,0.0,0.0,0.0,0.0,0.0,0.0,0.0,0.0,0.0,0.0,0.0,0.0,0.0,0.0,0.0,0.0,0.0,0.0,0.0,0.0,0.0,0.0,0.0,0.0,0.0,0.0,0.0,0.0,0.0,0.0,0.0,0.0,0.0,0.0,0.0,0.0,0.0,0.0,0.0,0.0,0.0,0.0,0.0,0.0,0.0,0.0,0.0,0.0,0.0,0.0,0.0,0.0,0.0,0.0,0.0,0.0,0.0,0.0,0.0,0.0,0.0,0.0,0.0,0.0,0.0,0.0,0.0,0.0,0.0,0.0,0.0,0.0,0.0,0.0,0.0,0.0,0.0,0.0,0.0,0.0,0.0,0.0,0.0,0.0,0.0,0.0,0.0,0.0,0.0,0.0,0.0,0.0,0.0,0.0,0.0,0.0,0.0,0.0,0.0,0.0,0.0,0.0,0.0,0.0,0.0,0.0,0.0,0.0,0.0,0.0,0.0,0.0,0.0,0.0,0.0,0.0,0.0,0.0,0.0,0.0,0.0,0.0,0.0,0.0,0.0,0.0,0.0,0.0,0.0,0.0,0.0,0.0,0.0,0.0,0.0,0.0,0.0,0.0,0.0,0.0,0.0,0.0,0.0,0.0,0.0,0.0,0.0,0.0,0.0,0.0,0.0,0.0,0.0,0.0,0.0,0.0,0.0,0.0,0.0,0.0,0.0,0.0,0.0,0.0,0.0,0.0,0.0,0.0,0.0,0.0,0.0,0.0,0.0,0.0,0.0,0.0,0.0,0.0,0.0,0.0,0.0,0.0,0.0,0.0,0.0,0.0,0.0,0.0,0.0,0.0,0.0,0.0,0.0,0.0,0.0,0.0,0.0,0.0,0.0,0.0,0.0,0.0,0.0,0.0,0.0,0.0,0.0,0.0,0.0,0.0,0.0,0.0,0.0,0.0,0.0,0.0,0.0,0.0,0.0,0.0,0.0,0.0,0.0,0.0,0.0,0.0,0.0,0.0,0.0,0.0,0.0,0.0,0.0,0.0,0.0,0.0,0.0,0.0,0.0,0.0,0.0,0.0,0.0,0.0,0.0,0.0,0.0,0.0,0.0,0.0,0.0,0.0,0.0,0.0,0.0,0.0,0.0,0.0,0.0,0.0,0.0,0.0,0.0,0.0,0.0,0.0,0.0,0.0,0.0,0.0,0.0,0.0,0.0,0.0,0.0,0.0,0.0,0.0,0.0,0.0,0.0,0.0,0.0,0.0,0.0,0.0,0.0,0.0,0.0,0.0,0.0,0.0,0.0,0.0,0.0,0.0,0.0,0.0,0.0,0.0,0.0,0.0,0.0,0.0,0.0,0.0,0.0,0.0,0.0,0.0,0.0,0.0,0.0,0.0,0.0,0.0,0.0,0.0,0.0,0.0,0.0,0.0,0.0,0.0,0.0,0.0,0.0,0.0,0.0,0.0,0.0,0.0,0.0,0.0,0.0,0.0,0.0,0.0,0.0,0.0,0.0,0.0,0.0,0.0,0.0,0.0,0.0,0.0,0.0,0.0,0.0,0.0,0.0,0.0,0.0,0.0,0.0,0.0,0.0,0.0,0.0,0.0,0.0,0.0,0.0,0.0,0.0,0.0,0.0,0.0,0.0,0.0,0.0,0.0,0.0,0.0,0.0,0.0,0.0,0.0,0.0,0.0,0.0,0.0,0.0,0.0,0.0,0.0,0.0,0.0,0.0,0.0,0.0,0.0,0.0,0.0,0.0,0.0,0.0,0.0,0.0,0.0,0.0,0.0,0.0,0.0,0.0,0.0,0.0,0.0,0.0,0.0,0.0,0.0,0.0,0.0,0.0,0.0,0.0,0.0,0.0,0.0,0.0,0.0,0.0,0.0,0.0,0.0,0.0,0.0,0.0,0.0,0.0,0.0,0.0,0.0,0.0,0.0,0.0,0.0,0.0,0.0,0.0,0.0,0.0,0.0,0.0,0.0,0.0,0.0,0.0,0.0,0.0,0.0,0.0,0.0,0.0,0.0,0.0,0.0,0.0,0.0,0.0,0.0,0.0,0.0,0.0,0.0,0.0,0.0,0.0,0.0,0.0,0.0,0.0,0.0,0.0,0.0,0.0,0.0,0.0,0.0,0.0,0.0,0.0,0.0,0.0,0.0,0.0,0.0,0.0,0.0,0.0,0.0,0.0,0.0,0.0,0.0,0.0,0.0,0.0,0.0,0.0,0.0,0.0,0.0,0.0,0.0,0.0,0.0,0.0,0.0,0.0,0.0,0.0,0.0,0.0,0.0,0.0,0.0,0.0,0.0,0.0,0.0,0.0,0.0,0.0,0.0,0.0,0.0,0.0,0.0,0.0,0.0,0.0,0.0,-4.038,0.0,0.0,0.0,0.0,0.0,0.0,0.0,0.0,0.0,0.0,0.0,0.0,0.0,0.0,0.0,0.0,0.0,0.0,0.0,0.0,0.0,0.0,0.0,0.0,0.0,0.0,0.0,0.0,0.0,0.0,0.0,0.0,0.0,0.0,0.0,0.0,0.0,0.0,0.0,0.0,0.0,0.0,0.0,0.0,0.0,0.0,0.0,0.0,0.0,0.0,0.0,0.0,0.0,0.0,0.0,0.0,0.0,0.0,0.0,0.0,0.0,0.0,0.0,0.0,0.0,0.0,0.0,0.0,0.0,0.0,0.0,0.0,0.0,0.0,0.0,0.0,0.0,0.0,0.0,0.0,0.0,0.0,0.0,0.0,0.0,0.0,0.0,0.0,0.0,0.0,0.0,0.0,0.0,0.0,0.0,0.0,0.0,0.0,0.0,0.0,0.0,0.0,0.0,0.0,0.0,0.0,0.0,0.0,0.0,0.0,-4.0294,-4.0144,-4.0469,-4.0797,-4.1093,0.0,0.0,0.0,0.0,0.0,0.0,0.0,0.0,0.0,0.0,0.0,0.0,0.0,0.0,0.0,0.0,0.0,0.0,0.0,0.0,0.0,0.0,0.0,0.0,0.0,0.0,0.0,0.0,0.0,0.0,0.0,0.0,0.0,0.0,0.0,0.0,0.0,0.0,0.0,0.0,0.0,0.0,0.0,0.0,0.0,0.0,0.0,0.0,0.0,0.0,0.0,0.0,0.0,0.0,0.0,0.0,0.0,0.0,0.0,0.0,0.0,0.0,0.0,0.0,0.0,0.0,0.0,0.0,0.0,0.0,0.0,0.0,0.0,0.0,0.0,0.0,0.0,0.0,0.0,0.0,0.0,0.0,0.0,0.0,0.0,0.0,0.0,0.0,0.0,0.0,0.0,0.0,0.0,0.0,0.0,0.0,0.0,0.0,0.0,0.0,0.0,0.0,0.0,0.0,0.0,0.0,0.0,0.0,0.0,0.0,0.0,0.0,-4.1084,-4.1411,-4.1839,0.0,0.0,0.0,0.0,0.0,0.0,0.0,0.0,0.0,0.0,0.0,0.0,0.0,0.0,0.0,0.0,0.0,0.0,0.0,0.0,0.0,0.0,0.0,0.0,0.0,0.0,0.0,0.0,0.0,0.0,0.0,0.0,0.0,0.0,0.0,0.0,0.0,0.0,0.0,0.0,0.0,0.0,0.0,0.0,0.0,0.0,0.0,0.0,0.0,0.0,0.0,0.0,0.0,0.0,0.0,0.0,0.0,0.0,0.0,0.0,0.0,0.0,0.0,0.0,0.0,0.0,0.0,0.0,0.0,0.0,0.0,0.0,0.0,0.0,0.0,0.0,0.0,0.0,0.0,0.0,0.0,0.0,0.0,0.0,0.0,0.0,0.0,0.0,0.0,0.0,0.0,0.0,0.0,0.0,0.0,0.0,0.0,0.0,0.0,0.0,0.0,0.0,0.0,0.0,0.0,0.0,0.0,0.0,0.0,0.0,-4.1606,-4.1697,-4.2161,0.0,-4.2489,0.0,0.0,0.0,0.0,0.0,0.0,0.0,0.0,0.0,0.0,0.0,0.0,0.0,0.0,0.0,0.0,0.0,0.0,0.0,0.0,0.0,0.0,0.0,0.0,0.0,0.0,0.0,0.0,0.0,0.0,0.0,0.0,0.0,0.0,0.0,0.0,0.0,0.0,0.0,0.0,0.0,0.0,0.0,0.0,0.0,0.0,0.0,0.0,0.0,0.0,0.0,0.0,0.0,0.0,0.0,0.0,0.0,0.0,0.0,0.0,0.0,0.0,0.0,0.0,0.0,0.0,0.0,0.0,0.0,0.0,0.0,0.0,0.0,0.0,0.0,0.0,0.0,0.0,0.0,0.0,0.0,0.0,0.0,0.0,0.0,0.0,0.0,0.0,0.0,0.0,0.0,0.0,0.0,0.0,0.0,0.0,0.0,0.0,0.0,0.0,0.0,0.0,0.0,0.0,0.0,0.0,0.0,0.0,0.0,0.0,-4.2535,-4.229,-4.2488,-4.2619,0.0,0.0,0.0,0.0,0.0,0.0,0.0,0.0,0.0,0.0,0.0,0.0,0.0,0.0,0.0,0.0,0.0,0.0,0.0,0.0,0.0,0.0,0.0,0.0,0.0,0.0,0.0,0.0,0.0,0.0,0.0,0.0,0.0,0.0,0.0,0.0,0.0,0.0,0.0,0.0,0.0,0.0,0.0,0.0,0.0,0.0,0.0,0.0,0.0,0.0,0.0,0.0,0.0,0.0,0.0,0.0,0.0,0.0,0.0,0.0,0.0,0.0,0.0,0.0,0.0,0.0,0.0,0.0,0.0,0.0,0.0,0.0,0.0,0.0,0.0,0.0,0.0,0.0,0.0,0.0,0.0,0.0,0.0,0.0,0.0,0.0,0.0,0.0,0.0,0.0,0.0,0.0,0.0,0.0,0.0,0.0,0.0,0.0,0.0,0.0,0.0,0.0,0.0,0.0,0.0,0.0,0.0,0.0,0.0,0.0,-4.2851,-4.3023,-4.2618,-4.2619,-4.2619,-4.2619,0.0,0.0,0.0,0.0,0.0,0.0,0.0,0.0,0.0,0.0,0.0,0.0,0.0,0.0,0.0,0.0,0.0,0.0,0.0,0.0,0.0,0.0,0.0,0.0,0.0,0.0,0.0,0.0,0.0,0.0,0.0,0.0,0.0,0.0,0.0,0.0,0.0,0.0,0.0,0.0,0.0,0.0,0.0,0.0,0.0,0.0,0.0,0.0,0.0,0.0,0.0,0.0,0.0,0.0,0.0,0.0,0.0,0.0,0.0,0.0,0.0,0.0,0.0,0.0,0.0,0.0,0.0,0.0,0.0,0.0,0.0,0.0,0.0,0.0,0.0,0.0,0.0,0.0,0.0,0.0,0.0,0.0,0.0,0.0,0.0,0.0,0.0,0.0,0.0,0.0,0.0,0.0,0.0,0.0,0.0,0.0,0.0,0.0,0.0,0.0,0.0,0.0,0.0,0.0,0.0,0.0,0.0,0.0,-4.2802,-4.2711,-4.2618,-4.2619,-4.2619,-4.2619,0.0,0.0,0.0,0.0,0.0,0.0,0.0,0.0,0.0,0.0,0.0,0.0,0.0,0.0,0.0,0.0,0.0,0.0,0.0,0.0,0.0,0.0,0.0,0.0,0.0,0.0,0.0,0.0,0.0,0.0,0.0,0.0,0.0,0.0,0.0,0.0,0.0,0.0,0.0,0.0,0.0,0.0,0.0,0.0,0.0,0.0,0.0,0.0,0.0,0.0,0.0,0.0,0.0,0.0,0.0,0.0,0.0,0.0,0.0,0.0,0.0,0.0,0.0,0.0,0.0,0.0,0.0,0.0,0.0,0.0,0.0,0.0,0.0,0.0,0.0,0.0,0.0,0.0,0.0,0.0,0.0,0.0,0.0,0.0,0.0,0.0,0.0,0.0,0.0,0.0,0.0,0.0,0.0,0.0,0.0,0.0,0.0,0.0,0.0,0.0,0.0,0.0,0.0,0.0,0.0,0.0,0.0,0.0,0.0,-4.2899,-4.2713,-4.2619,-4.2619,-4.2619,-4.2619,0.0,0.0,0.0,0.0,0.0,0.0,0.0,0.0,0.0,0.0,0.0,0.0,0.0,0.0,0.0,0.0,0.0,0.0,0.0,0.0,0.0,0.0,0.0,0.0,0.0,0.0,0.0,0.0,0.0,0.0,0.0,0.0,0.0,0.0,0.0,0.0,0.0,0.0,0.0,0.0,0.0,0.0,0.0,0.0,0.0,0.0,0.0,0.0,0.0,0.0,0.0,0.0,0.0,0.0,0.0,0.0,0.0,0.0,0.0,0.0,0.0,0.0,0.0,0.0,0.0,0.0,0.0,0.0,0.0,0.0,0.0,0.0,0.0,0.0,0.0,0.0,0.0,0.0,0.0,0.0,0.0,0.0,0.0,0.0,0.0,0.0,0.0,0.0,0.0,0.0,0.0,0.0,0.0,0.0,0.0,0.0,0.0,0.0,0.0,0.0,0.0,0.0,0.0,0.0,0.0,0.0,0.0,0.0,0.0,-4.3163,0.0,-4.3394,0.0,-4.333,-4.3298,0.0,0.0,0.0,0.0,0.0,0.0,0.0,0.0,0.0,0.0,0.0,0.0,0.0,0.0,0.0,0.0,0.0,0.0,0.0,0.0,0.0,0.0,0.0,0.0,0.0,0.0,0.0,0.0,0.0,0.0,0.0,0.0,0.0,0.0,0.0,0.0,0.0,0.0,0.0,0.0,0.0,0.0,0.0,0.0,0.0,0.0,0.0,0.0,0.0,0.0,0.0,0.0,0.0,0.0,0.0,0.0,0.0,0.0,0.0,0.0,0.0,0.0,0.0,0.0,0.0,0.0,0.0,0.0,0.0,0.0,0.0,0.0,0.0,0.0,0.0,0.0,0.0,0.0,0.0,0.0,0.0,0.0,0.0,0.0,0.0,0.0,0.0,0.0,0.0,0.0,0.0,0.0,0.0,0.0,0.0,0.0,0.0,0.0,0.0,0.0,0.0,0.0,0.0,0.0,0.0,0.0,0.0,0.0,-4.3384,-4.3751,-4.4561,-4.4886,-4.4755,-4.4723,-4.4755,0.0,0.0,0.0,0.0,0.0,0.0,0.0,0.0,0.0,0.0,0.0,0.0,0.0,0.0,0.0,0.0,0.0,0.0,0.0,0.0,0.0,0.0,0.0,0.0,0.0,0.0,0.0,0.0,0.0,0.0,0.0,0.0,0.0,0.0,0.0,0.0,0.0,0.0,0.0,0.0,0.0,0.0,0.0,0.0,0.0,0.0,0.0,0.0,0.0,0.0,0.0,0.0,0.0,0.0,0.0,0.0,0.0,0.0,0.0,0.0,0.0,0.0,0.0,0.0,0.0,0.0,0.0,0.0,0.0,0.0,0.0,0.0,0.0,0.0,0.0,0.0,0.0,0.0,0.0,0.0,0.0,0.0,0.0,0.0,0.0,0.0,0.0,0.0,0.0,0.0,0.0,0.0,0.0,0.0,0.0,0.0,0.0,0.0,0.0,0.0,0.0,0.0,0.0,0.0,0.0,0.0,0.0,0.0,0.0,-4.4659,-4.4789,-4.4853,-4.4787,-4.4787,-4.4787,0.0,0.0,0.0,0.0,0.0,0.0,0.0,0.0,0.0,0.0,0.0,0.0,0.0,0.0,0.0,0.0,0.0,0.0,0.0,0.0,0.0,0.0,0.0,0.0,0.0,0.0,0.0,0.0,0.0,0.0,0.0,0.0,0.0,0.0,0.0,0.0,0.0,0.0,0.0,0.0,0.0,0.0,0.0,0.0,0.0,0.0,0.0,0.0,0.0,0.0,0.0,0.0,0.0,0.0,0.0,0.0,0.0,0.0,0.0,0.0,0.0,0.0,0.0,0.0,0.0,0.0,0.0,0.0,0.0,0.0,0.0,0.0,0.0,0.0,0.0,0.0,0.0,0.0,0.0,0.0,0.0,0.0,0.0,0.0,0.0,0.0,0.0,0.0,0.0,0.0,0.0,0.0,0.0,0.0,0.0,0.0,0.0,0.0,0.0,0.0,0.0,0.0,0.0,0.0,0.0,0.0,0.0,0.0,0.0,-4.5864,-4.5798,-4.5764,-4.5565,-4.5824,-4.5986,-4.5986,0.0,0.0,0.0,0.0,0.0,0.0,0.0,0.0,0.0,0.0,0.0,0.0,0.0,0.0,0.0,0.0,0.0,0.0,0.0,0.0,0.0,0.0,0.0,0.0,0.0,0.0,0.0,0.0,0.0,0.0,0.0,0.0,0.0,0.0,0.0,0.0,0.0,0.0,0.0,0.0,0.0,0.0,0.0,0.0,0.0,0.0,0.0,0.0,0.0,0.0,0.0,0.0,0.0,0.0,0.0,0.0,0.0,0.0,0.0,0.0,0.0,0.0,0.0,0.0,0.0,0.0,0.0,0.0,0.0,0.0,0.0,0.0,0.0,0.0,0.0,0.0,0.0,0.0,0.0,0.0,0.0,0.0,0.0,0.0,0.0,0.0,0.0,0.0,0.0,0.0,0.0,0.0,0.0,0.0,0.0,0.0,0.0,0.0,0.0,0.0,0.0,0.0,0.0,0.0,0.0,0.0,0.0,0.0,-4.7232,-4.7402,-4.7268,-4.6894,-4.754,-4.7961,0.0,0.0,0.0,0.0,0.0,0.0,0.0,0.0,0.0,0.0,0.0,0.0,0.0,0.0,0.0,0.0,0.0,0.0,0.0,0.0,0.0,0.0,0.0,0.0,0.0,0.0,0.0,0.0,0.0,0.0,0.0,0.0,0.0,0.0,0.0,0.0,0.0,0.0,0.0,0.0,0.0,0.0,0.0,0.0,0.0,0.0,0.0,0.0,0.0,0.0,0.0,0.0,0.0,0.0,0.0,0.0,0.0,0.0,0.0,0.0,0.0,0.0,0.0,0.0,0.0,0.0,0.0,0.0,0.0,0.0,0.0,0.0,0.0,0.0,0.0,0.0,0.0,0.0,0.0,0.0,0.0,0.0,0.0,0.0,0.0,0.0,0.0,0.0,0.0,0.0,0.0,0.0,0.0,0.0,0.0,0.0,0.0,0.0,0.0,0.0,0.0,0.0,0.0,0.0,0.0,0.0,0.0,0.0,0.0,-4.7772,-4.746,-4.7132,-4.6927,-4.7087,-4.7443,0.0,0.0,0.0,0.0,0.0,0.0,0.0,0.0,0.0,0.0,0.0,0.0,0.0,0.0,0.0,0.0,0.0,0.0,0.0,0.0,0.0,0.0,0.0,0.0,0.0,0.0,0.0,0.0,0.0,0.0,0.0,0.0,0.0,0.0,0.0,0.0,0.0,0.0,0.0,0.0,0.0,0.0,0.0,0.0,0.0,0.0,0.0,0.0,0.0,0.0,0.0,0.0,0.0,0.0,0.0,0.0,0.0,0.0,0.0,0.0,0.0,0.0,0.0,0.0,0.0,0.0,0.0,0.0,0.0,0.0,0.0,0.0,0.0,0.0,0.0,0.0,0.0,0.0,0.0,0.0,0.0,0.0,0.0,0.0,0.0,0.0,0.0,0.0,0.0,0.0,0.0,0.0,0.0,0.0,0.0,0.0,0.0,0.0,0.0,0.0,0.0,0.0,0.0,0.0,0.0,0.0,0.0,0.0,-4.8556,-4.8553,-4.8167,-4.7904,-4.7767,-4.7508,-4.7572,0.0,0.0,0.0,0.0,0.0,0.0,0.0,0.0,0.0,0.0,0.0,0.0,0.0,0.0,0.0,0.0,0.0,0.0,0.0,0.0,0.0,0.0,0.0,0.0,0.0,0.0,0.0,0.0,0.0,0.0,0.0,0.0,0.0,0.0,0.0,0.0,0.0,0.0,0.0,0.0,0.0,0.0,0.0,0.0,0.0,0.0,0.0,0.0,0.0,0.0,0.0,0.0,0.0,0.0,0.0,0.0,0.0,0.0,0.0,0.0,0.0,0.0,0.0,0.0,0.0,0.0,0.0,0.0,0.0,0.0,0.0,0.0,0.0,0.0,0.0,0.0,0.0,0.0,0.0,0.0,0.0,0.0,0.0,0.0,0.0,0.0,0.0,0.0,0.0,0.0,0.0,0.0,0.0,0.0,0.0,0.0,0.0,0.0,0.0,0.0,0.0,0.0,0.0,0.0,0.0,0.0,0.0,0.0,-4.9131,-4.9278,-4.9102,-4.8994,-4.8994,-4.8447,-4.8188,0.0,0.0,0.0,0.0,0.0,0.0,0.0,0.0,0.0,0.0,0.0,0.0,0.0,0.0,0.0,0.0,0.0,0.0,0.0,0.0,0.0,0.0,0.0,0.0,0.0,0.0,0.0,0.0,0.0,0.0,0.0,0.0,0.0,0.0,0.0,0.0,0.0,0.0,0.0,0.0,0.0,0.0,0.0,0.0,0.0,0.0,0.0,0.0,0.0,0.0,0.0,0.0,0.0,0.0,0.0,0.0,0.0,0.0,0.0,0.0,0.0,0.0,0.0,0.0,0.0,0.0,0.0,0.0,0.0,0.0,0.0,0.0,0.0,0.0,0.0,0.0,0.0,0.0,0.0,0.0,0.0,0.0,0.0,0.0,0.0,0.0,0.0,0.0,0.0,0.0,0.0,0.0,0.0,0.0,0.0,0.0,0.0,0.0,0.0,0.0,0.0,0.0,0.0,0.0,0.0,0.0,0.0,0.0,-4.9613,-4.9066,-4.903,-4.8994,-4.8994,-4.89,-4.9354,0.0,0.0,0.0,0.0,0.0,0.0,0.0,0.0,0.0,0.0,0.0,0.0,0.0,0.0,0.0,0.0,0.0,0.0,0.0,0.0,0.0,0.0,0.0,0.0,0.0,0.0,0.0,0.0,0.0,0.0,0.0,0.0,0.0,0.0,0.0,0.0,0.0,0.0,0.0,0.0,0.0,0.0,0.0,0.0,0.0,0.0,0.0,0.0,-4.38,0.0,0.0,0.0,0.0,0.0,0.0,0.0,0.0,0.0,0.0,0.0,0.0,0.0,0.0,0.0,0.0,0.0,0.0,0.0,0.0,0.0,0.0,0.0,0.0,0.0,0.0,0.0,0.0,0.0,0.0,0.0,0.0,0.0,0.0,0.0,0.0,0.0,0.0,0.0,0.0,0.0,0.0,0.0,0.0,0.0,0.0,0.0,0.0,0.0,0.0,0.0,0.0,0.0,0.0,0.0,0.0,0.0,0.0,0.0,-5.0746,-5.0066,-5.0034,-5.0034,-5.0034,-5.0034,-5.0228,0.0,0.0,0.0,0.0,0.0,0.0,0.0,0.0,0.0,0.0,0.0,0.0,0.0,0.0,0.0,0.0,0.0,0.0,0.0,0.0,0.0,0.0,0.0,0.0,0.0,0.0,0.0,0.0,0.0,0.0,0.0,0.0,0.0,0.0,0.0,0.0,0.0,0.0,0.0,0.0,0.0,0.0,0.0,0.0,0.0,0.0,0.0,0.0,0.0,0.0,0.0,0.0,0.0,0.0,0.0,0.0,0.0,0.0,0.0,0.0,0.0,0.0,0.0,0.0,0.0,0.0,0.0,0.0,0.0,0.0,0.0,0.0,0.0,0.0,0.0,0.0,0.0,0.0,0.0,0.0,0.0,0.0,0.0,0.0,0.0,0.0,0.0,0.0,0.0,0.0,0.0,0.0,0.0,0.0,0.0,0.0,0.0,0.0,0.0,0.0,0.0,0.0,0.0,0.0,0.0,0.0,0.0,-5.2752,-5.2203,-5.1556,-5.1523,-5.1523,-5.1523,-5.1523,-5.1329,-5.094,0.0,0.0,0.0,0.0,0.0,0.0,0.0,0.0,0.0,0.0,0.0,0.0,0.0,0.0,0.0,0.0,0.0,0.0,0.0,0.0,0.0,0.0,0.0,0.0,0.0,0.0,0.0,0.0,0.0,0.0,0.0,0.0,0.0,0.0,0.0,0.0,0.0,0.0,-4.4941,-4.4918,0.0,0.0,0.0,0.0,0.0,0.0,0.0,0.0,-4.6841,0.0,0.0,0.0,0.0,0.0,0.0,0.0,0.0,0.0,0.0,0.0,0.0,0.0,0.0,0.0,0.0,0.0,0.0,0.0,0.0,0.0,0.0,0.0,0.0,0.0,0.0,0.0,0.0,0.0,0.0,0.0,0.0,0.0,0.0,0.0,0.0,0.0,0.0,0.0,0.0,0.0,0.0,0.0,0.0,0.0,0.0,0.0,0.0,0.0,0.0,0.0,0.0,0.0,0.0,0.0,0.0,-5.4168,-5.4089,-5.3693,-5.2942,-5.2981,-5.2942,-5.2981,-5.2981,-5.3466,-5.4405,0.0,0.0,0.0,0.0,0.0,0.0,0.0,0.0,0.0,0.0,0.0,0.0,0.0,0.0,0.0,0.0,0.0,0.0,0.0,0.0,0.0,0.0,0.0,0.0,0.0,0.0,0.0,0.0,0.0,0.0,0.0,0.0,0.0,0.0,0.0,0.0,0.0,0.0,0.0,-4.6265,-4.6326,0.0,0.0,0.0,0.0,0.0,0.0,0.0,0.0,-4.6511,0.0,0.0,0.0,0.0,0.0,0.0,0.0,0.0,0.0,0.0,0.0,0.0,0.0,0.0,0.0,0.0,0.0,0.0,0.0,0.0,0.0,0.0,0.0,0.0,0.0,0.0,0.0,0.0,0.0,0.0,0.0,0.0,0.0,0.0,0.0,0.0,0.0,0.0,0.0,0.0,0.0,0.0,0.0,0.0,0.0,0.0,0.0,0.0,0.0,0.0,0.0,0.0,0.0,0.0,0.0,-5.5117,-5.4727,-5.4168,-5.3298,-5.3265,-5.3265,-5.3298,-5.3693,-5.4373,0.0,0.0,0.0,0.0,0.0,0.0,0.0,0.0,0.0,0.0,0.0,0.0,0.0,0.0,0.0,0.0,0.0,0.0,0.0,0.0,0.0,0.0,0.0,0.0,0.0,0.0,0.0,0.0,0.0,0.0,0.0,0.0,0.0,0.0,0.0,0.0,0.0,0.0,0.0,0.0,-4.6819,-4.6726,-4.7065,0.0,0.0,0.0,0.0,0.0,0.0,-4.7812,-4.765,0.0,0.0,0.0,0.0,0.0,0.0,0.0,0.0,0.0,0.0,0.0,0.0,0.0,0.0,0.0,0.0,0.0,0.0,0.0,0.0,0.0,0.0,0.0,0.0,0.0,0.0,0.0,0.0,0.0,0.0,0.0,0.0,0.0,0.0,0.0,0.0,0.0,0.0,0.0,0.0,0.0,0.0,0.0,0.0,0.0,0.0,0.0,0.0,0.0,0.0,0.0,0.0,0.0,0.0,0.0,-5.5954,-5.5357,-5.4626,-5.3758,-5.3725,-5.3718,-5.3758,-5.4308,-5.4988,0.0,0.0,0.0,0.0,0.0,0.0,0.0,0.0,0.0,0.0,0.0,0.0,0.0,0.0,0.0,0.0,0.0,0.0,0.0,0.0,0.0,0.0,0.0,0.0,0.0,0.0,0.0,0.0,0.0,0.0,0.0,0.0,0.0,0.0,0.0,0.0,0.0,0.0,0.0,0.0,0.0,-4.7269,-4.7711,-4.7804,0.0,0.0,0.0,0.0,-4.9097,-4.8841,0.0,0.0,0.0,0.0,0.0,0.0,0.0,0.0,0.0,0.0,0.0,0.0,0.0,0.0,0.0,0.0,0.0,0.0,0.0,0.0,0.0,0.0,0.0,0.0,0.0,0.0,0.0,0.0,0.0,0.0,0.0,0.0,0.0,0.0,0.0,0.0,0.0,0.0,0.0,0.0,0.0,0.0,0.0,0.0,0.0,0.0,0.0,0.0,0.0,0.0,0.0,0.0,0.0,0.0,0.0,0.0,-5.6473,-5.6243,-5.5817,-5.5183,-5.5183,-5.515,-5.5183,-5.5207,-5.596,0.0,0.0,0.0,0.0,0.0,0.0,0.0,0.0,0.0,0.0,0.0,0.0,0.0,0.0,0.0,0.0,0.0,0.0,0.0,0.0,0.0,0.0,0.0,0.0,0.0,0.0,0.0,0.0,0.0,0.0,0.0,0.0,0.0,0.0,0.0,0.0,0.0,0.0,0.0,0.0,0.0,-4.887,-4.8522,-4.8512,-4.8512,0.0,0.0,0.0,-4.8646,-4.8635,0.0,0.0,0.0,0.0,0.0,0.0,0.0,0.0,0.0,0.0,0.0,0.0,0.0,0.0,0.0,0.0,0.0,0.0,0.0,0.0,0.0,0.0,0.0,0.0,0.0,0.0,0.0,0.0,0.0,0.0,0.0,0.0,0.0,0.0,0.0,0.0,0.0,0.0,0.0,0.0,0.0,0.0,0.0,0.0,0.0,0.0,0.0,0.0,0.0,0.0,0.0,0.0,0.0,0.0,0.0,-5.8488,-5.8144,-5.7086,-5.6336,-5.5901,-5.5572,-5.5409,-5.5409,-5.5798,-5.651,0.0,0.0,0.0,0.0,0.0,0.0,0.0,0.0,0.0,0.0,0.0,0.0,0.0,0.0,0.0,0.0,0.0,0.0,0.0,0.0,0.0,0.0,0.0,0.0,0.0,0.0,0.0,0.0,0.0,0.0,0.0,0.0,0.0,0.0,0.0,0.0,0.0,0.0,0.0,0.0,0.0,0.0,-4.8646,-4.8604,0.0,0.0,0.0,-4.8718,-4.8965,0.0,0.0,0.0,0.0,0.0,0.0,0.0,0.0,0.0,0.0,0.0,0.0,0.0,0.0,0.0,0.0,0.0,0.0,0.0,0.0,0.0,0.0,0.0,0.0,0.0,0.0,0.0,0.0,0.0,0.0,0.0,0.0,0.0,0.0,0.0,0.0,0.0,0.0,0.0,0.0,0.0,0.0,0.0,0.0,0.0,0.0,0.0,0.0,0.0,0.0,0.0,0.0,0.0,0.0,0.0,0.0,0.0,-5.9131,-5.7565,-5.6492,-5.61,-5.562,-5.5409,-5.5409,-5.596,0.0,0.0,0.0,0.0,0.0,0.0,0.0,0.0,0.0,0.0,0.0,0.0,0.0,0.0,0.0,0.0,0.0,0.0,0.0,0.0,0.0,0.0,0.0,0.0,0.0,0.0,0.0,-5.3499,0.0,0.0,0.0,0.0,0.0,0.0,0.0,0.0,0.0,0.0,0.0,0.0,0.0,0.0,-4.9953,-4.9378,-4.9294,-4.9419,0.0,0.0,-4.9006,-4.9336,-4.8934,-4.8666,0.0,0.0,0.0,0.0,0.0,0.0,0.0,0.0,0.0,0.0,0.0,0.0,0.0,0.0,0.0,0.0,0.0,0.0,0.0,0.0,0.0,0.0,0.0,0.0,0.0,0.0,0.0,0.0,0.0,0.0,0.0,0.0,0.0,0.0,0.0,0.0,0.0,0.0,0.0,0.0,0.0,0.0,0.0,0.0,0.0,0.0,0.0,0.0,0.0,0.0,0.0,0.0,0.0,0.0,0.0,-5.8573,-5.733,-5.633,-5.5491,-5.5409,-5.5409,-5.5409,-5.5474,-5.583,0.0,0.0,0.0,0.0,0.0,0.0,0.0,0.0,0.0,0.0,0.0,0.0,0.0,0.0,0.0,0.0,0.0,0.0,0.0,0.0,0.0,0.0,0.0,0.0,0.0,0.0,0.0,0.0,0.0,0.0,0.0,0.0,0.0,0.0,0.0,0.0,0.0,0.0,0.0,0.0,0.0,-5.2186,-5.132,-5.1194,-5.1236,0.0,0.0,-4.9662,-4.9662,-4.9108,-4.885,-4.9497,0.0,0.0,0.0,0.0,0.0,0.0,0.0,0.0,0.0,0.0,0.0,0.0,0.0,0.0,0.0,0.0,0.0,0.0,0.0,0.0,0.0,0.0,0.0,0.0,0.0,0.0,0.0,0.0,0.0,0.0,0.0,0.0,0.0,0.0,0.0,0.0,0.0,0.0,0.0,0.0,0.0,0.0,0.0,0.0,0.0,0.0,0.0,0.0,0.0,0.0,0.0,0.0,0.0,-5.9994,-5.9299,-5.7763,-5.6685,-5.5981,-5.5612,-5.5409,-5.5409,-5.5409,-5.5766,0.0,0.0,0.0,0.0,0.0,0.0,0.0,0.0,0.0,0.0,0.0,0.0,0.0,0.0,0.0,0.0,0.0,0.0,0.0,0.0,0.0,0.0,0.0,0.0,0.0,0.0,0.0,0.0,-5.4632,-5.4632,-5.456,0.0,0.0,0.0,0.0,0.0,0.0,0.0,0.0,0.0,0.0,-5.2475,-5.1862,-5.1779,0.0,0.0,-5.1351,-5.0849,-5.1069,-5.0432,-4.9989,-5.0266,-5.0082,0.0,0.0,0.0,0.0,0.0,0.0,0.0,0.0,0.0,0.0,0.0,0.0,0.0,0.0,0.0,0.0,0.0,0.0,0.0,0.0,0.0,0.0,0.0,0.0,0.0,0.0,0.0,0.0,0.0,0.0,0.0,0.0,0.0,0.0,0.0,0.0,0.0,0.0,0.0,0.0,0.0,0.0,0.0,0.0,0.0,0.0,0.0,0.0,0.0,0.0,0.0,0.0,-6.0489,-6.0052,-5.8375,-5.7237,-5.6683,-5.6303,-5.6057,-5.6057,-5.6057,-5.6284,0.0,0.0,0.0,0.0,0.0,0.0,0.0,0.0,0.0,0.0,0.0,0.0,0.0,0.0,0.0,0.0,0.0,0.0,0.0,0.0,0.0,0.0,0.0,0.0,0.0,0.0,0.0,0.0,-5.5539,-5.5409,-5.5409,0.0,0.0,0.0,0.0,0.0,0.0,0.0,0.0,0.0,0.0,-5.3358,-5.2876,-5.2711,-5.2742,-5.3073,-5.2209,-5.1662,-5.2052,-5.1336,-5.0802,-5.116,0.0,0.0,0.0,0.0,0.0,0.0,0.0,0.0,0.0,0.0,0.0,0.0,0.0,0.0,0.0,0.0,0.0,0.0,0.0,0.0,0.0,0.0,0.0,0.0,0.0,0.0,0.0,0.0,0.0,0.0,0.0,0.0,0.0,0.0,0.0,0.0,0.0,0.0,0.0,0.0,0.0,0.0,0.0,0.0,0.0,0.0,0.0,0.0,0.0,0.0,0.0,0.0,0.0,-6.167,-6.0589,-5.8984,-5.7952,-5.7566,-5.7557,-5.7524,-5.7524,-5.7557,-5.7514,-5.7589,0.0,0.0,0.0,0.0,0.0,0.0,0.0,0.0,0.0,0.0,0.0,0.0,0.0,0.0,0.0,0.0,0.0,0.0,0.0,0.0,0.0,0.0,0.0,0.0,0.0,0.0,-5.6667,-5.583,-5.5442,0.0,0.0,0.0,0.0,0.0,0.0,0.0,0.0,0.0,0.0,-5.509,-5.5213,-5.4768,-5.4338,-5.4019,-5.4051,-5.2741,-5.1858,-5.2348,-5.1475,-5.1086,0.0,0.0,0.0,0.0,0.0,0.0,0.0,0.0,0.0,0.0,0.0,0.0,0.0,0.0,0.0,0.0,0.0,0.0,0.0,0.0,0.0,0.0,0.0,0.0,0.0,0.0,0.0,0.0,0.0,0.0,0.0,0.0,0.0,0.0,0.0,0.0,0.0,0.0,0.0,0.0,-5.9264,-5.9032,0.0,0.0,0.0,0.0,0.0,0.0,0.0,0.0,0.0,0.0,0.0,0.0,-6.1757,-6.0544,-5.9538,-5.8518,-5.7589,-5.7589,-5.7589,-5.7589,-5.7589,-5.7806,-5.8259,0.0,0.0,0.0,0.0,0.0,0.0,0.0,0.0,0.0,0.0,0.0,0.0,0.0,0.0,0.0,0.0,0.0,0.0,0.0,0.0,0.0,0.0,0.0,0.0,0.0,-5.8979,0.0,0.0,0.0,0.0,0.0,0.0,0.0,0.0,0.0,0.0,0.0,-5.5955,-5.5829,-5.5572,-5.5246,-5.4864,-5.4697,-5.4486,0.0,0.0,0.0,0.0,0.0,0.0,0.0,0.0,0.0,0.0,0.0,0.0,0.0,0.0,-4.9989,-4.9989,-4.9989,-4.9989,-4.9989,0.0,0.0,0.0,0.0,0.0,0.0,0.0,0.0,0.0,0.0,0.0,0.0,0.0,0.0,0.0,0.0,-5.9098,0.0,0.0,0.0,0.0,0.0,0.0,0.0,0.0,-5.9131,-5.9032,-5.9264,-5.9297,-5.9429,0.0,-5.9951,-5.9951,0.0,0.0,0.0,0.0,0.0,0.0,0.0,0.0,-6.2021,-6.0642,-6.005,-5.9276,-5.8367,-5.8324,-5.8324,-5.8324,-5.8324,-5.8518,-5.8961,-5.8961,-5.9231,0.0,0.0,0.0,0.0,0.0,0.0,0.0,0.0,0.0,0.0,0.0,0.0,0.0,0.0,0.0,0.0,0.0,0.0,0.0,0.0,0.0,0.0,0.0,-5.9683,0.0,0.0,0.0,0.0,0.0,0.0,0.0,0.0,0.0,-5.8207,-5.7648,-5.7297,-5.71,-5.6531,-5.5988,-5.5569,0.0,0.0,0.0,0.0,0.0,0.0,0.0,-5.2743,-5.2922,-5.2819,-5.2729,-5.2729,-5.2359,-5.2052,-5.2052,0.0,0.0,-5.079,-5.0697,-5.0697,-5.0697,-5.0328,-5.0051,-5.0051,-4.9682,-4.9343,0.0,0.0,0.0,0.0,0.0,0.0,0.0,0.0,-5.9198,-5.8933,0.0,-5.8966,0.0,0.0,0.0,0.0,0.0,0.0,0.0,0.0,-5.9032,-5.9363,-6.0059,-6.0092,-6.0456,-6.1161,-6.1944,-6.1904,-6.1169,-6.046,0.0,0.0,0.0,0.0,0.0,0.0,-6.2595,-6.0961,-6.0699,-6.0271,-5.9781,-5.9781,-5.9781,-5.9781,-5.9781,-5.9781,-5.9749,-5.9749,-5.9749,-5.9673,-5.9673,0.0,0.0,0.0,0.0,0.0,0.0,0.0,0.0,0.0,0.0,0.0,0.0,0.0,0.0,0.0,0.0,0.0,0.0,0.0,0.0,-6.0142,0.0,0.0,0.0,0.0,0.0,0.0,0.0,0.0,0.0,0.0,-5.9809,-5.9438,-5.9164,-5.8566,0.0,0.0,0.0,0.0,-5.4983,-5.4483,-5.3506,-5.2925,-5.3383,-5.3104,-5.2925,-5.3383,0.0,0.0,-5.276,-5.2729,-5.2698,-5.2729,-5.2667,-5.2298,-5.1036,-5.0851,-5.082,-5.082,-5.082,-5.0759,-5.0728,-5.0667,-5.0667,-6.092,0.0,0.0,0.0,0.0,-5.9529,-5.9198,-5.9198,-5.8999,-5.9198,-5.9694,-5.9694,0.0,0.0,0.0,0.0,0.0,0.0,-6.049,-6.049,-6.049,-6.0854,-6.1592,-6.155,-6.1914,-6.2685,-6.2907,-6.2898,-6.2685,-6.2465,-6.2609,-6.311,0.0,0.0,0.0,0.0,-6.4629,-6.3808,-6.3216,-6.2319,-6.1206,-6.1206,-6.1206,-6.1206,-6.1206,-6.0979,-6.0494,-6.0494,-6.0235,-5.9749,-5.9673,0.0,0.0,0.0,0.0,0.0,0.0,0.0,0.0,0.0,0.0,0.0,0.0,0.0,0.0,0.0,0.0,0.0,0.0,0.0,-6.2702,-6.1755,-6.1421,0.0,0.0,0.0,0.0,0.0,0.0,0.0,0.0,0.0,-6.2432,-6.0651,-5.9164,0.0,0.0,-5.7462,-5.7066,-5.6364,-5.5606,-5.4745,0.0,0.0,0.0,-5.4237,-5.4145,-5.4329,-5.3836,-5.3437,-5.3437,-5.3037,-5.2729,-5.2729,-5.2729,-5.2575,-5.2236,-5.2144,-5.2113,-5.2144,-5.2144,-5.1959,-5.1528,-5.1405,-5.1282,-6.1715,-6.1881,-6.0854,-6.0456,-6.039,-5.996,-5.9926,-6.0191,-6.0191,-6.0622,-6.1318,-6.1285,-6.155,-6.198,-6.198,0.0,0.0,0.0,-6.198,-6.198,-6.198,-6.2179,-6.2619,-6.2652,-6.2884,-6.3315,-6.3624,-6.3581,-6.3315,-6.3624,-6.391,-6.4282,0.0,0.0,-6.5357,-6.5236,-6.4767,-6.3885,-6.3557,-6.2892,-6.1867,-6.1789,-6.1789,-6.1789,-6.1789,-6.1595,-6.1206,-6.1206,-6.1012,-6.0558,-6.0267,-6.0267,0.0,0.0,0.0,0.0,0.0,0.0,0.0,0.0,0.0,0.0,0.0,-5.9219,-5.9684,0.0,0.0,0.0,-6.1763,-6.2745,-6.3193,-6.2474,0.0,0.0,0.0,0.0,0.0,0.0,0.0,-6.189,-6.2423,-6.2817,-6.2817,-6.115,-5.9864,-5.9783,-5.9234,-5.8603,-5.7967,0.0,-5.6298,-5.555,-5.4977,-5.4683,-5.4683,-5.4683,-5.4683,-5.4683,-5.4345,-5.4068,-5.4068,-5.3775,-5.3529,-5.3468,-5.3283,-5.3129,-5.3129,-5.2914,-5.2729,-5.2729,-5.2729,-5.2575,-5.2175,-5.2113,-5.1959,-6.2685,-6.314,-6.1848,-6.1285,-6.1285,-6.1285,-6.1649,-6.2288,-6.2288,-6.2685,-6.3315,-6.3315,-6.3315,-6.3315,-6.3315,0.0,0.0,-6.3315,-6.3282,-6.3315,-6.3315,-6.3305,-6.3415,-6.3372,-6.3448,-6.3514,-6.4145,-6.4145,-6.3524,-6.4145,-6.4862,-6.5546,-6.4945,-6.4112,-6.3328,-6.4103,-6.386,-6.2493,-6.2736,-6.2558,-6.1983,-6.1983,-6.1983,-6.1983,-6.1983,-6.1951,-6.1919,-6.1886,-6.1854,-6.1789,-6.1206,-6.1174,-6.1724,0.0,0.0,0.0,0.0,0.0,0.0,0.0,0.0,0.0,0.0,0.0,0.0,0.0,0.0,0.0,-6.2043,0.0,-6.2513,-6.2474,0.0,0.0,0.0,-6.3417,-6.3417,-6.2931,-6.2629,-6.2668,0.0,0.0,0.0,0.0,-6.1061,-6.1635,-6.1061,-6.0249,-5.9197,-5.8006,-5.7127,-5.6652,-5.5643,-5.4914,-5.5037,-5.5007,-5.5007,-5.5007,-5.4806,-5.4775,-5.4745,-5.4699,-5.4683,-5.4591,-5.416,-5.376,-5.3806,-5.3345,-5.2883,-5.2944,-5.2821,-5.2698,-5.2667,-5.2667,-5.2637,-6.315,-6.3239,-6.2908,-6.2775,-6.2742,-6.2775,-6.2842,-6.305,-6.3007,-6.315,-6.3315,-6.3315,-6.3315,-6.3315,-6.3315,-6.3315,-6.3315,-6.3315,-6.3315,-6.3315,-6.3315,-6.3614,-6.41,-6.4177,-6.4399,-6.4862,-6.5116,-6.5039,-6.4895,-6.5039,-6.527,-6.5447,-6.5935,-6.626,-6.6432,-6.5749,-6.519,-6.4807,-6.4563,-6.4132,-6.3473,-6.3473,-6.3505,-6.3473,-6.3473,-6.3214,-6.2663,-6.2631,-6.2372,-6.1821,-6.166,-6.166,-6.1789,-6.2003,0.0,0.0,0.0,0.0,0.0,0.0,0.0,0.0,0.0,-5.9882,-6.043,0.0,-6.1073,0.0,-6.0302,-6.0778,-6.1837,-6.1439,0.0,0.0,-6.1837,-6.2156,-6.2156,-6.2397,-6.2783,-6.3305,-6.323,-6.3155,-6.3155,-6.2586,-6.2043,-6.1756,-6.0685,-5.9859,-5.9631,-5.869,-5.7774,-5.7309,-5.6712,-5.6347,-5.6238,-5.6269,-5.6238,-5.6317,-5.5838,-5.5468,-5.5468,-5.5037,-5.4683,-5.4683,-5.4591,-5.4437,-5.4483,-5.433,-5.4191,-5.4176,-5.3437,-5.2729,-5.2729,-5.2729,-5.2729,-6.3935,-6.4233,-6.4233,-6.4233,-6.42,-6.3537,-6.3514,-6.3769,-6.3769,-6.3935,-6.4233,-6.4233,-6.4233,-6.4233,-6.4233,-6.4233,-6.4233,-6.4233,-6.4233,-6.4233,-6.4233,-6.465,-6.5407,-6.545,-6.5607,-6.5975,-6.5975,-6.579,-6.5425,-6.5425,-6.5425,-6.5425,-6.5888,-6.6244,-6.6466,-6.6158,-6.5724,-6.5192,-6.4773,-6.4379,-6.4024,-6.4024,-6.4024,-6.4024,-6.4024,-6.3829,-6.3408,-6.3408,-6.3214,-6.2793,-6.2469,-6.2437,-6.2761,-6.2554,-6.2403,0.0,0.0,0.0,0.0,0.0,0.0,0.0,0.0,0.0,0.0,0.0,-6.1361,0.0,-6.0558,0.0,-6.1635,-6.135,-6.1144,-6.1177,-6.1473,-6.1716,-6.1716,-6.1997,-6.2201,-6.2313,-6.2313,-6.2313,-6.2313,-6.1723,-6.1317,-6.1227,-6.0378,-5.9728,-5.9696,-5.8863,-5.8119,-5.784,-5.7401,-5.705,-5.6858,-5.681,-5.681,-5.6779,-5.6471,-5.6176,-5.6193,-5.5869,-5.5622,-5.5622,-5.5376,-5.5161,-5.5161,-5.4837,-5.4683,-5.4591,-5.4145,-5.3683,-5.3576,-5.3576,-5.3576,-6.4862,-6.5425,-6.5425,-6.5459,-6.5459,-6.4233,-6.4001,-6.4498,-6.4498,-6.4862,-6.5425,-6.5425,-6.5425,-6.5425,-6.5425,-6.5425,-6.5425,-6.5425,-6.5425,-6.5425,-6.5425,-6.5834,-6.6542,-6.6542,-6.6542,-6.6542,-6.6542,-6.6148,-6.5425,-6.5425,-6.5459,-6.5558,-6.5647,-6.5591,-6.5408,-6.6155,-6.589,-6.4656,-6.4323,-6.4088,-6.4024,-6.4088,-6.4088,-6.4024,-6.4024,-6.4024,-6.4024,-6.4024,-6.4024,-6.3991,-6.3376,-6.3344,-6.3959,-6.2885,-6.2431,0.0,-6.2528,0.0,0.0,0.0,0.0,0.0,0.0,0.0,0.0,-6.1602,-6.1635,-6.1797,-6.1756,-6.1716,-6.1716,-6.1716,-6.1716,-6.1716,-6.1716,-6.1716,-6.1763,-6.1837,-6.1635,-6.1103,-6.0978,-6.0969,-6.102,-6.0292,-6.0076,-6.0548,-5.999,-5.9508,-5.9628,-5.885,-5.8165,-5.8119,-5.77,-5.7163,-5.6906,-5.681,-5.681,-5.681,-5.6779,-5.681,-5.6779,-5.6779,-5.6779,-5.6717,-5.6207,-5.5838,-5.5838,-5.5376,-5.5068,-5.5099,-5.5037,-5.4914,-5.4652,-5.456,-5.4683,-6.5293,-6.5425,-6.5425,-6.5757,-6.6287,-6.6022,-6.5657,-6.5227,-6.5227,-6.5293,-6.5425,-6.5425,-6.5425,-6.5425,-6.5425,-6.5425,-6.5425,-6.5425,-6.5425,-6.5425,-6.5425,-6.5514,-6.5658,-6.5658,-6.5658,-6.5658,-6.5658,-6.557,-6.5425,-6.5425,-6.5724,-6.6287,-6.701,-6.7179,-6.6859,0.0,0.0,0.0,-6.4589,-6.4574,-6.4056,-6.4542,-6.4574,-6.4056,-6.4024,0.0,-6.4024,-6.4024,-6.4024,-6.4024,-6.3894,0.0,0.0,0.0,0.0,0.0,0.0,0.0,0.0,0.0,0.0,0.0,-6.2574,-6.2238,-6.1676,-6.1185,-6.1309,-6.2318,-6.1963,-6.1716,-6.1716,-6.1716,-6.1716,-6.1716,-6.1716,-6.1917,-6.2358,-6.2397,-6.2552,-6.3004,-6.2586,-6.2201,-6.2043,-6.1268,-6.0548,-6.0548,-5.9431,-5.8895,-5.9584,-5.8805,-5.8072,-5.7731,-5.7258,-5.6954,-5.681,-5.681,-5.681,-5.681,-5.681,-5.681,-5.681,-5.681,-5.681,-5.681,-5.6686,-5.6546,-5.6594,-5.6502,-5.63,-5.6361,-5.6409,-5.6053,-5.4976,-5.4683,-5.4683,-6.6187,0.0,-6.6519,-6.6672,0.0,0.0,-6.685,-6.6473,-6.6519,-6.6485,-6.6519,-6.6519,-6.6519,-6.6485,-6.6485,-6.6485,-6.6519,-6.6519,-6.6473,-6.6473,-6.6519,-6.6711,-6.7123,-6.7123,-6.7123,-6.7123,-6.7123,-6.6901,-6.6519,-6.6473,-6.6684,-6.7049,-6.7378,-6.7397,-6.7208,-6.7268,-6.6382,-6.4509,-6.4818,-6.4704,-6.4056,-6.4347,-6.4347,-6.4024,0.0,0.0,0.0,0.0,0.0,0.0,0.0,0.0,0.0,0.0,0.0,-6.4024,-6.4286,-6.4216,-6.352,-6.3407,-6.3379,-6.3375,-6.2954,-6.2273,-6.1252,-6.0853,-6.0936,-6.1595,-6.1391,-6.1185,-6.1185,-6.1185,-6.1061,-6.0769,-6.0685,-6.0853,-6.1152,-6.148,-6.1676,-6.1642,-6.1642,-6.1561,-6.1193,-6.0642,-6.0249,-6.0163,-5.9508,-5.9017,-5.9197,-5.8487,-5.7746,-5.7511,-5.7146,-5.681,-5.681,-5.681,-5.681,-5.681,-5.681,-5.681,-5.681,-5.681,-5.681,-5.681,-5.681,-5.681,-5.681,-5.681,-5.681,-5.681,-5.681,-5.6656,-5.5869,-5.5745,-5.5745,-6.7036,-6.7566,-6.7566,-6.7665,-6.7811,-6.7811,-6.7877,-6.7976,0.0,0.0,0.0,-6.7566,-6.7566,-6.7566,-6.7566,-6.7566,-6.7566,-6.7566,-6.7566,-6.7566,-6.7566,-6.799,-6.8671,-6.8638,-6.8671,-6.8671,-6.8638,-6.8305,-6.7612,-6.7566,-6.7665,-6.7764,-6.7578,-6.7471,-6.7462,-6.7066,-6.6323,-6.5448,-6.5416,-6.5012,-6.4412,-6.4509,-6.4509,-6.438,-6.425,-6.4185,-6.4185,-6.4088,-6.4024,-6.4024,-6.4024,-6.4024,-6.4024,-6.4024,-6.4024,-6.4024,-6.4024,-6.4024,-6.4024,-6.3441,-6.3251,-6.3678,-6.3165,-6.23,-6.1141,-6.0924,-6.0891,-6.0886,-6.1011,-6.0978,-6.0928,-6.1103,-6.0928,-6.0163,-6.0163,-6.0249,-6.012,-6.0548,-6.0802,-6.0206,-6.0548,-6.0506,-6.0033,-5.9816,-5.9673,-5.9716,-5.9584,-5.9331,-5.8792,-5.8058,-5.7495,-5.7306,-5.6971,-5.681,-5.681,-5.681,-5.681,-5.681,-5.681,-5.681,-5.681,-5.681,-5.681,-5.681,-5.681,-5.681,-5.681,-5.681,-5.681,-5.681,-5.681,-5.681,-5.681,-5.681,-5.6748,-6.7499,-6.7566,-6.7566,-6.7976,-6.8539,-6.8539,-6.8904,-6.9368,-6.8175,-6.7599,-6.7566,-6.7566,-6.7566,-6.7566,-6.7566,-6.7566,-6.7566,-6.7566,-6.7566,0.0,-6.7566,-6.7658,-6.7796,-6.7796,-6.7796,-6.7796,-6.7796,-6.7704,-6.7612,-6.7599,-6.7943,-6.8473,-6.8493,-6.8554,-6.8682,-6.8208,-6.7603,-6.6906,-6.6873,-6.655,-6.5837,-6.642,-6.6452,-6.5837,-6.5189,-6.4818,-6.4818,-6.4347,-6.4024,-6.4024,-6.4024,-6.4024,-6.4024,-6.4024,-6.4024,-6.4024,-6.4024,-6.4024,-6.4024,-6.3926,-6.3617,-6.3094,-6.2931,-6.2745,-6.2416,-6.1905,-6.1556,-6.158,-6.1957,-6.2122,-6.1716,-6.243,-6.2508,-6.1521,-6.1843,-6.1963,-6.135,-6.135,-6.1391,-6.1227,-6.0969,-6.0675,-6.042,-6.0022,-5.9673,-5.9628,-5.9318,-5.8792,-5.8011,-5.7637,-5.7353,-5.6971,-5.6858,-5.681,-5.681,-5.681,-5.681,-5.681,-5.681,-5.681,-5.681,-5.681,-5.681,-5.681,-5.681,-5.681,-5.681,-5.681,-5.681,-5.681,-5.681,-5.681,-5.681,-5.681,-5.681,-6.844,-6.8804,-6.8804,-6.9003,-6.9301,-6.9301,-6.9467,-6.9732,-6.9103,-6.8804,-6.8804,-6.8804,-6.8804,-6.8804,-6.8804,-6.8804,-6.8804,-6.8804,-6.8804,-6.8804,-6.8771,-6.8804,-6.8804,-6.8804,-6.8804,-6.8804,-6.8804,-6.8804,-6.8804,-6.8804,-6.8876,-6.9079,-6.8792,-6.8617,-6.8518,-6.8301,-6.8039,-6.7748,-6.7359,-6.6841,-6.6129,-6.642,-6.6452,-6.6096,-6.5772,-6.561,-6.561,-6.493,-6.4527,-6.4574,-6.4218,-6.4024,-6.4024,-6.4024,-6.4024,-6.4024,-6.4024,-6.4024,-6.4024,-6.4024,-6.3862,-6.3538,-6.3505,-6.3283,-6.2848,-6.2168,-6.1732,-6.1724,-6.2286,-6.224,-6.1334,-6.1997,-6.2076,-6.0727,-6.0861,-6.0903,-6.0685,-6.06,-6.06,-6.0558,-6.0378,-6.0163,-6.0195,-5.9892,-5.9584,-5.9363,-5.8882,-5.8257,-5.7637,-5.7495,-5.7306,-5.6906,-5.681,-5.681,-5.681,-5.681,-5.681,-5.681,-5.681,-5.681,-5.681,-5.681,-5.681,-5.681,-5.681,-5.681,-5.681,-5.681,-5.681,-5.681,-5.681,-5.681,-5.681,-5.681,-5.681,-6.9268,-6.9798,-6.9798,-6.9798,-6.9798,-6.9798,-6.9798,-6.9798,-6.9798,-6.9798,-6.9798,-6.9798,-6.9798,-6.9798,-6.9798,-6.9798,-6.9798,-6.9798,-6.9798,-6.9798,-6.9798,-6.9798,-6.9798,-6.9798,-6.9798,-6.9798,-6.9798,-6.9798,-6.9798,-6.9751,-6.9574,-6.9285,-6.8847,-6.8501,-6.8301,-6.8201,-6.8201,-6.8169,-6.7683,-6.7132,-6.6614,-6.6582,-6.6582,-6.6582,-6.642,-6.6355,-6.6323,-6.5643,-6.5141,-6.498,-6.4509,-6.4153,-6.4024,-6.4024,-6.4024,-6.4024,-6.4024,-6.4024,-6.4024,-6.4024,-6.4024,-6.4024,-6.4024,-6.3764,-6.3182,-6.2631,-6.21,-6.1863,-6.2312,-6.2173,-6.1146,-6.1493,-6.131,-5.9968,-5.9848,-5.9979,-5.976,-5.9673,-5.9673,-5.9673,-5.9673,-5.9716,-5.9673,-5.9673,-5.9584,-5.9229,-5.861,-5.8072,-5.77,-5.7543,-5.7163,-5.6954,-5.681,-5.681,-5.681,-5.681,-5.681,-5.681,-5.681,-5.681,-5.681,-5.681,-5.681,-5.681,-5.681,-5.681,-5.681,-5.681,-5.681,-5.681,-5.681,-5.681,-5.681,-5.681,-5.681,-6.9732,-6.9798,-6.9798,-6.9798,-6.9798,-6.9798,-6.9798,-6.9798,-6.9798,-6.9798,-6.9798,-6.9798,-6.9798,-6.9798,-6.9798,-6.9798,-6.9798,-6.9798,-6.9798,-6.9798,-6.9798,-6.9798,-6.9798,-6.9798,-6.9798,-6.9798,-6.9798,-6.9798,-6.9751,-6.9559,-6.9285,-6.9042,-6.8748,-6.86,-6.855,-6.8301,-6.8201,-6.8201,-6.8136,-6.8072,-6.8007,-6.8007,-6.8007,-6.8007,-6.7392,-6.7068,-6.7068,-6.6388,-6.5708,-6.5092,-6.4915,-6.4671,-6.4121,-6.4024,-6.4024,-6.4024,-6.4024,-6.4024,-6.4024,-6.4024,-6.4024,-6.4024,-6.4024,-6.3991,-6.3894,-6.3829,-6.3214,-6.2308,-6.2453,-6.2213,-6.1052,-6.1886,-6.1748,-6.0098,-6.0228,-6.0378,-5.9848,-5.9673,-5.9673,-5.9673,-5.9673,-5.9673,-5.9673,-5.9628,-5.9584,-5.9363,-5.8564,-5.8026,-5.7887,-5.7353,-5.6954,-5.681,-5.681,-5.681,-5.681,-5.681,-5.681,-5.681,-5.681,-5.681,-5.681,-5.681,-5.681,-5.681,-5.681,-5.681,-5.681,-5.681,-5.681,-5.681,-5.681,-5.681,-5.681,-5.681,-5.681,-6.9798,-6.9798,-6.9798,-6.9798,-6.9798,-6.9798,-6.9798,-6.9798,-6.9798,-6.9798,-6.9798,-6.9798,-6.9798,-6.9798,-6.9798,-6.9798,-6.9798,-6.9798,-6.9798,-6.9798,-6.9798,-6.9798,-6.9798,-6.9798,-6.9798,-6.9798,-6.9798,-6.9751,-6.9478,-6.9173,-6.8847,-6.8748,-6.8501,-6.8351,-6.8351,-6.8251,-6.8201,-6.8201,-6.8201,-6.8201,-6.8201,-6.8201,-6.8201,-6.8169,-6.791,-6.778,-6.7715,-6.71,-6.6614,-6.6258,-6.5513,-6.4898,-6.4639,-6.4171,-6.4024,-6.4024,-6.4024,-6.4024,-6.4024,-6.4024,-6.4024,-6.4024,-6.4024,-6.4024,-6.4024,-6.4024,-6.3732,-6.3307,-6.3302,-6.2912,-6.1678,-6.2224,-6.2134,-6.0715,-6.0629,-6.0511,-5.9793,-5.9673,-5.9673,-5.9673,-5.9673,-5.9673,-5.9584,-5.9152,-5.8714,-5.8427,-5.7825,-5.7511,-5.7353,-5.705,-5.6858,-5.681,-5.681,-5.681,-5.681,-5.681,-5.681,-5.681,-5.681,-5.681,-5.681,-5.681,-5.681,-5.681,-5.681,-5.681,-5.681,-5.681,-5.681,-5.681,-5.681,-5.681,-5.681,-5.681,-5.681,-6.9798,-6.9798,-6.9798,-6.9798,-6.9798,-6.9798,-6.9798,-6.9798,-6.9798,-6.9798,-6.9798,-6.9798,-6.9798,-6.9798,-6.9798,-6.9798,-6.9798,-6.9798,-6.9798,-6.9798,-6.9798,-6.9798,-6.9798,-6.9798,-6.9798,-6.9798,-6.9703,-6.9511,-6.9188,-6.8797,-6.855,-6.8501,-6.8301,-6.8201,-6.8201,-6.8201,-6.8201,-6.8201,-6.8201,-6.8201,-6.8201,-6.8201,-6.8201,-6.8201,-6.8201,-6.8201,-6.8169,-6.7715,-6.7359,-6.7165,-6.6161,-6.5368,-6.5027,-6.4542,-6.4218,-6.4024,-6.4024,-6.4024,-6.4024,-6.4024,-6.4024,-6.4024,-6.4024,-6.4024,-6.4024,-6.4024,-6.4024,-6.3926,-6.3936,-6.3395,-6.2393,-6.2534,-6.2285,-6.1219,-6.1077,-6.0785,-6.0137,-6.0008,-5.9943,-5.9749,-5.9673,-5.9673,-5.9628,-5.9152,-5.8624,-5.8335,-5.7825,-5.7306,-5.7163,-5.7146,-5.7002,-5.681,-5.681,-5.681,-5.681,-5.681,-5.681,-5.681,-5.681,-5.681,-5.681,-5.681,-5.681,-5.681,-5.681,-5.681,-5.681,-5.681,-5.681,-5.681,-5.681,-5.681,-5.681,-5.681,-5.681,-6.9798,-6.9798,-6.9798,-6.9798,-6.9798,-6.9798,-6.9798,-6.9798,-6.9798,-6.9798,-6.9798,-6.9798,-6.9798,-6.9798,-6.9798,-6.9798,-6.9798,-6.9798,-6.9798,-6.9798,-6.9798,-6.9798,-6.9798,-6.9798,-6.9798,-6.9798,-6.9559,-6.9188,-6.8699,-6.86,-6.8451,-6.8251,-6.8201,-6.8201,-6.8201,-6.8201,-6.8201,-6.8201,-6.8201,-6.8201,-6.8201,-6.8201,-6.8201,-6.8201,-6.8201,-6.8201,-6.8201,-6.8169,-6.7845,-6.723,-6.7068,-6.6452,-6.5254,-6.4995,-6.4671,-6.4121,-6.4024,-6.4024,-6.4024,-6.4024,-6.4024,-6.4024,-6.4024,-6.4024,-6.4024,-6.4024,-6.4024,-6.4024,-6.3973,-6.3617,-6.3034,-6.295,-6.2672,-6.1932,-6.1757,-6.1433,-6.0818,-6.0688,-6.0397,-5.9943,-5.9749,-5.9673,-5.9673,-5.9673,-5.9452,-5.9274,-5.9049,-5.8518,-5.8011,-5.7653,-5.7258,-5.6906,-5.681,-5.681,-5.681,-5.681,-5.681,-5.681,-5.681,-5.681,-5.681,-5.681,-5.681,-5.681,-5.681,-5.681,-5.681,-5.681,-5.681,-5.681,-5.681,-5.681,-5.681,-5.681,-5.681,-6.9798,-6.9798,-6.9798,-6.9798,-6.9798,-6.9798,-6.9798,-6.9798,-6.9798,-6.9798,-6.9798,-6.9798,-6.9798,-6.9798,-6.9798,-6.9798,-6.9798,-6.9798,-6.9798,-6.9798,-6.9798,-6.9798,-6.9798,-6.9798,-6.9798,-6.9751,-6.9478,-6.914,-6.8649,-6.8451,-6.8301,-6.8251,-6.8201,-6.8201,-6.8201,-6.8201,-6.8201,-6.8201,-6.8201,-6.8201,-6.8201,-6.8201,-6.8201,-6.8201,-6.8201,-6.8201,-6.8201,-6.8201,-6.8072,-6.7845,-6.7424,-6.6971,-6.6388,-6.5513,-6.4688,-6.4121,-6.4024,-6.4024,-6.4024,-6.4024,-6.4024,-6.4024,-6.4024,-6.4024,-6.4024,-6.4024,-6.4024,-6.4024,-6.4024,-6.3829,-6.3732,-6.3603,-6.3311,-6.2663,-6.2469,-6.221,-6.1562,-6.1077,-6.0688,-6.0397,-6.004,-5.9584,-5.9504,-5.9274,-5.9107,-5.8792,-5.8381,-5.8058,-5.7778,-5.7353,-5.7019,-5.6858,-5.681,-5.681,-5.681,-5.681,-5.681,-5.681,-5.681,-5.681,-5.681,-5.681,-5.681,-5.681,-5.681,-5.681,-5.681,-5.681,-5.681,-5.681,-5.681,-5.681,-5.681,-5.681,-5.681,-6.9798,-6.9798,-6.9798,-6.9798,-6.9798,-6.9798,-6.9798,-6.9798,-6.9798,-6.9798,-6.9798,-6.9798,-6.9798,-6.9798,-6.9798,-6.9798,-6.9798,-6.9798,-6.9798,-6.9798,-6.9798,-6.9798,-6.9798,-6.9798,-6.9751,-6.9574,-6.9285,-6.8896,-6.8501,-6.8301,-6.8201,-6.8201,-6.8201,-6.8201,-6.8201,-6.8201,-6.8201,-6.8201,-6.8201,-6.8201,-6.8201,-6.8201,-6.8201,-6.8201,-6.8201,-6.8201,-6.8201,-6.8201,-6.8201,-6.8136,-6.7748,-6.7424,-6.71,-6.5805,-6.4785,-6.4412,-6.4121,-6.4024,-6.4024,-6.4024,-6.4024,-6.4024,-6.4024,-6.4024,-6.4024,-6.4024,-6.4024,-6.4024,-6.4024,-6.4024,-6.4024,-6.3991,-6.3797,-6.3344,-6.3246,-6.2955,-6.2242,-6.1757,-6.1433,-6.1109,-6.0753,-6.0283,-5.9962,-5.9756,-5.9402,-5.8836,-5.8354,-5.7918,-5.7543,-5.7258,-5.6954,-5.681,-5.681,-5.681,-5.681,-5.681,-5.681,-5.681,-5.681,-5.681,-5.681,-5.681,-5.681,-5.681,-5.681,-5.681,-5.681,-5.681,-5.681,-5.681,-5.681,-5.681,-5.681,-5.681,-5.681,-6.9798,-6.9798,-6.9798,-6.9798,-6.9798,-6.9798,-6.9798,-6.9798,-6.9798,-6.9798,-6.9798,-6.9798,-6.9798,-6.9798,-6.9798,-6.9798,-6.9798,-6.9798,-6.9798,-6.9798,-6.9798,-6.9798,-6.9751,-6.9751,-6.9607,-6.9334,-6.8847,-6.8501,-6.8251,-6.8201,-6.8201,-6.8201,-6.8201,-6.8201,-6.8201,-6.8201,-6.8201,-6.8201,-6.8201,-6.8201,-6.8201,-6.8201,-6.8201,-6.8201,-6.8201,-6.8201,-6.8201,-6.8201,-6.8201,-6.8201,-6.8169,-6.7845,-6.71,-6.5869,-6.5027,-6.485,-6.4332,-6.4056,-6.4024,-6.4024,-6.4024,-6.4024,-6.4024,-6.4024,-6.4024,-6.4024,-6.4024,-6.4024,-6.4024,-6.4024,-6.4024,-6.4024,-6.3991,-6.3991,-6.3894,-6.357,-6.3084,-6.2858,-6.2566,-6.1886,-6.1595,-6.1757,-6.1627,-6.1084,-6.047,-5.9978,-5.9352,-5.8634,-5.7825,-5.7509,-5.7273,-5.6954,-5.681,-5.681,-5.681,-5.681,-5.681,-5.681,-5.681,-5.681,-5.681,-5.681,-5.681,-5.681,-5.681,-5.681,-5.681,-5.681,-5.681,-5.681,-5.681,-5.681,-5.681,-5.681,-5.681,-6.9798,-6.9798,-6.9798,-6.9798,-6.9798,-6.9798,-6.9798,-6.9798,-6.9798,-6.9798,-6.9798,-6.9798,-6.9798,-6.9798,-6.9798,-6.9798,-6.9798,-6.9798,-6.9798,-6.9798,-6.9798,-6.967,-6.9526,-6.9478,-6.9318,-6.8896,-6.8699,-6.8451,-6.8251,-6.8201,-6.8201,-6.8201,-6.8201,-6.8201,-6.8201,-6.8201,-6.8201,-6.8201,-6.8201,-6.8201,-6.8201,-6.8201,-6.8201,-6.8201,-6.8201,-6.8201,-6.8201,-6.8201,-6.8201,-6.8201,-6.8201,-6.7877,-6.7165,-6.629,-6.5546,-6.498,-6.438,-6.4024,-6.4024,-6.4024,-6.4024,-6.4024,-6.4024,-6.4024,-6.4024,-6.4024,-6.4024,-6.4024,-6.4024,-6.4024,-6.4024,-6.4024,-6.4024,-6.4024,-6.4024,-6.3926,-6.3603,-6.3214,-6.2566,-6.1951,-6.1789,-6.1789,-6.1789,-6.153,-6.1316,-6.0857,-6.0244,-5.9475,-5.8498,-5.7973,-5.7483,-5.6964,-5.6902,-5.684,-5.681,-5.681,-5.681,-5.681,-5.681,-5.681,-5.681,-5.681,-5.681,-5.681,-5.681,-5.681,-5.681,-5.681,-5.681,-5.681,-5.681,-5.681,-5.681,-5.681,-5.681,-6.9798,-6.9798,-6.9798,-6.9798,-6.9798,-6.9798,-6.9798,-6.9798,-6.9798,-6.9798,-6.9798,-6.9798,-6.9798,-6.9798,-6.9798,-6.9751,-6.9655,-6.9655,-6.9607,-6.9526,-6.9655,-6.9511,-6.9237,-6.914,-6.8945,-6.8649,-6.8501,-6.8351,-6.8201,-6.8201,-6.8201,-6.8201,-6.8201,-6.8201,-6.8201,-6.8201,-6.8201,-6.8201,-6.8201,-6.8201,-6.8201,-6.8201,-6.8201,-6.8201,-6.8201,-6.8201,-6.8201,-6.8201,-6.8201,-6.8201,-6.8201,-6.7974,-6.7553,-6.6647,-6.5902,-6.5384,-6.4574,-6.4024,-6.4024,-6.4024,-6.4024,-6.4024,-6.4024,-6.4024,-6.4024,-6.4024,-6.4024,-6.4024,-6.4024,-6.4024,-6.4024,-6.4024,-6.4024,-6.4024,-6.4024,-6.4024,-6.3926,-6.3603,-6.3214,-6.2793,-6.2696,-6.2631,-6.2599,-6.2307,-6.2059,-6.1562,-6.0978,-6.0234,-5.9234,-5.8656,-5.8089,-5.7523,-5.7303,-5.7148,-5.6871,-5.681,-5.681,-5.681,-5.681,-5.681,-5.681,-5.681,-5.681,-5.681,-5.681,-5.681,-5.681,-5.681,-5.681,-5.681,-5.681,-5.681,-5.681,-5.681,-5.681,-6.9798,-6.9798,-6.9798,-6.9798,-6.9798,-6.9798,-6.9798,-6.9798,-6.9798,-6.9798,-6.9798,-6.9798,-6.9798,-6.9798,-6.9751,-6.9655,-6.9463,-6.9415,-6.9237,-6.914,-6.9188,-6.9188,-6.8994,-6.8748,-6.86,-6.8501,-6.8351,-6.8251,-6.8201,-6.8201,-6.8201,-6.8201,-6.8201,-6.8201,-6.8201,-6.8201,-6.8201,-6.8201,-6.8201,-6.8201,-6.8201,-6.8201,-6.8201,-6.8201,-6.8201,-6.8201,-6.8201,-6.8201,-6.8201,-6.8201,-6.8201,-6.8169,-6.7942,-6.6873,-6.6096,-6.5934,-6.4768,-6.4153,-6.4024,-6.4024,-6.4024,-6.4024,-6.4024,-6.4024,-6.4024,-6.4024,-6.4024,-6.4024,-6.4024,-6.4024,-6.4024,-6.4024,-6.4024,-6.4024,-6.4024,-6.4024,-6.4024,-6.3959,-6.3829,-6.3862,-6.3991,-6.3959,-6.3764,-6.3279,-6.2819,-6.2297,-6.1724,-6.0963,-6.0086,-5.9572,-5.9047,-5.8541,-5.8035,-5.758,-5.7333,-5.7179,-5.7148,-5.681,-5.681,-5.681,-5.681,-5.681,-5.681,-5.681,-5.681,-5.681,-5.681,-5.681,-5.681,-5.681,-5.681,-5.681,-5.681,-5.681,-5.681,-6.9798,-6.9798,-6.9798,-6.9798,-6.9798,-6.9798,-6.9798,-6.9798,-6.9798,-6.9798,-6.9798,-6.9798,-6.9798,-6.9798,-6.9574,-6.943,-6.9334,-6.9188,-6.8945,-6.8748,-6.8748,-6.8797,-6.8649,-6.8451,-6.8301,-6.8301,-6.8251,-6.8201,-6.8201,-6.8201,-6.8201,-6.8201,-6.8201,-6.8201,-6.8201,-6.8201,-6.8201,-6.8201,-6.8201,-6.8201,-6.8201,-6.8201,-6.8201,-6.8201,-6.8201,-6.8201,-6.8201,-6.8201,-6.8201,-6.8201,-6.8201,-6.8201,-6.8072,-6.6906,-6.6096,-6.5902,-6.4833,-6.4024,-6.4024,-6.4024,-6.4024,-6.4024,-6.4024,-6.4024,-6.4024,-6.4024,-6.4024,-6.4024,-6.4024,-6.4024,-6.4024,-6.4024,-6.4024,-6.4024,-6.4024,-6.4024,-6.4024,-6.4024,-6.4024,-6.4024,-6.4024,-6.4024,-6.3959,-6.3815,-6.3447,-6.3003,-6.2668,-6.2141,-6.1165,-6.0568,-6.0054,-5.9389,-5.882,-5.8233,-5.7857,-5.7672,-5.7395,-5.6933,-5.681,-5.681,-5.681,-5.681,-5.681,-5.681,-5.681,-5.681,-5.681,-5.681,-5.681,-5.681,-5.681,-5.681,-5.681,-5.681,-5.681,-6.9798,-6.9798,-6.9798,-6.9798,-6.9798,-6.9798,-6.9798,-6.9798,-6.9798,-6.9751,-6.9655,-6.9655,-6.9607,-6.9463,-6.9285,-6.914,-6.9042,-6.8896,-6.8699,-6.8451,-6.8451,-6.8451,-6.8401,-6.8251,-6.8201,-6.8201,-6.8201,-6.8201,-6.8201,-6.8201,-6.8201,-6.8201,-6.8201,-6.8201,-6.8201,-6.8201,-6.8201,-6.8201,-6.8201,-6.8201,-6.8201,-6.8201,-6.8201,-6.8201,-6.8201,-6.8201,-6.8201,-6.8201,-6.8201,-6.8201,-6.8201,-6.8201,-6.8072,-6.6873,-6.6129,-6.6064,-6.4801,-6.4024,-6.4024,-6.4024,-6.4024,-6.4024,-6.4024,-6.4024,-6.4024,-6.4024,-6.4024,-6.4024,-6.4024,-6.4024,-6.4024,-6.4024,-6.4024,-6.4024,-6.4024,-6.4024,-6.4024,-6.4024,-6.4024,-6.4024,-6.4024,-6.4024,-6.4024,-6.3976,-6.385,-6.3628,-6.3516,-6.2828,-6.2024,-6.1536,-6.0921,-6.0123,-5.9501,-5.8974,-5.83,-5.8023,-5.7672,-5.721,-5.681,-5.681,-5.681,-5.681,-5.681,-5.681,-5.681,-5.681,-5.681,-5.681,-5.681,-5.681,-5.681,-5.681,-5.681,-5.681,-5.681,-6.9798,-6.9798,-6.9798,-6.9798,-6.9798,-6.9798,-6.9798,-6.9798,-6.9751,-6.9574,-6.943,-6.9382,-6.9237,-6.8994,-6.8994,-6.8847,-6.8649,-6.86,-6.8451,-6.8301,-6.8251,-6.8251,-6.8251,-6.8251,-6.8201,-6.8201,-6.8201,-6.8201,-6.8201,-6.8201,-6.8201,-6.8201,-6.8201,-6.8201,-6.8201,-6.8201,-6.8201,-6.8201,-6.8201,-6.8201,-6.8201,-6.8201,-6.8201,-6.8201,-6.8201,-6.8201,-6.8201,-6.8201,-6.8201,-6.8201,-6.8201,-6.8201,-6.8007,-6.6873,-6.6193,-6.5837,-6.4866,-6.4024,-6.4024,-6.4024,-6.4024,-6.4024,-6.4024,-6.4024,-6.4024,-6.4024,-6.4024,-6.4024,-6.4024,-6.4024,-6.4024,-6.4024,-6.4024,-6.4024,-6.4024,-6.4024,-6.4024,-6.4024,-6.4024,-6.4024,-6.4024,-6.4024,-6.3976,-6.3976,-6.3882,-6.3484,-6.3437,-6.2907,-6.2291,-6.1883,-6.1215,-6.0482,-6.0032,-5.9644,-5.8978,-5.8362,-5.7949,-5.7457,-5.6994,-5.681,-5.681,-5.681,-5.681,-5.681,-5.681,-5.681,-5.681,-5.681,-5.681,-5.681,-5.681,-5.681,-5.681,-5.681,-5.681,-6.9798,-6.9798,-6.9798,-6.9798,-6.9798,-6.9798,-6.9798,-6.9798,-6.9607,-6.943,-6.9367,-6.9188,-6.9042,-6.8977,-6.8748,-6.8649,-6.855,-6.8401,-6.8251,-6.8251,-6.8201,-6.8201,-6.8201,-6.8201,-6.8201,-6.8201,-6.8201,-6.8201,-6.8201,-6.8201,-6.8201,-6.8201,-6.8201,-6.8201,-6.8201,-6.8201,-6.8201,-6.8201,-6.8201,-6.8201,-6.8201,-6.8201,-6.8201,-6.8201,-6.8201,-6.8201,-6.8201,-6.8201,-6.8201,-6.8201,-6.8201,-6.8201,-6.7877,-6.6841,-6.6129,-6.574,-6.4801,-6.4024,-6.4024,-6.4024,-6.4024,-6.4024,-6.4024,-6.4024,-6.4024,-6.4024,-6.4024,-6.4024,-6.4024,-6.4024,-6.4024,-6.4024,-6.4024,-6.4024,-6.4024,-6.4024,-6.4024,-6.4024,-6.4024,-6.4024,-6.4024,-6.4024,-6.3976,-6.358,-6.3484,-6.3341,-6.3099,-6.2678,-6.2383,-6.2035,-6.1445,-6.069,-6.0455,-6.0116,-5.9624,-5.8854,-5.8116,-5.7641,-5.7118,-5.681,-5.681,-5.681,-5.681,-5.681,-5.681,-5.681,-5.681,-5.681,-5.681,-5.681,-5.681,-5.681,-5.681,-5.681,-5.681,-6.9798,-6.9798,-6.9798,-6.9798,-6.9798,-6.9798,-6.9751,-6.9607,-6.9511,-6.9237,-6.9042,-6.8847,-6.8748,-6.8649,-6.8501,-6.8401,-6.8401,-6.8301,-6.8201,-6.8201,-6.8201,-6.8201,-6.8201,-6.8201,-6.8201,-6.8201,-6.8201,-6.8201,-6.8201,-6.8201,-6.8201,-6.8201,-6.8201,-6.8201,-6.8201,-6.8201,-6.8201,-6.8201,-6.8201,-6.8201,-6.8201,-6.8201,-6.8201,-6.8201,-6.8201,-6.8201,-6.8201,-6.8201,-6.8201,-6.8201,-6.8201,-6.8039,-6.7651,-6.6711,-6.6031,-6.5448,-6.4671,-6.4056,-6.4024,-6.4024,-6.4024,-6.4024,-6.4024,-6.4024,-6.4024,-6.4024,-6.4024,-6.4024,-6.4024,-6.4024,-6.4024,-6.4024,-6.4024,-6.4024,-6.4024,-6.4024,-6.4024,-6.4024,-6.4024,-6.4024,-6.4024,-6.4024,-6.3802,-6.3437,-6.3244,-6.3244,-6.2776,-6.2383,-6.2035,-6.1734,-6.1481,-6.1031,-6.0887,-6.0547,-6.0147,-5.9408,-5.8362,-5.7765,-5.7179,-5.6933,-5.681,-5.681,-5.681,-5.681,-5.681,-5.681,-5.681,-5.681,-5.681,-5.681,-5.681,-5.681,-5.681,-5.681,-5.681,-6.9798,-6.9798,-6.9798,-6.9798,-6.9798,-6.9798,-6.9622,-6.9463,-6.9334,-6.9042,-6.8649,-6.855,-6.8451,-6.8251,-6.8251,-6.8201,-6.8201,-6.8201,-6.8201,-6.8201,-6.8201,-6.8201,-6.8201,-6.8201,-6.8201,-6.8201,-6.8201,-6.8201,-6.8201,-6.8201,-6.8201,-6.8201,-6.8201,-6.8201,-6.8201,-6.8201,-6.8201,-6.8201,-6.8201,-6.8201,-6.8201,-6.8201,-6.8201,-6.8201,-6.8201,-6.8201,-6.8201,-6.8201,-6.8201,-6.8201,-6.8201,-6.7845,-6.7197,-6.6517,-6.5869,-6.5222,-6.4509,-6.4088,-6.4024,-6.4024,-6.4024,-6.4024,-6.4024,-6.4024,-6.4024,-6.4024,-6.4024,-6.4024,-6.4024,-6.4024,-6.4024,-6.4024,-6.4024,-6.4024,-6.4024,-6.4024,-6.4024,-6.4024,-6.4024,-6.4024,-6.4024,-6.4024,-6.3755,-6.3437,-6.3244,-6.2971,-6.2531,-6.2085,-6.1683,-6.143,-6.1175,-6.1072,-6.0897,-6.0517,-6.0116,-5.9501,-5.8516,-5.7919,-5.7272,-5.6964,-5.681,-5.681,-5.681,-5.681,-5.681,-5.681,-5.681,-5.681,-5.681,-5.681,-5.681,-5.681,-5.681,-5.681,-5.681,-6.9798,-6.9798,-6.9798,-6.9798,-6.9798,-6.9798,-6.9622,-6.9382,-6.914,-6.8896,-6.86,-6.8401,-6.8251,-6.8201,-6.8201,-6.8201,-6.8201,-6.8201,-6.8201,-6.8201,-6.8201,-6.8201,-6.8201,-6.8201,-6.8201,-6.8201,-6.8201,-6.8201,-6.8201,-6.8201,-6.8201,-6.8201,-6.8201,-6.8201,-6.8201,-6.8201,-6.8201,-6.8201,-6.8201,-6.8201,-6.8201,-6.8201,-6.8201,-6.8201,-6.8201,-6.8201,-6.8201,-6.8201,-6.8201,-6.8201,-6.8201,-6.7845,-6.7294,-6.6582,-6.6096,-6.5578,-6.4704,-6.4121,-6.4024,-6.4024,-6.4024,-6.4024,-6.4024,-6.4024,-6.4024,-6.4024,-6.4024,-6.4024,-6.4024,-6.4024,-6.4024,-6.4024,-6.4024,-6.4024,-6.4024,-6.4024,-6.4024,-6.4024,-6.4024,-6.4024,-6.4024,-6.3976,-6.3755,-6.3389,-6.2971,-6.258,-6.2035,-6.1633,-6.1226,-6.1052,-6.0949,-6.0897,-6.0845,-6.0393,-5.9963,-5.9316,-5.8547,-5.8011,-5.7426,-5.6933,-5.681,-5.681,-5.681,-5.681,-5.681,-5.681,-5.681,-5.681,-5.681,-5.681,-5.681,-5.681,-5.681,-5.681,-5.681,-6.9798,-6.9798,-6.9798,-6.9751,-6.9574,-6.9607,-6.9334,-6.8994,-6.8847,-6.8649,-6.8401,-6.8251,-6.8201,-6.8201,-6.8201,-6.8201,-6.8201,-6.8201,-6.8201,-6.8201,-6.8201,-6.8201,-6.8201,-6.8201,-6.8201,-6.8201,-6.8201,-6.8201,-6.8201,-6.8201,-6.8201,-6.8201,-6.8201,-6.8201,-6.8201,-6.8201,-6.8201,-6.8201,-6.8201,-6.8201,-6.8201,-6.8201,-6.8201,-6.8201,-6.8201,-6.8201,-6.8201,-6.8201,-6.8201,-6.8201,-6.8201,-6.8007,-6.7618,-6.7035,-6.6323,-6.5643,-6.493,-6.4347,-6.4088,-6.4024,-6.4024,-6.4024,-6.4024,-6.4024,-6.4024,-6.4024,-6.4024,-6.4024,-6.4024,-6.4024,-6.4024,-6.4024,-6.4024,-6.4024,-6.4024,-6.4024,-6.4024,-6.4024,-6.4024,-6.4024,-6.4024,-6.3976,-6.385,-6.3437,-6.2825,-6.2234,-6.1633,-6.1257,-6.0845,-6.0794,-6.0794,-6.0794,-6.0794,-6.0609,-6.0055,-5.9316,-5.8762,-5.8227,-5.7487,-5.6994,-5.681,-5.681,-5.681,-5.681,-5.681,-5.681,-5.681,-5.681,-5.681,-5.681,-5.681,-5.681,-5.681,-5.681,-5.681,-6.9751,-6.9798,-6.9751,-6.9607,-6.9382,-6.9334,-6.9042,-6.8649,-6.86,-6.8451,-6.8251,-6.8201,-6.8201,-6.8201,-6.8201,-6.8201,-6.8201,-6.8201,-6.8201,-6.8201,-6.8201,-6.8201,-6.8201,-6.8201,-6.8201,-6.8201,-6.8201,-6.8201,-6.8201,-6.8201,-6.8201,-6.8201,-6.8201,-6.8201,-6.8201,-6.8201,-6.8201,-6.8201,-6.8201,-6.8201,-6.8201,-6.8201,-6.8201,-6.8201,-6.8201,-6.8201,-6.8201,-6.8201,-6.8201,-6.8201,-6.8201,-6.8201,-6.8104,-6.7683,-6.6776,-6.5708,-6.5174,-6.4736,-6.4412,-6.4024,-6.4024,-6.4024,-6.4024,-6.4024,-6.4024,-6.4024,-6.4024,-6.4024,-6.4024,-6.4024,-6.4024,-6.4024,-6.4024,-6.4024,-6.4024,-6.4024,-6.4024,-6.4024,-6.4024,-6.4024,-6.4024,-6.3976,-6.3929,-6.3484,-6.2922,-6.2383,-6.1784,-6.1308,-6.0949,-6.0794,-6.0794,-6.0794,-6.0794,-6.0794,-6.027,-5.9408,-5.8947,-5.8577,-5.7672,-5.6871,-5.681,-5.681,-5.681,-5.681,-5.681,-5.681,-5.681,-5.681,-5.681,-5.681,-5.681,-5.681,-5.681,-5.681,-5.681,-6.9607,-6.9798,-6.9526,-6.943,-6.9334,-6.9173,-6.8896,-6.86,-6.86,-6.8451,-6.8201,-6.8201,-6.8201,-6.8136,-6.8136,-6.8169,-6.8104,-6.8007,-6.7942,-6.791,-6.7974,-6.8007,-6.8169,-6.8201,-6.8169,-6.8169,-6.8201,-6.8201,-6.8201,-6.8201,-6.8201,-6.8201,-6.8201,-6.8201,-6.8201,-6.8201,-6.8201,-6.8201,-6.8201,-6.8201,-6.8201,-6.8201,-6.8201,-6.8201,-6.8201,-6.8201,-6.8201,-6.8201,-6.8201,-6.8201,-6.8201,-6.8201,-6.8169,-6.8169,-6.7683,-6.6809,-6.5869,-6.4947,-6.4753,-6.4412,-6.4056,-6.4056,-6.4024,-6.4024,-6.4024,-6.4024,-6.4024,-6.4024,-6.4024,-6.4024,-6.4024,-6.4024,-6.4024,-6.4024,-6.4024,-6.4024,-6.4024,-6.4024,-6.4024,-6.4024,-6.4024,-6.4024,-6.3976,-6.3484,-6.3019,-6.2481,-6.1935,-6.1461,-6.1,-6.0897,-6.0794,-6.0794,-6.0794,-6.0794,-6.0424,-5.9562,-5.9039,-5.8793,-5.7826,-5.684,-5.681,-5.681,-5.681,-5.681,-5.681,-5.681,-5.681,-5.681,-5.681,-5.681,-5.681,-5.681,-5.681,-5.681,-5.681,-6.9091,-6.9334,-6.9237,-6.9091,-6.8945,-6.8847,-6.86,-6.8401,-6.8401,-6.8301,-6.8201,-6.8201,-6.8007,-6.7683,-6.7618,-6.7392,-6.71,-6.7068,-6.7035,-6.7068,-6.71,-6.7262,-6.7521,-6.7651,-6.7748,-6.8169,-6.8201,-6.8201,-6.8201,-6.8201,-6.8201,-6.8201,-6.8201,-6.8201,-6.8201,-6.8201,-6.8201,-6.8201,-6.8201,-6.8201,-6.8201,-6.8201,-6.8201,-6.8201,-6.8201,-6.8201,-6.8201,-6.8201,-6.8201,-6.8201,-6.8201,-6.8201,-6.8201,-6.8169,-6.8007,-6.7748,-6.6841,-6.5934,-6.5157,-6.4768,-6.4412,-6.4088,-6.4024,-6.4024,-6.4024,-6.4024,-6.4024,-6.4024,-6.4024,-6.4024,-6.4024,-6.4024,-6.4024,-6.4024,-6.4024,-6.3976,-6.3976,-6.3976,-6.4024,-6.4024,-6.3976,-6.3802,-6.3755,-6.3564,-6.3099,-6.2481,-6.2035,-6.1633,-6.1155,-6.0845,-6.0794,-6.0794,-6.0794,-6.0794,-6.0332,-5.9686,-5.9008,-5.8627,-5.7672,-5.6933,-5.684,-5.681,-5.681,-5.681,-5.681,-5.681,-5.681,-5.681,-5.681,-5.681,-5.681,-5.681,-5.681,-5.681,-5.681,-6.8128,-6.8307,-6.8716,-6.8699,-6.8339,-6.829,-6.8011,-6.7651,-6.7618,-6.7651,-6.7683,-6.7618,-6.7327,-6.7003,-6.6873,-6.6679,-6.6193,-6.6096,-6.6096,-6.6096,-6.6193,-6.6614,-6.7068,-6.7262,-6.7586,-6.8201,-6.8201,-6.8201,-6.8201,-6.8201,-6.8201,-6.8201,-6.8201,-6.8201,-6.8201,-6.8201,-6.8201,-6.8201,-6.8201,-6.8201,-6.8201,-6.8201,-6.8201,-6.8201,-6.8201,-6.8201,-6.8201,-6.8201,-6.8201,-6.8201,-6.8201,-6.8201,-6.8201,-6.8201,-6.8169,-6.8007,-6.7521,-6.6873,-6.5934,-6.5287,-6.4704,-6.425,-6.4024,-6.4024,-6.4024,-6.4024,-6.4024,-6.4024,-6.4024,-6.4024,-6.4024,-6.4024,-6.4024,-6.4024,-6.4024,-6.3929,-6.3802,-6.3707,-6.3517,-6.3293,-6.3244,-6.3389,-6.3341,-6.3469,-6.3148,-6.2531,-6.2135,-6.1734,-6.1277,-6.0845,-6.0794,-6.0794,-6.0794,-6.0671,-6.0116,-5.9624,-5.9039,-5.8412,-5.7457,-5.6964,-5.684,-5.681,-5.681,-5.681,-5.681,-5.681,-5.681,-5.681,-5.681,-5.681,-5.681,-5.681,-5.681,-5.681,-5.681,-6.6274,-6.6404,-6.7997,-6.8226,-6.7655,-6.741,-6.6923,-6.6452,-6.6355,-6.6388,-6.6452,-6.6323,-6.6388,-6.6193,-6.6161,-6.6096,-6.6031,-6.6096,-6.5934,-6.5934,-6.6129,-6.6323,-6.6711,-6.7035,-6.7424,-6.8039,-6.8169,-6.8201,-6.8201,-6.8201,-6.8201,-6.8201,-6.8201,-6.8201,-6.8201,-6.8201,-6.8201,-6.8201,-6.8201,-6.8201,-6.8201,-6.8201,-6.8201,-6.8201,-6.8201,-6.8201,-6.8201,-6.8201,-6.8201,-6.8201,-6.8201,-6.8201,-6.8201,-6.8201,-6.8201,-6.8136,-6.8104,-6.7489,-6.6744,-6.5708,-6.4768,-6.4283,-6.4024,-6.4024,-6.4024,-6.4024,-6.4024,-6.4024,-6.4024,-6.4024,-6.4024,-6.4024,-6.3976,-6.385,-6.3755,-6.3564,-6.3389,-6.3244,-6.3019,-6.2629,-6.2629,-6.2825,-6.2776,-6.2856,-6.2759,-6.2184,-6.1734,-6.1379,-6.1124,-6.0794,-6.0794,-6.0794,-6.0794,-6.0517,-5.9901,-5.9347,-5.8793,-5.8165,-5.7364,-5.6994,-5.684,-5.681,-5.681,-5.681,-5.681,-5.681,-5.681,-5.681,-5.681,-5.681,-5.681,-5.681,-5.681,-5.681,-5.681,-6.6096,-6.621,-6.7262,-6.7327,-6.6664,-6.6566,-6.6355,-6.6129,-6.6096,-6.6096,-6.6064,-6.6096,-6.5869,-6.5546,-6.5416,-6.5189,-6.4866,-6.4833,-6.4866,-6.4833,-6.4898,-6.5254,-6.574,-6.6452,-6.6873,-6.7553,-6.7942,-6.8201,-6.8201,-6.8201,-6.8201,-6.8201,-6.8201,-6.8201,-6.8201,-6.8201,-6.8201,-6.8201,-6.8201,-6.8201,-6.8201,-6.8201,-6.8201,-6.8201,-6.8201,-6.8201,-6.8201,-6.8201,-6.8201,-6.8201,-6.8201,-6.8201,-6.8201,-6.8201,-6.8201,-6.8201,-6.8201,-6.7877,-6.723,-6.6226,-6.5254,-6.425,-6.4024,-6.4024,-6.4024,-6.4024,-6.4024,-6.4024,-6.4024,-6.4024,-6.4024,-6.3976,-6.3929,-6.366,-6.3389,-6.3196,-6.2922,-6.2776,-6.258,-6.2184,-6.2284,-6.2531,-6.2333,-6.2135,-6.2035,-6.1834,-6.1379,-6.1052,-6.0897,-6.0794,-6.0794,-6.0701,-6.0671,-6.0332,-5.9747,-5.9131,-5.8516,-5.7888,-5.721,-5.7025,-5.681,-5.681,-5.681,-5.681,-5.681,-5.681,-5.681,-5.681,-5.681,-5.681,-5.681,-5.681,-5.681,-5.681,-5.681,-6.5481,-6.5577,-6.6223,-6.6354,-6.6124,-6.6315,-6.6137,-6.5831,-6.6003,-6.5926,-6.5784,-6.5593,-6.5222,-6.4785,-6.4704,-6.4542,-6.4218,-6.4121,-6.4088,-6.4121,-6.4218,-6.4445,-6.506,-6.5805,-6.6582,-6.7197,-6.7813,-6.8201,-6.8201,-6.8201,-6.8201,-6.8201,-6.8201,-6.8201,-6.8201,-6.8201,-6.8201,-6.8201,-6.8201,-6.8201,-6.8201,-6.8201,-6.8201,-6.8201,-6.8201,-6.8201,-6.8201,-6.8201,-6.8201,-6.8201,-6.8201,-6.8201,-6.8201,-6.8201,-6.8201,-6.8201,-6.8136,-6.7942,-6.7392,-6.6323,-6.5319,-6.4218,-6.4024,-6.4024,-6.4024,-6.4024,-6.4024,-6.4024,-6.4024,-6.4024,-6.3976,-6.385,-6.366,-6.3389,-6.3051,-6.2776,-6.2383,-6.2135,-6.1985,-6.1784,-6.1885,-6.1834,-6.1734,-6.1481,-6.1481,-6.1379,-6.1175,-6.0949,-6.0897,-6.0794,-6.0794,-6.0671,-6.0547,-6.0086,-5.9562,-5.8824,-5.8085,-5.7549,-5.7025,-5.6933,-5.681,-5.681,-5.681,-5.681,-5.681,-5.681,-5.681,-5.681,-5.681,-5.681,-5.681,-5.681,-5.681,-5.681,-5.681,-6.4168,-6.415,-6.4813,-6.5494,-6.6133,-6.6767,-6.6312,-6.542,-6.5847,-6.5713,-6.5115,-6.4593,-6.4265,-6.4121,-6.4218,-6.4121,-6.4009,-6.4024,-6.4024,-6.4024,-6.4024,-6.4397,-6.4995,-6.5675,-6.6388,-6.7165,-6.7813,-6.8201,-6.8201,-6.8201,-6.8201,-6.8201,-6.8201,-6.8201,-6.8201,-6.8201,-6.8201,-6.8201,-6.8201,-6.8201,-6.8201,-6.8201,-6.8201,-6.8201,-6.8201,-6.8201,-6.8201,-6.8201,-6.8201,-6.8201,-6.8201,-6.8201,-6.8201,-6.8201,-6.8201,-6.8201,-6.8201,-6.8136,-6.7974,-6.6161,-6.4995,-6.4185,-6.4024,-6.4024,-6.4024,-6.4024,-6.4024,-6.4024,-6.4024,-6.4024,-6.385,-6.366,-6.3437,-6.3148,-6.2825,-6.2383,-6.2035,-6.1582,-6.143,-6.1379,-6.1103,-6.0897,-6.0897,-6.0897,-6.0897,-6.0897,-6.0845,-6.0794,-6.0794,-6.0794,-6.0794,-6.0609,-6.0424,-5.9809,-5.9224,-5.8393,-5.7734,-5.7148,-5.684,-5.684,-5.681,-5.681,-5.681,-5.681,-5.681,-5.681,-5.681,-5.681,-5.681,-5.681,-5.681,-5.681,-5.681,-5.681,-5.681,-6.4669,-6.4669,-6.491,-6.5402,-6.6079,-6.6333,-6.6166,-6.5834,-6.5965,-6.5702,-6.509,-6.4715,-6.4379,-6.4132,-6.4024,-6.4024,-6.4024,-6.4024,-6.4024,-6.4024,-6.4024,-6.4121,-6.4671,-6.5546,-6.6258,-6.6744,-6.7489,-6.8201,-6.8201,-6.8201,-6.8201,-6.8201,-6.8201,-6.8201,-6.8201,-6.8201,-6.8201,-6.8201,-6.8201,-6.8201,-6.8201,-6.8201,-6.8201,-6.8201,-6.8201,-6.8201,-6.8201,-6.8201,-6.8201,-6.8201,-6.8201,-6.8201,-6.8201,-6.8201,-6.8201,-6.8201,-6.8201,-6.7974,-6.7489,-6.629,-6.5254,-6.4509,-6.4024,-6.4024,-6.4024,-6.4024,-6.4024,-6.4024,-6.4024,-6.4024,-6.3929,-6.385,-6.366,-6.3164,-6.2776,-6.2234,-6.1784,-6.1277,-6.1,-6.1,-6.0794,-6.0794,-6.0794,-6.0794,-6.0794,-6.0794,-6.0794,-6.0794,-6.0794,-6.0794,-6.0794,-6.0578,-6.027,-5.9593,-5.8885,-5.8104,-5.7518,-5.7025,-5.684,-5.681,-5.681,-5.681,-5.681,-5.681,-5.681,-5.681,-5.681,-5.681,-5.681,-5.681,-5.681,-5.681,-5.681,-5.681,-5.681,-6.5359,-6.5404,-6.5625,-6.5845,-6.6139,-6.6354,-6.6567,-6.6694,-6.6354,-6.5965,-6.5713,-6.527,-6.4773,-6.4379,-6.4085,-6.4024,-6.4024,-6.4024,-6.4024,-6.4024,-6.4024,-6.4218,-6.4736,-6.5481,-6.6258,-6.6711,-6.7489,-6.8201,-6.8201,-6.8201,-6.8201,-6.8201,-6.8201,-6.8201,-6.8201,-6.8201,-6.8201,-6.8201,-6.8201,-6.8201,-6.8201,-6.8201,-6.8201,-6.8201,-6.8201,-6.8201,-6.8201,-6.8201,-6.8201,-6.8201,-6.8201,-6.8201,-6.8201,-6.8201,-6.8201,-6.8201,-6.8169,-6.7845,-6.723,-6.6517,-6.5513,-6.4606,-6.4218,-6.4024,-6.4024,-6.4024,-6.4024,-6.4024,-6.3976,-6.3802,-6.3755,-6.3755,-6.3293,-6.2776,-6.2284,-6.1734,-6.1481,-6.1,-6.0845,-6.0794,-6.0794,-6.0794,-6.0794,-6.0794,-6.0794,-6.0794,-6.0794,-6.0794,-6.0763,-6.0701,-6.0609,-6.0332,-5.9901,-5.9131,-5.8423,-5.7795,-5.7241,-5.6871,-5.681,-5.681,-5.681,-5.681,-5.681,-5.681,-5.681,-5.681,-5.681,-5.681,-5.681,-5.681,-5.681,-5.681,-5.681,-5.681,-5.681,-6.6139,-6.6225,-6.6821,-6.6652,-6.6311,-6.6862,-6.7441,-6.7885,-6.6736,-6.6534,-6.6946,-6.5669,-6.5135,-6.4897,-6.4333,-6.4071,-6.4024,-6.4024,-6.4024,-6.4024,-6.4024,-6.438,-6.4963,-6.5708,-6.6388,-6.7132,-6.7813,-6.8201,-6.8201,-6.8201,-6.8201,-6.8201,-6.8201,-6.8201,-6.8201,-6.8201,-6.8201,-6.8201,-6.8201,-6.8201,-6.8201,-6.8201,-6.8201,-6.8201,-6.8201,-6.8201,-6.8201,-6.8201,-6.8201,-6.8201,-6.8201,-6.8201,-6.8201,-6.8201,-6.8201,-6.8201,-6.8201,-6.7845,-6.7359,-6.6679,-6.5934,-6.5092,-6.438,-6.4153,-6.4024,-6.3976,-6.3929,-6.385,-6.3802,-6.3484,-6.3293,-6.2873,-6.2432,-6.1935,-6.1481,-6.1206,-6.1052,-6.0897,-6.0845,-6.0794,-6.0794,-6.0794,-6.0794,-6.0794,-6.0794,-6.0794,-6.0794,-6.0794,-6.0732,-6.0517,-6.0332,-5.9901,-5.9347,-5.8577,-5.798,-5.7457,-5.7148,-5.681,-5.681,-5.681,-5.681,-5.681,-5.681,-5.681,-5.681,-5.681,-5.681,-5.681,-5.681,-5.681,-5.681,-5.681,-5.681,-5.681,-5.681,-6.6821,-6.6779,-6.6525,-6.6525,-6.6904,-6.7523,-6.7684,-6.74,-6.74,-6.7441,-6.7071,-6.666,-6.5932,-6.5,-6.4806,-6.4426,-6.4179,-6.4024,-6.4024,-6.4024,-6.4088,-6.4477,-6.5092,-6.5837,-6.6517,-6.7197,-6.7813,-6.8201,-6.8201,-6.8201,-6.8201,-6.8201,-6.8201,-6.8201,-6.8201,-6.8201,-6.8201,-6.8201,-6.8201,-6.8201,-6.8201,-6.8201,-6.8201,-6.8201,-6.8201,-6.8201,-6.8201,-6.8201,-6.8201,-6.8201,-6.8201,-6.8201,-6.8201,-6.8201,-6.8201,-6.8201,-6.8201,-6.8072,-6.7748,-6.6776,-6.5999,-6.553,-6.4656,-6.4153,-6.4024,-6.3929,-6.3802,-6.3612,-6.3437,-6.3148,-6.2776,-6.2383,-6.2085,-6.1734,-6.1328,-6.1155,-6.1052,-6.0897,-6.0845,-6.0794,-6.0794,-6.0794,-6.0794,-6.0794,-6.0794,-6.0794,-6.0763,-6.0763,-6.0609,-6.0393,-6.0024,-5.9593,-5.8885,-5.8146,-5.7795,-5.7303,-5.7056,-5.681,-5.681,-5.681,-5.681,-5.681,-5.681,-5.681,-5.681,-5.681,-5.681,-5.681,-5.681,-5.681,-5.681,-5.681,-5.681,-5.681,-5.681,-6.7482,-6.7441,-6.7071,-6.6988,-6.7154,-6.7523,-6.7441,-6.7236,-6.7805,-6.7845,-6.7482,-6.7195,-6.6652,-6.5888,-6.527,-6.4761,-6.4426,-6.4085,-6.4024,-6.4056,-6.4283,-6.4898,-6.5481,-6.6161,-6.6938,-6.7521,-6.791,-6.8201,-6.8201,-6.8201,-6.8201,-6.8201,-6.8201,-6.8201,-6.8201,-6.8201,-6.8201,-6.8201,-6.8201,-6.8201,-6.8201,-6.8201,-6.8201,-6.8201,-6.8201,-6.8201,-6.8201,-6.8201,-6.8201,-6.8201,-6.8201,-6.8201,-6.8201,-6.8201,-6.8201,-6.8201,-6.8201,-6.8201,-6.7942,-6.7197,-6.655,-6.5886,-6.4868,-6.4079,-6.3724,-6.358,-6.3293,-6.3019,-6.2873,-6.2678,-6.2383,-6.2035,-6.1885,-6.1734,-6.1481,-6.1257,-6.1103,-6.0949,-6.0897,-6.0794,-6.0794,-6.0794,-6.0794,-6.0794,-6.0794,-6.0794,-6.0701,-6.0547,-6.0363,-6.0086,-5.9686,-5.9255,-5.8535,-5.7795,-5.7457,-5.7179,-5.6964,-5.681,-5.681,-5.681,-5.681,-5.681,-5.681,-5.681,-5.681,-5.681,-5.681,-5.681,-5.681,-5.681,-5.681,-5.681,-5.681,-5.681,-5.681,-6.8083,-6.8044,-6.8083,-6.7684,-6.7236,-6.7277,-6.7236,-6.7236,-6.7845,-6.8083,-6.7925,-6.7482,-6.7154,-6.6618,-6.5932,-6.527,-6.4852,-6.4426,-6.4132,-6.4088,-6.4606,-6.5254,-6.5967,-6.6809,-6.7327,-6.791,-6.8201,-6.8201,-6.8201,-6.8201,-6.8201,-6.8201,-6.8201,-6.8201,-6.8201,-6.8201,-6.8201,-6.8201,-6.8201,-6.8201,-6.8201,-6.8201,-6.8201,-6.8201,-6.8201,-6.8201,-6.8201,-6.8201,-6.8201,-6.8201,-6.8201,-6.8201,-6.8201,-6.8201,-6.8201,-6.8201,-6.8201,-6.8201,-6.8039,-6.7424,-6.6678,-6.5884,-6.4931,-6.3868,-6.3274,-6.3148,-6.2825,-6.2481,-6.2333,-6.2035,-6.1734,-6.1531,-6.143,-6.1277,-6.1155,-6.1,-6.0949,-6.0845,-6.0845,-6.0794,-6.0794,-6.0794,-6.0794,-6.0794,-6.0794,-6.0794,-6.0547,-6.0332,-5.9993,-5.9686,-5.9224,-5.8812,-5.8073,-5.7395,-5.7179,-5.6933,-5.6902,-5.681,-5.681,-5.681,-5.681,-5.681,-5.681,-5.681,-5.681,-5.681,-5.681,-5.681,-5.681,-5.681,-5.681,-5.681,-5.681,-5.681,-5.681,-6.8083,-6.8083,-6.8083,-6.7965,-6.7845,-6.7845,-6.7845,-6.7845,-6.8004,-6.8083,-6.8044,-6.7885,-6.7563,-6.7071,-6.6618,-6.5975,-6.509,-6.4669,-6.4426,-6.4424,-6.4801,-6.5578,-6.6193,-6.6971,-6.7586,-6.8007,-6.8201,-6.8201,-6.8201,-6.8201,-6.8201,-6.8201,-6.8201,-6.8201,-6.8201,-6.8201,-6.8201,-6.8201,-6.8201,-6.8201,-6.8201,-6.8201,-6.8201,-6.8201,-6.8201,-6.8201,-6.8201,-6.8201,-6.8201,-6.8201,-6.8201,-6.8201,-6.8201,-6.8201,-6.8201,-6.8201,-6.8201,-6.8201,-6.7939,-6.7519,-6.6755,-6.5685,-6.4651,-6.339,-6.2717,-6.2626,-6.2383,-6.1985,-6.1683,-6.143,-6.1206,-6.1103,-6.1,-6.0897,-6.0794,-6.0794,-6.0794,-6.0794,-6.0794,-6.0794,-6.0794,-6.0794,-6.0794,-6.0794,-6.0794,-6.0547,-6.0178,-5.9839,-5.9439,-5.907,-5.8485,-5.7993,-5.7487,-5.6964,-5.684,-5.681,-5.681,-5.681,-5.681,-5.681,-5.681,-5.681,-5.681,-5.681,-5.681,-5.681,-5.681,-5.681,-5.681,-5.681,-5.681,-5.681,-5.681,-5.681,-5.681,-6.8083,-6.8083,-6.8083,-6.8083,-6.8083,-6.8083,-6.8083,-6.8083,-6.8083,-6.8083,-6.8083,-6.8044,-6.7885,-6.736,-6.6988,-6.6449,-6.5404,-6.4761,-6.4593,-6.4622,-6.5125,-6.5934,-6.6614,-6.7262,-6.7715,-6.8169,-6.8201,-6.8201,-6.8201,-6.8201,-6.8201,-6.8201,-6.8201,-6.8201,-6.8201,-6.8201,-6.8201,-6.8201,-6.8201,-6.8201,-6.8201,-6.8201,-6.8201,-6.8201,-6.8201,-6.8201,-6.8201,-6.8201,-6.8201,-6.8201,-6.8201,-6.8201,-6.8201,-6.8201,-6.8201,-6.8201,-6.8201,-6.8101,-6.782,-6.7379,-6.6662,-6.5605,-6.4431,-6.3241,-6.2461,-6.2292,-6.1613,-6.1226,-6.1257,-6.1,-6.1,-6.0897,-6.0897,-6.0845,-6.0794,-6.0794,-6.0794,-6.0794,-6.0794,-6.0794,-6.0794,-6.0794,-6.0794,-6.0794,-6.0763,-6.0671,-6.0209,-5.9532,-5.9101,-5.8516,-5.7869,-5.7408,-5.7025,-5.684,-5.681,-5.681,-5.681,-5.681,-5.681,-5.681,-5.681,-5.681,-5.681,-5.681,-5.681,-5.681,-5.681,-5.681,-5.681,-5.681,-5.681,-5.681,-5.681,-5.681,-5.681,-6.8083,-6.8083,-6.8083,-6.8083,-6.8083,-6.8083,-6.8083,-6.8083,-6.8083,-6.8083,-6.8083,-6.8083,-6.8083,-6.761,-6.6995,-6.6449,-6.5878,-6.5213,-6.4956,-6.5043,-6.5675,-6.6323,-6.7035,-6.778,-6.8039,-6.8169,-6.8201,-6.8201,-6.8201,-6.8201,-6.8201,-6.8201,-6.8201,-6.8201,-6.8201,-6.8201,-6.8201,-6.8201,-6.8201,-6.8201,-6.8201,-6.8201,-6.8201,-6.8201,-6.8201,-6.8201,-6.8201,-6.8201,-6.8201,-6.8201,-6.8201,-6.8201,-6.8101,-6.8101,-6.8,-6.8,-6.7797,-6.7593,-6.7388,-6.7221,-6.6381,-6.5511,-6.4309,-6.336,-6.2488,-6.1702,-6.1072,-6.0845,-6.0845,-6.0845,-6.0794,-6.0794,-6.0794,-6.0794,-6.0794,-6.0794,-6.0794,-6.0794,-6.0794,-6.0794,-6.0794,-6.0794,-6.0794,-6.0794,-6.0732,-6.064,-6.0147,-5.9501,-5.8874,-5.8134,-5.7457,-5.7179,-5.6933,-5.681,-5.681,-5.681,-5.681,-5.681,-5.681,-5.681,-5.681,-5.681,-5.681,-5.681,-5.681,-5.681,-5.681,-5.681,-5.681,-5.681,-5.681,-5.681,-5.681,-5.681,-5.681,-6.8083,-6.8083,-6.8083,-6.8083,-6.8083,-6.8083,-6.8083,-6.8083,-6.8083,-6.8083,-6.8083,-6.8083,-6.8083,-6.8083,-6.7925,-6.7277,-6.6052,-6.5503,-6.5207,-6.5171,-6.5902,-6.6582,-6.723,-6.791,-6.8136,-6.8201,-6.8201,-6.8201,-6.8201,-6.8201,-6.8201,-6.8201,-6.8201,-6.8201,-6.8201,-6.8201,-6.8201,-6.8201,-6.8201,-6.8201,-6.8201,-6.8201,-6.8201,-6.8201,-6.8201,-6.8201,-6.8201,-6.8201,-6.8201,-6.8201,-6.8201,-6.8201,-6.805,-6.7797,-6.7644,-6.7491,-6.7317,-6.7057,-6.6849,-6.6744,-6.6017,-6.5155,-6.4013,-6.3161,-6.229,-6.1402,-6.0917,-6.0794,-6.0794,-6.0794,-6.0794,-6.0794,-6.0794,-6.0794,-6.0794,-6.0794,-6.0794,-6.0794,-6.0794,-6.0794,-6.0794,-6.0794,-6.0794,-6.0794,-6.0794,-6.0455,-5.9686,-5.9101,-5.8762,-5.7949,-5.7025,-5.6933,-5.681,-5.681,-5.681,-5.681,-5.681,-5.681,-5.681,-5.681,-5.681,-5.681,-5.681,-5.681,-5.681,-5.681,-5.681,-5.681,-5.681,-5.681,-5.681,-5.681,-5.681,-5.681,-5.681]}]]